<?xml version="1.0" encoding="UTF-8"?>
<gpx xmlns="http://www.topografix.com/GPX/1/1" xmlns:gpsies="https://www.gpsies.com/GPX/1/0" creator="AllTrails https://www.alltrails.com/ - Running_2020-09-23T08_11_01-1" version="1.1" xmlns:xsi="http://www.w3.org/2001/XMLSchema-instance" xsi:schemaLocation="http://www.topografix.com/GPX/1/1 http://www.topografix.com/GPX/1/1/gpx.xsd https://www.gpsies.com/GPX/1/0 https://www.gpsies.com/gpsies.xsd">
  <metadata>
    <name>Running_2020-09-23T08_11_01-1</name>
    <link href="https://www.gpsies.com/">
      <text>Running_2020-09-23T08_11_01-1 on AllTrails</text>
    </link>
    <time>2020-09-23T13:32:19Z</time>
    <extensions>
      <gpsies:recordedTotalCalories>2297</gpsies:recordedTotalCalories>
      <gpsies:recordedTotalAscent>718</gpsies:recordedTotalAscent>
      <gpsies:recordedTotalDescent>708</gpsies:recordedTotalDescent>
      <gpsies:recordedTotalDistance>12658.0</gpsies:recordedTotalDistance>
      <gpsies:recordedTotalElapsedTime>7068.434</gpsies:recordedTotalElapsedTime>
      <gpsies:recordedTotalTimerTime>7068.42</gpsies:recordedTotalTimerTime>
      <gpsies:recordedAvgHeartRate>178</gpsies:recordedAvgHeartRate>
    </extensions>
  </metadata>
  <trk>
    <name>Running_2020-09-23T08_11_01-1 on AllTrails</name>
    <trkseg>
      <trkpt lat="40.92925119" lon="-8.46643843">
        <ele>229.00000</ele>
        <time>2020-09-23T07:11:02Z</time>
      </trkpt>
      <trkpt lat="40.92924482" lon="-8.46641521">
        <ele>229.00000</ele>
        <time>2020-09-23T07:11:04Z</time>
      </trkpt>
      <trkpt lat="40.92924163" lon="-8.46639116">
        <ele>229.00000</ele>
        <time>2020-09-23T07:11:06Z</time>
      </trkpt>
      <trkpt lat="40.92920961" lon="-8.46627524">
        <ele>228.00000</ele>
        <time>2020-09-23T07:11:12Z</time>
      </trkpt>
      <trkpt lat="40.92922881" lon="-8.46615680">
        <ele>228.00000</ele>
        <time>2020-09-23T07:11:20Z</time>
      </trkpt>
      <trkpt lat="40.92924163" lon="-8.46603283">
        <ele>228.00000</ele>
        <time>2020-09-23T07:11:28Z</time>
      </trkpt>
      <trkpt lat="40.92926083" lon="-8.46589679">
        <ele>229.00000</ele>
        <time>2020-09-23T07:11:36Z</time>
      </trkpt>
      <trkpt lat="40.92926083" lon="-8.46578163">
        <ele>229.00000</ele>
        <time>2020-09-23T07:11:44Z</time>
      </trkpt>
      <trkpt lat="40.92927038" lon="-8.46574718">
        <ele>229.00000</ele>
        <time>2020-09-23T07:11:46Z</time>
      </trkpt>
      <trkpt lat="40.92928321" lon="-8.46572957">
        <ele>229.00000</ele>
        <time>2020-09-23T07:11:47Z</time>
      </trkpt>
      <trkpt lat="40.92930559" lon="-8.46571356">
        <ele>229.00000</ele>
        <time>2020-09-23T07:11:49Z</time>
      </trkpt>
      <trkpt lat="40.92932797" lon="-8.46570317">
        <ele>229.00000</ele>
        <time>2020-09-23T07:11:51Z</time>
      </trkpt>
      <trkpt lat="40.92932478" lon="-8.46567124">
        <ele>229.00000</ele>
        <time>2020-09-23T07:11:53Z</time>
      </trkpt>
      <trkpt lat="40.92934079" lon="-8.46565598">
        <ele>229.00000</ele>
        <time>2020-09-23T07:11:55Z</time>
      </trkpt>
      <trkpt lat="40.92939519" lon="-8.46554475">
        <ele>230.00000</ele>
        <time>2020-09-23T07:12:01Z</time>
      </trkpt>
      <trkpt lat="40.92940483" lon="-8.46542162">
        <ele>230.00000</ele>
        <time>2020-09-23T07:12:08Z</time>
      </trkpt>
      <trkpt lat="40.92938882" lon="-8.46530000">
        <ele>229.00000</ele>
        <time>2020-09-23T07:12:14Z</time>
      </trkpt>
      <trkpt lat="40.92938882" lon="-8.46517838">
        <ele>229.00000</ele>
        <time>2020-09-23T07:12:19Z</time>
      </trkpt>
      <trkpt lat="40.92938882" lon="-8.46504720">
        <ele>228.00000</ele>
        <time>2020-09-23T07:12:27Z</time>
      </trkpt>
      <trkpt lat="40.92944322" lon="-8.46493841">
        <ele>228.00000</ele>
        <time>2020-09-23T07:12:32Z</time>
      </trkpt>
      <trkpt lat="40.92944959" lon="-8.46481360">
        <ele>230.00000</ele>
        <time>2020-09-23T07:12:39Z</time>
      </trkpt>
      <trkpt lat="40.92942721" lon="-8.46468796">
        <ele>231.00000</ele>
        <time>2020-09-23T07:12:46Z</time>
      </trkpt>
      <trkpt lat="40.92934716" lon="-8.46459282">
        <ele>232.00000</ele>
        <time>2020-09-23T07:12:51Z</time>
      </trkpt>
      <trkpt lat="40.92935043" lon="-8.46445444">
        <ele>233.00000</ele>
        <time>2020-09-23T07:12:56Z</time>
      </trkpt>
      <trkpt lat="40.92935043" lon="-8.46431119">
        <ele>234.00000</ele>
        <time>2020-09-23T07:13:01Z</time>
      </trkpt>
      <trkpt lat="40.92940483" lon="-8.46420641">
        <ele>235.00000</ele>
        <time>2020-09-23T07:13:05Z</time>
      </trkpt>
      <trkpt lat="40.92943676" lon="-8.46408639">
        <ele>236.00000</ele>
        <time>2020-09-23T07:13:11Z</time>
      </trkpt>
      <trkpt lat="40.92945923" lon="-8.46396636">
        <ele>237.00000</ele>
        <time>2020-09-23T07:13:17Z</time>
      </trkpt>
      <trkpt lat="40.92948479" lon="-8.46384163">
        <ele>239.00000</ele>
        <time>2020-09-23T07:13:23Z</time>
      </trkpt>
      <trkpt lat="40.92943676" lon="-8.46373443">
        <ele>238.00000</ele>
        <time>2020-09-23T07:13:28Z</time>
      </trkpt>
      <trkpt lat="40.92946560" lon="-8.46360719">
        <ele>239.00000</ele>
        <time>2020-09-23T07:13:34Z</time>
      </trkpt>
      <trkpt lat="40.92947842" lon="-8.46348163">
        <ele>239.00000</ele>
        <time>2020-09-23T07:13:42Z</time>
      </trkpt>
      <trkpt lat="40.92946241" lon="-8.46334400">
        <ele>239.00000</ele>
        <time>2020-09-23T07:13:47Z</time>
      </trkpt>
      <trkpt lat="40.92942402" lon="-8.46323520">
        <ele>239.00000</ele>
        <time>2020-09-23T07:13:51Z</time>
      </trkpt>
      <trkpt lat="40.92940483" lon="-8.46311199">
        <ele>239.00000</ele>
        <time>2020-09-23T07:13:57Z</time>
      </trkpt>
      <trkpt lat="40.92933760" lon="-8.46300797">
        <ele>238.00000</ele>
        <time>2020-09-23T07:14:06Z</time>
      </trkpt>
      <trkpt lat="40.92927038" lon="-8.46292323">
        <ele>238.00000</ele>
        <time>2020-09-23T07:14:14Z</time>
      </trkpt>
      <trkpt lat="40.92918723" lon="-8.46285835">
        <ele>238.00000</ele>
        <time>2020-09-23T07:14:22Z</time>
      </trkpt>
      <trkpt lat="40.92913920" lon="-8.46272642">
        <ele>239.00000</ele>
        <time>2020-09-23T07:14:29Z</time>
      </trkpt>
      <trkpt lat="40.92907198" lon="-8.46264160">
        <ele>241.00000</ele>
        <time>2020-09-23T07:14:35Z</time>
      </trkpt>
      <trkpt lat="40.92898556" lon="-8.46259675">
        <ele>241.00000</ele>
        <time>2020-09-23T07:14:43Z</time>
      </trkpt>
      <trkpt lat="40.92891197" lon="-8.46251998">
        <ele>241.00000</ele>
        <time>2020-09-23T07:14:58Z</time>
      </trkpt>
      <trkpt lat="40.92885439" lon="-8.46241202">
        <ele>241.00000</ele>
        <time>2020-09-23T07:15:06Z</time>
      </trkpt>
      <trkpt lat="40.92875523" lon="-8.46236156">
        <ele>241.00000</ele>
        <time>2020-09-23T07:15:12Z</time>
      </trkpt>
      <trkpt lat="40.92864962" lon="-8.46235443">
        <ele>241.00000</ele>
        <time>2020-09-23T07:15:17Z</time>
      </trkpt>
      <trkpt lat="40.92855683" lon="-8.46235997">
        <ele>241.00000</ele>
        <time>2020-09-23T07:15:21Z</time>
      </trkpt>
      <trkpt lat="40.92848315" lon="-8.46227682">
        <ele>241.00000</ele>
        <time>2020-09-23T07:15:26Z</time>
      </trkpt>
      <trkpt lat="40.92839037" lon="-8.46219518">
        <ele>242.00000</ele>
        <time>2020-09-23T07:15:32Z</time>
      </trkpt>
      <trkpt lat="40.92835843" lon="-8.46214883">
        <ele>244.00000</ele>
        <time>2020-09-23T07:15:35Z</time>
      </trkpt>
      <trkpt lat="40.92834879" lon="-8.46212636">
        <ele>244.00000</ele>
        <time>2020-09-23T07:15:36Z</time>
      </trkpt>
      <trkpt lat="40.92833278" lon="-8.46209996">
        <ele>245.00000</ele>
        <time>2020-09-23T07:15:37Z</time>
      </trkpt>
      <trkpt lat="40.92831677" lon="-8.46207599">
        <ele>246.00000</ele>
        <time>2020-09-23T07:15:38Z</time>
      </trkpt>
      <trkpt lat="40.92829758" lon="-8.46205361">
        <ele>247.00000</ele>
        <time>2020-09-23T07:15:40Z</time>
      </trkpt>
      <trkpt lat="40.92827838" lon="-8.46203676">
        <ele>247.00000</ele>
        <time>2020-09-23T07:15:42Z</time>
      </trkpt>
      <trkpt lat="40.92825600" lon="-8.46201363">
        <ele>249.00000</ele>
        <time>2020-09-23T07:15:44Z</time>
      </trkpt>
      <trkpt lat="40.92823681" lon="-8.46198638">
        <ele>250.00000</ele>
        <time>2020-09-23T07:15:46Z</time>
      </trkpt>
      <trkpt lat="40.92821443" lon="-8.46185202">
        <ele>251.00000</ele>
        <time>2020-09-23T07:15:53Z</time>
      </trkpt>
      <trkpt lat="40.92827520" lon="-8.46174641">
        <ele>250.00000</ele>
        <time>2020-09-23T07:15:59Z</time>
      </trkpt>
      <trkpt lat="40.92834561" lon="-8.46166720">
        <ele>248.00000</ele>
        <time>2020-09-23T07:16:07Z</time>
      </trkpt>
      <trkpt lat="40.92841601" lon="-8.46156318">
        <ele>247.00000</ele>
        <time>2020-09-23T07:16:15Z</time>
      </trkpt>
      <trkpt lat="40.92848642" lon="-8.46146000">
        <ele>247.00000</ele>
        <time>2020-09-23T07:16:21Z</time>
      </trkpt>
      <trkpt lat="40.92855038" lon="-8.46135682">
        <ele>246.00000</ele>
        <time>2020-09-23T07:16:26Z</time>
      </trkpt>
      <trkpt lat="40.92863998" lon="-8.46127283">
        <ele>246.00000</ele>
        <time>2020-09-23T07:16:32Z</time>
      </trkpt>
      <trkpt lat="40.92870083" lon="-8.46117678">
        <ele>246.00000</ele>
        <time>2020-09-23T07:16:37Z</time>
      </trkpt>
      <trkpt lat="40.92878079" lon="-8.46110159">
        <ele>245.00000</ele>
        <time>2020-09-23T07:16:41Z</time>
      </trkpt>
      <trkpt lat="40.92886403" lon="-8.46104158">
        <ele>243.00000</ele>
        <time>2020-09-23T07:16:45Z</time>
      </trkpt>
      <trkpt lat="40.92894081" lon="-8.46095357">
        <ele>243.00000</ele>
        <time>2020-09-23T07:16:51Z</time>
      </trkpt>
      <trkpt lat="40.92901758" lon="-8.46087997">
        <ele>242.00000</ele>
        <time>2020-09-23T07:16:56Z</time>
      </trkpt>
      <trkpt lat="40.92910400" lon="-8.46078475">
        <ele>241.00000</ele>
        <time>2020-09-23T07:17:03Z</time>
      </trkpt>
      <trkpt lat="40.92919679" lon="-8.46073522">
        <ele>241.00000</ele>
        <time>2020-09-23T07:17:08Z</time>
      </trkpt>
      <trkpt lat="40.92929922" lon="-8.46069599">
        <ele>242.00000</ele>
        <time>2020-09-23T07:17:14Z</time>
      </trkpt>
      <trkpt lat="40.92938882" lon="-8.46065517">
        <ele>242.00000</ele>
        <time>2020-09-23T07:17:23Z</time>
      </trkpt>
      <trkpt lat="40.92947842" lon="-8.46058879">
        <ele>242.00000</ele>
        <time>2020-09-23T07:17:30Z</time>
      </trkpt>
      <trkpt lat="40.92957439" lon="-8.46059759">
        <ele>243.00000</ele>
        <time>2020-09-23T07:17:44Z</time>
      </trkpt>
      <trkpt lat="40.92961278" lon="-8.46073597">
        <ele>243.00000</ele>
        <time>2020-09-23T07:18:00Z</time>
      </trkpt>
      <trkpt lat="40.92970557" lon="-8.46072155">
        <ele>244.00000</ele>
        <time>2020-09-23T07:18:09Z</time>
      </trkpt>
      <trkpt lat="40.92977916" lon="-8.46065123">
        <ele>244.00000</ele>
        <time>2020-09-23T07:18:16Z</time>
      </trkpt>
      <trkpt lat="40.92986558" lon="-8.46058158">
        <ele>244.00000</ele>
        <time>2020-09-23T07:18:22Z</time>
      </trkpt>
      <trkpt lat="40.92995837" lon="-8.46053757">
        <ele>244.00000</ele>
        <time>2020-09-23T07:18:27Z</time>
      </trkpt>
      <trkpt lat="40.93005116" lon="-8.46049038">
        <ele>244.00000</ele>
        <time>2020-09-23T07:18:32Z</time>
      </trkpt>
      <trkpt lat="40.93014403" lon="-8.46045283">
        <ele>245.00000</ele>
        <time>2020-09-23T07:18:38Z</time>
      </trkpt>
      <trkpt lat="40.93022081" lon="-8.46052399">
        <ele>246.00000</ele>
        <time>2020-09-23T07:18:57Z</time>
      </trkpt>
      <trkpt lat="40.93031359" lon="-8.46052156">
        <ele>247.00000</ele>
        <time>2020-09-23T07:19:05Z</time>
      </trkpt>
      <trkpt lat="40.93041602" lon="-8.46050161">
        <ele>247.00000</ele>
        <time>2020-09-23T07:19:11Z</time>
      </trkpt>
      <trkpt lat="40.93051199" lon="-8.46047840">
        <ele>247.00000</ele>
        <time>2020-09-23T07:19:17Z</time>
      </trkpt>
      <trkpt lat="40.93061760" lon="-8.46044160">
        <ele>248.00000</ele>
        <time>2020-09-23T07:19:20Z</time>
      </trkpt>
      <trkpt lat="40.93068801" lon="-8.46036641">
        <ele>248.00000</ele>
        <time>2020-09-23T07:19:23Z</time>
      </trkpt>
      <trkpt lat="40.93074878" lon="-8.46025678">
        <ele>248.00000</ele>
        <time>2020-09-23T07:19:27Z</time>
      </trkpt>
      <trkpt lat="40.93077116" lon="-8.46014002">
        <ele>247.00000</ele>
        <time>2020-09-23T07:19:31Z</time>
      </trkpt>
      <trkpt lat="40.93080637" lon="-8.46002158">
        <ele>247.00000</ele>
        <time>2020-09-23T07:19:35Z</time>
      </trkpt>
      <trkpt lat="40.93085439" lon="-8.45990155">
        <ele>247.00000</ele>
        <time>2020-09-23T07:19:39Z</time>
      </trkpt>
      <trkpt lat="40.93091198" lon="-8.45978798">
        <ele>246.00000</ele>
        <time>2020-09-23T07:19:43Z</time>
      </trkpt>
      <trkpt lat="40.93099839" lon="-8.45971036">
        <ele>246.00000</ele>
        <time>2020-09-23T07:19:47Z</time>
      </trkpt>
      <trkpt lat="40.93109764" lon="-8.45962797">
        <ele>246.00000</ele>
        <time>2020-09-23T07:19:51Z</time>
      </trkpt>
      <trkpt lat="40.93115204" lon="-8.45951355">
        <ele>246.00000</ele>
        <time>2020-09-23T07:19:55Z</time>
      </trkpt>
      <trkpt lat="40.93115841" lon="-8.45938481">
        <ele>245.00000</ele>
        <time>2020-09-23T07:19:59Z</time>
      </trkpt>
      <trkpt lat="40.93109118" lon="-8.45925682">
        <ele>244.00000</ele>
        <time>2020-09-23T07:20:04Z</time>
      </trkpt>
      <trkpt lat="40.93104315" lon="-8.45913763">
        <ele>243.00000</ele>
        <time>2020-09-23T07:20:08Z</time>
      </trkpt>
      <trkpt lat="40.93105279" lon="-8.45900000">
        <ele>243.00000</ele>
        <time>2020-09-23T07:20:12Z</time>
      </trkpt>
      <trkpt lat="40.93104642" lon="-8.45886798">
        <ele>244.00000</ele>
        <time>2020-09-23T07:20:19Z</time>
      </trkpt>
      <trkpt lat="40.93110719" lon="-8.45877679">
        <ele>244.00000</ele>
        <time>2020-09-23T07:20:24Z</time>
      </trkpt>
      <trkpt lat="40.93112639" lon="-8.45864242">
        <ele>245.00000</ele>
        <time>2020-09-23T07:20:29Z</time>
      </trkpt>
      <trkpt lat="40.93111356" lon="-8.45852156">
        <ele>245.00000</ele>
        <time>2020-09-23T07:20:35Z</time>
      </trkpt>
    </trkseg>
    <trkseg>
      <trkpt lat="40.93106880" lon="-8.45839281">
        <ele>245.00000</ele>
        <time>2020-09-23T07:20:40Z</time>
      </trkpt>
      <trkpt lat="40.93099839" lon="-8.45830639">
        <ele>246.00000</ele>
        <time>2020-09-23T07:20:44Z</time>
      </trkpt>
      <trkpt lat="40.93092480" lon="-8.45820556">
        <ele>246.00000</ele>
        <time>2020-09-23T07:20:49Z</time>
      </trkpt>
      <trkpt lat="40.93087359" lon="-8.45810003">
        <ele>247.00000</ele>
        <time>2020-09-23T07:20:56Z</time>
      </trkpt>
      <trkpt lat="40.93084475" lon="-8.45798000">
        <ele>247.00000</ele>
        <time>2020-09-23T07:21:05Z</time>
      </trkpt>
      <trkpt lat="40.93085439" lon="-8.45785997">
        <ele>247.00000</ele>
        <time>2020-09-23T07:21:15Z</time>
      </trkpt>
      <trkpt lat="40.93079681" lon="-8.45774397">
        <ele>248.00000</ele>
        <time>2020-09-23T07:21:24Z</time>
      </trkpt>
      <trkpt lat="40.93074878" lon="-8.45763282">
        <ele>248.00000</ele>
        <time>2020-09-23T07:21:30Z</time>
      </trkpt>
      <trkpt lat="40.93068156" lon="-8.45754322">
        <ele>249.00000</ele>
        <time>2020-09-23T07:21:38Z</time>
      </trkpt>
      <trkpt lat="40.93058877" lon="-8.45746963">
        <ele>250.00000</ele>
        <time>2020-09-23T07:21:47Z</time>
      </trkpt>
      <trkpt lat="40.93049917" lon="-8.45737441">
        <ele>250.00000</ele>
        <time>2020-09-23T07:21:53Z</time>
      </trkpt>
      <trkpt lat="40.93039683" lon="-8.45734323">
        <ele>251.00000</ele>
        <time>2020-09-23T07:22:03Z</time>
      </trkpt>
      <trkpt lat="40.93030395" lon="-8.45729202">
        <ele>251.00000</ele>
        <time>2020-09-23T07:22:10Z</time>
      </trkpt>
      <trkpt lat="40.93020480" lon="-8.45721121">
        <ele>252.00000</ele>
        <time>2020-09-23T07:22:15Z</time>
      </trkpt>
      <trkpt lat="40.93011838" lon="-8.45713360">
        <ele>253.00000</ele>
        <time>2020-09-23T07:22:23Z</time>
      </trkpt>
      <trkpt lat="40.93005761" lon="-8.45702639">
        <ele>252.00000</ele>
        <time>2020-09-23T07:22:28Z</time>
      </trkpt>
      <trkpt lat="40.93003842" lon="-8.45689681">
        <ele>252.00000</ele>
        <time>2020-09-23T07:22:33Z</time>
      </trkpt>
      <trkpt lat="40.93000321" lon="-8.45677837">
        <ele>251.00000</ele>
        <time>2020-09-23T07:22:39Z</time>
      </trkpt>
      <trkpt lat="40.92996155" lon="-8.45664803">
        <ele>251.00000</ele>
        <time>2020-09-23T07:22:43Z</time>
      </trkpt>
      <trkpt lat="40.92993917" lon="-8.45652163">
        <ele>251.00000</ele>
        <time>2020-09-23T07:22:47Z</time>
      </trkpt>
      <trkpt lat="40.92993280" lon="-8.45648878">
        <ele>251.00000</ele>
        <time>2020-09-23T07:22:48Z</time>
      </trkpt>
      <trkpt lat="40.92993280" lon="-8.45644963">
        <ele>251.00000</ele>
        <time>2020-09-23T07:22:49Z</time>
      </trkpt>
      <trkpt lat="40.92993280" lon="-8.45641116">
        <ele>251.00000</ele>
        <time>2020-09-23T07:22:50Z</time>
      </trkpt>
      <trkpt lat="40.92993917" lon="-8.45637520">
        <ele>250.00000</ele>
        <time>2020-09-23T07:22:51Z</time>
      </trkpt>
      <trkpt lat="40.92994563" lon="-8.45634637">
        <ele>250.00000</ele>
        <time>2020-09-23T07:22:52Z</time>
      </trkpt>
      <trkpt lat="40.92996482" lon="-8.45622316">
        <ele>249.00000</ele>
        <time>2020-09-23T07:22:56Z</time>
      </trkpt>
      <trkpt lat="40.92993280" lon="-8.45610799">
        <ele>249.00000</ele>
        <time>2020-09-23T07:23:01Z</time>
      </trkpt>
      <trkpt lat="40.92988478" lon="-8.45597363">
        <ele>249.00000</ele>
        <time>2020-09-23T07:23:06Z</time>
      </trkpt>
      <trkpt lat="40.92979836" lon="-8.45586961">
        <ele>248.00000</ele>
        <time>2020-09-23T07:23:10Z</time>
      </trkpt>
      <trkpt lat="40.92978243" lon="-8.45585519">
        <ele>248.00000</ele>
        <time>2020-09-23T07:23:11Z</time>
      </trkpt>
      <trkpt lat="40.92974396" lon="-8.45582636">
        <ele>248.00000</ele>
        <time>2020-09-23T07:23:13Z</time>
      </trkpt>
      <trkpt lat="40.92972476" lon="-8.45581596">
        <ele>248.00000</ele>
        <time>2020-09-23T07:23:14Z</time>
      </trkpt>
      <trkpt lat="40.92970557" lon="-8.45580322">
        <ele>249.00000</ele>
        <time>2020-09-23T07:23:15Z</time>
      </trkpt>
      <trkpt lat="40.92967364" lon="-8.45577598">
        <ele>249.00000</ele>
        <time>2020-09-23T07:23:17Z</time>
      </trkpt>
      <trkpt lat="40.92958722" lon="-8.45569518">
        <ele>249.00000</ele>
        <time>2020-09-23T07:23:21Z</time>
      </trkpt>
      <trkpt lat="40.92950717" lon="-8.45559518">
        <ele>249.00000</ele>
        <time>2020-09-23T07:23:25Z</time>
      </trkpt>
      <trkpt lat="40.92949762" lon="-8.45556643">
        <ele>249.00000</ele>
        <time>2020-09-23T07:23:26Z</time>
      </trkpt>
      <trkpt lat="40.92948479" lon="-8.45554003">
        <ele>249.00000</ele>
        <time>2020-09-23T07:23:27Z</time>
      </trkpt>
      <trkpt lat="40.92947842" lon="-8.45551522">
        <ele>249.00000</ele>
        <time>2020-09-23T07:23:28Z</time>
      </trkpt>
      <trkpt lat="40.92945923" lon="-8.45538077">
        <ele>248.00000</ele>
        <time>2020-09-23T07:23:33Z</time>
      </trkpt>
      <trkpt lat="40.92942721" lon="-8.45531682">
        <ele>248.00000</ele>
        <time>2020-09-23T07:23:35Z</time>
      </trkpt>
      <trkpt lat="40.92941438" lon="-8.45529679">
        <ele>248.00000</ele>
        <time>2020-09-23T07:23:36Z</time>
      </trkpt>
      <trkpt lat="40.92940483" lon="-8.45526963">
        <ele>248.00000</ele>
        <time>2020-09-23T07:23:37Z</time>
      </trkpt>
      <trkpt lat="40.92938882" lon="-8.45524717">
        <ele>249.00000</ele>
        <time>2020-09-23T07:23:38Z</time>
      </trkpt>
      <trkpt lat="40.92936962" lon="-8.45522319">
        <ele>249.00000</ele>
        <time>2020-09-23T07:23:39Z</time>
      </trkpt>
      <trkpt lat="40.92935680" lon="-8.45520475">
        <ele>249.00000</ele>
        <time>2020-09-23T07:23:40Z</time>
      </trkpt>
      <trkpt lat="40.92927684" lon="-8.45515522">
        <ele>251.00000</ele>
        <time>2020-09-23T07:23:43Z</time>
      </trkpt>
      <trkpt lat="40.92924800" lon="-8.45511599">
        <ele>251.00000</ele>
        <time>2020-09-23T07:23:45Z</time>
      </trkpt>
      <trkpt lat="40.92923199" lon="-8.45508959">
        <ele>251.00000</ele>
        <time>2020-09-23T07:23:46Z</time>
      </trkpt>
      <trkpt lat="40.92915203" lon="-8.45498397">
        <ele>252.00000</ele>
        <time>2020-09-23T07:23:51Z</time>
      </trkpt>
      <trkpt lat="40.92908481" lon="-8.45489043">
        <ele>252.00000</ele>
        <time>2020-09-23T07:23:55Z</time>
      </trkpt>
      <trkpt lat="40.92901758" lon="-8.45477837">
        <ele>253.00000</ele>
        <time>2020-09-23T07:23:59Z</time>
      </trkpt>
      <trkpt lat="40.92898556" lon="-8.45473042">
        <ele>253.00000</ele>
        <time>2020-09-23T07:24:01Z</time>
      </trkpt>
      <trkpt lat="40.92896956" lon="-8.45470318">
        <ele>254.00000</ele>
        <time>2020-09-23T07:24:02Z</time>
      </trkpt>
      <trkpt lat="40.92895363" lon="-8.45467837">
        <ele>254.00000</ele>
        <time>2020-09-23T07:24:03Z</time>
      </trkpt>
      <trkpt lat="40.92894081" lon="-8.45465842">
        <ele>254.00000</ele>
        <time>2020-09-23T07:24:04Z</time>
      </trkpt>
      <trkpt lat="40.92891197" lon="-8.45463680">
        <ele>254.00000</ele>
        <time>2020-09-23T07:24:05Z</time>
      </trkpt>
      <trkpt lat="40.92889278" lon="-8.45460796">
        <ele>254.00000</ele>
        <time>2020-09-23T07:24:06Z</time>
      </trkpt>
      <trkpt lat="40.92888004" lon="-8.45458483">
        <ele>254.00000</ele>
        <time>2020-09-23T07:24:07Z</time>
      </trkpt>
      <trkpt lat="40.92886403" lon="-8.45455843">
        <ele>254.00000</ele>
        <time>2020-09-23T07:24:08Z</time>
      </trkpt>
      <trkpt lat="40.92884483" lon="-8.45453999">
        <ele>254.00000</ele>
        <time>2020-09-23T07:24:09Z</time>
      </trkpt>
      <trkpt lat="40.92882555" lon="-8.45451677">
        <ele>254.00000</ele>
        <time>2020-09-23T07:24:10Z</time>
      </trkpt>
      <trkpt lat="40.92879362" lon="-8.45448718">
        <ele>254.00000</ele>
        <time>2020-09-23T07:24:11Z</time>
      </trkpt>
      <trkpt lat="40.92877116" lon="-8.45446237">
        <ele>254.00000</ele>
        <time>2020-09-23T07:24:12Z</time>
      </trkpt>
      <trkpt lat="40.92875523" lon="-8.45444242">
        <ele>254.00000</ele>
        <time>2020-09-23T07:24:13Z</time>
      </trkpt>
      <trkpt lat="40.92873922" lon="-8.45441836">
        <ele>254.00000</ele>
        <time>2020-09-23T07:24:14Z</time>
      </trkpt>
      <trkpt lat="40.92872321" lon="-8.45439355">
        <ele>254.00000</ele>
        <time>2020-09-23T07:24:15Z</time>
      </trkpt>
      <trkpt lat="40.92871039" lon="-8.45436883">
        <ele>254.00000</ele>
        <time>2020-09-23T07:24:16Z</time>
      </trkpt>
      <trkpt lat="40.92869438" lon="-8.45434963">
        <ele>254.00000</ele>
        <time>2020-09-23T07:24:17Z</time>
      </trkpt>
      <trkpt lat="40.92867518" lon="-8.45433840">
        <ele>254.00000</ele>
        <time>2020-09-23T07:24:18Z</time>
      </trkpt>
      <trkpt lat="40.92865599" lon="-8.45431677">
        <ele>254.00000</ele>
        <time>2020-09-23T07:24:19Z</time>
      </trkpt>
      <trkpt lat="40.92863998" lon="-8.45430160">
        <ele>254.00000</ele>
        <time>2020-09-23T07:24:20Z</time>
      </trkpt>
      <trkpt lat="40.92862078" lon="-8.45427763">
        <ele>254.00000</ele>
        <time>2020-09-23T07:24:21Z</time>
      </trkpt>
      <trkpt lat="40.92860477" lon="-8.45426481">
        <ele>254.00000</ele>
        <time>2020-09-23T07:24:22Z</time>
      </trkpt>
      <trkpt lat="40.92858877" lon="-8.45425039">
        <ele>254.00000</ele>
        <time>2020-09-23T07:24:23Z</time>
      </trkpt>
      <trkpt lat="40.92849279" lon="-8.45422156">
        <ele>254.00000</ele>
        <time>2020-09-23T07:24:27Z</time>
      </trkpt>
      <trkpt lat="40.92839037" lon="-8.45421762">
        <ele>255.00000</ele>
        <time>2020-09-23T07:24:33Z</time>
      </trkpt>
      <trkpt lat="40.92829121" lon="-8.45416322">
        <ele>255.00000</ele>
        <time>2020-09-23T07:24:38Z</time>
      </trkpt>
      <trkpt lat="40.92825282" lon="-8.45427118">
        <ele>257.00000</ele>
        <time>2020-09-23T07:24:53Z</time>
      </trkpt>
      <trkpt lat="40.92819842" lon="-8.45437360">
        <ele>259.00000</ele>
        <time>2020-09-23T07:25:08Z</time>
      </trkpt>
      <trkpt lat="40.92814721" lon="-8.45444963">
        <ele>261.00000</ele>
        <time>2020-09-23T07:25:19Z</time>
      </trkpt>
      <trkpt lat="40.92814402" lon="-8.45447603">
        <ele>261.00000</ele>
        <time>2020-09-23T07:25:22Z</time>
      </trkpt>
      <trkpt lat="40.92811837" lon="-8.45449196">
        <ele>262.00000</ele>
        <time>2020-09-23T07:25:25Z</time>
      </trkpt>
      <trkpt lat="40.92809599" lon="-8.45449598">
        <ele>262.00000</ele>
        <time>2020-09-23T07:25:26Z</time>
      </trkpt>
      <trkpt lat="40.92805760" lon="-8.45450721">
        <ele>263.00000</ele>
        <time>2020-09-23T07:25:28Z</time>
      </trkpt>
      <trkpt lat="40.92803196" lon="-8.45450721">
        <ele>263.00000</ele>
        <time>2020-09-23T07:25:29Z</time>
      </trkpt>
      <trkpt lat="40.92800639" lon="-8.45450243">
        <ele>263.00000</ele>
        <time>2020-09-23T07:25:30Z</time>
      </trkpt>
      <trkpt lat="40.92796482" lon="-8.45449598">
        <ele>264.00000</ele>
        <time>2020-09-23T07:25:32Z</time>
      </trkpt>
      <trkpt lat="40.92793598" lon="-8.45447997">
        <ele>264.00000</ele>
        <time>2020-09-23T07:25:33Z</time>
      </trkpt>
      <trkpt lat="40.92791360" lon="-8.45446882">
        <ele>264.00000</ele>
        <time>2020-09-23T07:25:34Z</time>
      </trkpt>
      <trkpt lat="40.92789122" lon="-8.45445600">
        <ele>264.00000</ele>
        <time>2020-09-23T07:25:35Z</time>
      </trkpt>
      <trkpt lat="40.92785283" lon="-8.45444636">
        <ele>264.00000</ele>
        <time>2020-09-23T07:25:37Z</time>
      </trkpt>
      <trkpt lat="40.92783037" lon="-8.45443521">
        <ele>264.00000</ele>
        <time>2020-09-23T07:25:38Z</time>
      </trkpt>
      <trkpt lat="40.92780799" lon="-8.45442482">
        <ele>264.00000</ele>
        <time>2020-09-23T07:25:39Z</time>
      </trkpt>
      <trkpt lat="40.92777279" lon="-8.45440881">
        <ele>264.00000</ele>
        <time>2020-09-23T07:25:41Z</time>
      </trkpt>
      <trkpt lat="40.92773440" lon="-8.45438643">
        <ele>264.00000</ele>
        <time>2020-09-23T07:25:43Z</time>
      </trkpt>
      <trkpt lat="40.92762879" lon="-8.45434402">
        <ele>264.00000</ele>
        <time>2020-09-23T07:25:47Z</time>
      </trkpt>
      <trkpt lat="40.92753281" lon="-8.45428878">
        <ele>264.00000</ele>
        <time>2020-09-23T07:25:51Z</time>
      </trkpt>
      <trkpt lat="40.92743039" lon="-8.45425676">
        <ele>265.00000</ele>
        <time>2020-09-23T07:25:55Z</time>
      </trkpt>
      <trkpt lat="40.92733760" lon="-8.45426003">
        <ele>267.00000</ele>
        <time>2020-09-23T07:25:59Z</time>
      </trkpt>
      <trkpt lat="40.92723836" lon="-8.45425676">
        <ele>269.00000</ele>
        <time>2020-09-23T07:26:05Z</time>
      </trkpt>
      <trkpt lat="40.92719041" lon="-8.45414319">
        <ele>268.00000</ele>
        <time>2020-09-23T07:26:11Z</time>
      </trkpt>
      <trkpt lat="40.92714557" lon="-8.45404637">
        <ele>267.00000</ele>
        <time>2020-09-23T07:26:18Z</time>
      </trkpt>
      <trkpt lat="40.92713283" lon="-8.45400639">
        <ele>267.00000</ele>
        <time>2020-09-23T07:26:20Z</time>
      </trkpt>
      <trkpt lat="40.92703677" lon="-8.45394956">
        <ele>268.00000</ele>
        <time>2020-09-23T07:26:26Z</time>
      </trkpt>
      <trkpt lat="40.92701758" lon="-8.45393842">
        <ele>268.00000</ele>
        <time>2020-09-23T07:26:28Z</time>
      </trkpt>
      <trkpt lat="40.92695999" lon="-8.45392316">
        <ele>269.00000</ele>
        <time>2020-09-23T07:26:31Z</time>
      </trkpt>
      <trkpt lat="40.92692479" lon="-8.45390724">
        <ele>269.00000</ele>
        <time>2020-09-23T07:26:33Z</time>
      </trkpt>
      <trkpt lat="40.92682563" lon="-8.45386960">
        <ele>270.00000</ele>
        <time>2020-09-23T07:26:39Z</time>
      </trkpt>
      <trkpt lat="40.92671357" lon="-8.45388796">
        <ele>272.00000</ele>
        <time>2020-09-23T07:26:44Z</time>
      </trkpt>
      <trkpt lat="40.92660477" lon="-8.45391998">
        <ele>275.00000</ele>
        <time>2020-09-23T07:26:48Z</time>
      </trkpt>
      <trkpt lat="40.92649597" lon="-8.45394160">
        <ele>279.00000</ele>
        <time>2020-09-23T07:26:54Z</time>
      </trkpt>
      <trkpt lat="40.92640318" lon="-8.45384798">
        <ele>280.00000</ele>
        <time>2020-09-23T07:27:00Z</time>
      </trkpt>
      <trkpt lat="40.92633923" lon="-8.45376240">
        <ele>280.00000</ele>
        <time>2020-09-23T07:27:04Z</time>
      </trkpt>
      <trkpt lat="40.92622398" lon="-8.45370959">
        <ele>280.00000</ele>
        <time>2020-09-23T07:27:09Z</time>
      </trkpt>
      <trkpt lat="40.92611837" lon="-8.45371998">
        <ele>282.00000</ele>
        <time>2020-09-23T07:27:13Z</time>
      </trkpt>
      <trkpt lat="40.92601921" lon="-8.45376323">
        <ele>284.00000</ele>
        <time>2020-09-23T07:27:18Z</time>
      </trkpt>
      <trkpt lat="40.92592642" lon="-8.45374002">
        <ele>285.00000</ele>
        <time>2020-09-23T07:27:25Z</time>
      </trkpt>
      <trkpt lat="40.92590723" lon="-8.45362158">
        <ele>284.00000</ele>
        <time>2020-09-23T07:27:30Z</time>
      </trkpt>
      <trkpt lat="40.92586238" lon="-8.45350482">
        <ele>283.00000</ele>
        <time>2020-09-23T07:27:35Z</time>
      </trkpt>
      <trkpt lat="40.92579198" lon="-8.45341279">
        <ele>284.00000</ele>
        <time>2020-09-23T07:27:39Z</time>
      </trkpt>
      <trkpt lat="40.92572484" lon="-8.45333039">
        <ele>285.00000</ele>
        <time>2020-09-23T07:27:43Z</time>
      </trkpt>
      <trkpt lat="40.92565116" lon="-8.45325839">
        <ele>287.00000</ele>
        <time>2020-09-23T07:27:48Z</time>
      </trkpt>
      <trkpt lat="40.92558721" lon="-8.45312722">
        <ele>287.00000</ele>
        <time>2020-09-23T07:27:53Z</time>
      </trkpt>
      <trkpt lat="40.92554563" lon="-8.45300962">
        <ele>286.00000</ele>
        <time>2020-09-23T07:27:57Z</time>
      </trkpt>
      <trkpt lat="40.92547841" lon="-8.45290157">
        <ele>286.00000</ele>
        <time>2020-09-23T07:28:00Z</time>
      </trkpt>
      <trkpt lat="40.92541119" lon="-8.45278641">
        <ele>286.00000</ele>
        <time>2020-09-23T07:28:04Z</time>
      </trkpt>
      <trkpt lat="40.92531840" lon="-8.45270561">
        <ele>287.00000</ele>
        <time>2020-09-23T07:28:08Z</time>
      </trkpt>
      <trkpt lat="40.92524481" lon="-8.45263679">
        <ele>288.00000</ele>
        <time>2020-09-23T07:28:11Z</time>
      </trkpt>
      <trkpt lat="40.92516476" lon="-8.45256479">
        <ele>288.00000</ele>
        <time>2020-09-23T07:28:15Z</time>
      </trkpt>
      <trkpt lat="40.92507842" lon="-8.45249681">
        <ele>289.00000</ele>
        <time>2020-09-23T07:28:19Z</time>
      </trkpt>
      <trkpt lat="40.92499201" lon="-8.45242884">
        <ele>289.00000</ele>
        <time>2020-09-23T07:28:27Z</time>
      </trkpt>
      <trkpt lat="40.92492797" lon="-8.45232641">
        <ele>288.00000</ele>
        <time>2020-09-23T07:28:32Z</time>
      </trkpt>
    </trkseg>
    <trkseg>
      <trkpt lat="40.92487357" lon="-8.45220001">
        <ele>287.00000</ele>
        <time>2020-09-23T07:28:37Z</time>
      </trkpt>
      <trkpt lat="40.92486083" lon="-8.45207680">
        <ele>285.00000</ele>
        <time>2020-09-23T07:28:41Z</time>
      </trkpt>
      <trkpt lat="40.92489603" lon="-8.45196004">
        <ele>282.00000</ele>
        <time>2020-09-23T07:28:45Z</time>
      </trkpt>
      <trkpt lat="40.92495362" lon="-8.45184478">
        <ele>278.00000</ele>
        <time>2020-09-23T07:28:49Z</time>
      </trkpt>
      <trkpt lat="40.92501757" lon="-8.45173356">
        <ele>275.00000</ele>
        <time>2020-09-23T07:28:53Z</time>
      </trkpt>
      <trkpt lat="40.92508161" lon="-8.45161839">
        <ele>273.00000</ele>
        <time>2020-09-23T07:28:58Z</time>
      </trkpt>
      <trkpt lat="40.92513919" lon="-8.45151680">
        <ele>272.00000</ele>
        <time>2020-09-23T07:29:03Z</time>
      </trkpt>
      <trkpt lat="40.92519678" lon="-8.45140641">
        <ele>270.00000</ele>
        <time>2020-09-23T07:29:09Z</time>
      </trkpt>
      <trkpt lat="40.92524481" lon="-8.45127523">
        <ele>271.00000</ele>
        <time>2020-09-23T07:29:15Z</time>
      </trkpt>
      <trkpt lat="40.92531203" lon="-8.45118161">
        <ele>271.00000</ele>
        <time>2020-09-23T07:29:20Z</time>
      </trkpt>
      <trkpt lat="40.92537917" lon="-8.45110156">
        <ele>272.00000</ele>
        <time>2020-09-23T07:29:24Z</time>
      </trkpt>
      <trkpt lat="40.92546877" lon="-8.45101523">
        <ele>272.00000</ele>
        <time>2020-09-23T07:29:28Z</time>
      </trkpt>
      <trkpt lat="40.92558402" lon="-8.45098002">
        <ele>272.00000</ele>
        <time>2020-09-23T07:29:32Z</time>
      </trkpt>
      <trkpt lat="40.92568963" lon="-8.45093359">
        <ele>272.00000</ele>
        <time>2020-09-23T07:29:36Z</time>
      </trkpt>
      <trkpt lat="40.92578879" lon="-8.45092479">
        <ele>272.00000</ele>
        <time>2020-09-23T07:29:41Z</time>
      </trkpt>
      <trkpt lat="40.92590396" lon="-8.45094482">
        <ele>272.00000</ele>
        <time>2020-09-23T07:29:46Z</time>
      </trkpt>
      <trkpt lat="40.92599038" lon="-8.45098480">
        <ele>272.00000</ele>
        <time>2020-09-23T07:29:50Z</time>
      </trkpt>
      <trkpt lat="40.92608643" lon="-8.45099838">
        <ele>272.00000</ele>
        <time>2020-09-23T07:29:54Z</time>
      </trkpt>
      <trkpt lat="40.92617922" lon="-8.45103836">
        <ele>272.00000</ele>
        <time>2020-09-23T07:29:58Z</time>
      </trkpt>
      <trkpt lat="40.92620160" lon="-8.45104800">
        <ele>272.00000</ele>
        <time>2020-09-23T07:29:59Z</time>
      </trkpt>
      <trkpt lat="40.92622398" lon="-8.45105680">
        <ele>272.00000</ele>
        <time>2020-09-23T07:30:00Z</time>
      </trkpt>
      <trkpt lat="40.92624317" lon="-8.45106476">
        <ele>272.00000</ele>
        <time>2020-09-23T07:30:01Z</time>
      </trkpt>
      <trkpt lat="40.92626555" lon="-8.45107357">
        <ele>272.00000</ele>
        <time>2020-09-23T07:30:02Z</time>
      </trkpt>
      <trkpt lat="40.92628483" lon="-8.45108723">
        <ele>272.00000</ele>
        <time>2020-09-23T07:30:03Z</time>
      </trkpt>
      <trkpt lat="40.92638717" lon="-8.45112478">
        <ele>272.00000</ele>
        <time>2020-09-23T07:30:08Z</time>
      </trkpt>
      <trkpt lat="40.92648323" lon="-8.45116158">
        <ele>272.00000</ele>
        <time>2020-09-23T07:30:12Z</time>
      </trkpt>
      <trkpt lat="40.92655682" lon="-8.45117842">
        <ele>272.00000</ele>
        <time>2020-09-23T07:30:15Z</time>
      </trkpt>
      <trkpt lat="40.92657920" lon="-8.45118320">
        <ele>272.00000</ele>
        <time>2020-09-23T07:30:16Z</time>
      </trkpt>
      <trkpt lat="40.92668482" lon="-8.45121203">
        <ele>271.00000</ele>
        <time>2020-09-23T07:30:21Z</time>
      </trkpt>
      <trkpt lat="40.92674558" lon="-8.45121036">
        <ele>272.00000</ele>
        <time>2020-09-23T07:30:24Z</time>
      </trkpt>
      <trkpt lat="40.92677442" lon="-8.45121036">
        <ele>272.00000</ele>
        <time>2020-09-23T07:30:25Z</time>
      </trkpt>
      <trkpt lat="40.92679998" lon="-8.45120642">
        <ele>272.00000</ele>
        <time>2020-09-23T07:30:26Z</time>
      </trkpt>
      <trkpt lat="40.92682563" lon="-8.45120323">
        <ele>272.00000</ele>
        <time>2020-09-23T07:30:27Z</time>
      </trkpt>
      <trkpt lat="40.92685438" lon="-8.45119276">
        <ele>272.00000</ele>
        <time>2020-09-23T07:30:28Z</time>
      </trkpt>
      <trkpt lat="40.92691523" lon="-8.45108480">
        <ele>274.00000</ele>
        <time>2020-09-23T07:30:33Z</time>
      </trkpt>
      <trkpt lat="40.92694398" lon="-8.45096242">
        <ele>275.00000</ele>
        <time>2020-09-23T07:30:39Z</time>
      </trkpt>
      <trkpt lat="40.92702403" lon="-8.45088480">
        <ele>276.00000</ele>
        <time>2020-09-23T07:30:45Z</time>
      </trkpt>
      <trkpt lat="40.92712000" lon="-8.45081356">
        <ele>277.00000</ele>
        <time>2020-09-23T07:30:51Z</time>
      </trkpt>
      <trkpt lat="40.92716158" lon="-8.45070803">
        <ele>277.00000</ele>
        <time>2020-09-23T07:30:55Z</time>
      </trkpt>
      <trkpt lat="40.92710400" lon="-8.45060317">
        <ele>278.00000</ele>
        <time>2020-09-23T07:31:00Z</time>
      </trkpt>
      <trkpt lat="40.92704323" lon="-8.45048801">
        <ele>279.00000</ele>
        <time>2020-09-23T07:31:05Z</time>
      </trkpt>
      <trkpt lat="40.92698237" lon="-8.45039363">
        <ele>280.00000</ele>
        <time>2020-09-23T07:31:09Z</time>
      </trkpt>
      <trkpt lat="40.92695999" lon="-8.45035356">
        <ele>280.00000</ele>
        <time>2020-09-23T07:31:11Z</time>
      </trkpt>
      <trkpt lat="40.92694717" lon="-8.45033202">
        <ele>280.00000</ele>
        <time>2020-09-23T07:31:12Z</time>
      </trkpt>
      <trkpt lat="40.92692479" lon="-8.45028961">
        <ele>280.00000</ele>
        <time>2020-09-23T07:31:14Z</time>
      </trkpt>
      <trkpt lat="40.92690560" lon="-8.45026320">
        <ele>280.00000</ele>
        <time>2020-09-23T07:31:15Z</time>
      </trkpt>
      <trkpt lat="40.92689596" lon="-8.45022238">
        <ele>281.00000</ele>
        <time>2020-09-23T07:31:17Z</time>
      </trkpt>
      <trkpt lat="40.92688322" lon="-8.45019598">
        <ele>281.00000</ele>
        <time>2020-09-23T07:31:18Z</time>
      </trkpt>
      <trkpt lat="40.92687358" lon="-8.45016958">
        <ele>281.00000</ele>
        <time>2020-09-23T07:31:19Z</time>
      </trkpt>
      <trkpt lat="40.92685757" lon="-8.45014401">
        <ele>281.00000</ele>
        <time>2020-09-23T07:31:20Z</time>
      </trkpt>
      <trkpt lat="40.92684801" lon="-8.45011677">
        <ele>281.00000</ele>
        <time>2020-09-23T07:31:21Z</time>
      </trkpt>
      <trkpt lat="40.92684156" lon="-8.45009121">
        <ele>281.00000</ele>
        <time>2020-09-23T07:31:22Z</time>
      </trkpt>
      <trkpt lat="40.92679998" lon="-8.44997998">
        <ele>282.00000</ele>
        <time>2020-09-23T07:31:27Z</time>
      </trkpt>
      <trkpt lat="40.92679361" lon="-8.44995282">
        <ele>282.00000</ele>
        <time>2020-09-23T07:31:28Z</time>
      </trkpt>
      <trkpt lat="40.92678716" lon="-8.44992801">
        <ele>283.00000</ele>
        <time>2020-09-23T07:31:29Z</time>
      </trkpt>
      <trkpt lat="40.92679361" lon="-8.44990320">
        <ele>283.00000</ele>
        <time>2020-09-23T07:31:30Z</time>
      </trkpt>
      <trkpt lat="40.92679680" lon="-8.44987520">
        <ele>283.00000</ele>
        <time>2020-09-23T07:31:31Z</time>
      </trkpt>
      <trkpt lat="40.92680635" lon="-8.44983279">
        <ele>284.00000</ele>
        <time>2020-09-23T07:31:32Z</time>
      </trkpt>
      <trkpt lat="40.92681281" lon="-8.44980161">
        <ele>285.00000</ele>
        <time>2020-09-23T07:31:33Z</time>
      </trkpt>
      <trkpt lat="40.92681599" lon="-8.44977680">
        <ele>285.00000</ele>
        <time>2020-09-23T07:31:34Z</time>
      </trkpt>
      <trkpt lat="40.92681918" lon="-8.44974956">
        <ele>285.00000</ele>
        <time>2020-09-23T07:31:35Z</time>
      </trkpt>
      <trkpt lat="40.92682236" lon="-8.44971360">
        <ele>286.00000</ele>
        <time>2020-09-23T07:31:36Z</time>
      </trkpt>
      <trkpt lat="40.92682563" lon="-8.44968318">
        <ele>287.00000</ele>
        <time>2020-09-23T07:31:37Z</time>
      </trkpt>
      <trkpt lat="40.92683519" lon="-8.44965443">
        <ele>287.00000</ele>
        <time>2020-09-23T07:31:38Z</time>
      </trkpt>
      <trkpt lat="40.92683837" lon="-8.44962475">
        <ele>288.00000</ele>
        <time>2020-09-23T07:31:39Z</time>
      </trkpt>
      <trkpt lat="40.92683837" lon="-8.44959676">
        <ele>288.00000</ele>
        <time>2020-09-23T07:31:40Z</time>
      </trkpt>
      <trkpt lat="40.92684801" lon="-8.44954001">
        <ele>289.00000</ele>
        <time>2020-09-23T07:31:42Z</time>
      </trkpt>
      <trkpt lat="40.92685757" lon="-8.44951520">
        <ele>290.00000</ele>
        <time>2020-09-23T07:31:43Z</time>
      </trkpt>
      <trkpt lat="40.92685438" lon="-8.44948955">
        <ele>290.00000</ele>
        <time>2020-09-23T07:31:44Z</time>
      </trkpt>
      <trkpt lat="40.92685438" lon="-8.44946156">
        <ele>291.00000</ele>
        <time>2020-09-23T07:31:45Z</time>
      </trkpt>
      <trkpt lat="40.92685757" lon="-8.44943515">
        <ele>291.00000</ele>
        <time>2020-09-23T07:31:46Z</time>
      </trkpt>
      <trkpt lat="40.92686084" lon="-8.44940640">
        <ele>292.00000</ele>
        <time>2020-09-23T07:31:47Z</time>
      </trkpt>
      <trkpt lat="40.92686402" lon="-8.44936399">
        <ele>292.00000</ele>
        <time>2020-09-23T07:31:49Z</time>
      </trkpt>
      <trkpt lat="40.92684801" lon="-8.44934002">
        <ele>293.00000</ele>
        <time>2020-09-23T07:31:50Z</time>
      </trkpt>
      <trkpt lat="40.92683837" lon="-8.44931680">
        <ele>294.00000</ele>
        <time>2020-09-23T07:31:51Z</time>
      </trkpt>
      <trkpt lat="40.92682563" lon="-8.44929677">
        <ele>295.00000</ele>
        <time>2020-09-23T07:31:52Z</time>
      </trkpt>
      <trkpt lat="40.92681599" lon="-8.44926157">
        <ele>296.00000</ele>
        <time>2020-09-23T07:31:54Z</time>
      </trkpt>
      <trkpt lat="40.92680635" lon="-8.44923038">
        <ele>296.00000</ele>
        <time>2020-09-23T07:31:56Z</time>
      </trkpt>
      <trkpt lat="40.92679361" lon="-8.44920641">
        <ele>297.00000</ele>
        <time>2020-09-23T07:31:57Z</time>
      </trkpt>
      <trkpt lat="40.92676159" lon="-8.44919040">
        <ele>299.00000</ele>
        <time>2020-09-23T07:31:59Z</time>
      </trkpt>
      <trkpt lat="40.92674240" lon="-8.44918160">
        <ele>299.00000</ele>
        <time>2020-09-23T07:32:00Z</time>
      </trkpt>
      <trkpt lat="40.92672321" lon="-8.44917842">
        <ele>300.00000</ele>
        <time>2020-09-23T07:32:01Z</time>
      </trkpt>
      <trkpt lat="40.92670083" lon="-8.44918001">
        <ele>300.00000</ele>
        <time>2020-09-23T07:32:02Z</time>
      </trkpt>
      <trkpt lat="40.92668163" lon="-8.44918319">
        <ele>301.00000</ele>
        <time>2020-09-23T07:32:03Z</time>
      </trkpt>
      <trkpt lat="40.92666244" lon="-8.44919518">
        <ele>301.00000</ele>
        <time>2020-09-23T07:32:04Z</time>
      </trkpt>
      <trkpt lat="40.92664316" lon="-8.44919996">
        <ele>301.00000</ele>
        <time>2020-09-23T07:32:05Z</time>
      </trkpt>
      <trkpt lat="40.92661759" lon="-8.44919837">
        <ele>302.00000</ele>
        <time>2020-09-23T07:32:06Z</time>
      </trkpt>
      <trkpt lat="40.92659521" lon="-8.44920163">
        <ele>302.00000</ele>
        <time>2020-09-23T07:32:07Z</time>
      </trkpt>
      <trkpt lat="40.92657602" lon="-8.44920163">
        <ele>302.00000</ele>
        <time>2020-09-23T07:32:08Z</time>
      </trkpt>
      <trkpt lat="40.92655037" lon="-8.44920641">
        <ele>303.00000</ele>
        <time>2020-09-23T07:32:09Z</time>
      </trkpt>
      <trkpt lat="40.92646077" lon="-8.44922318">
        <ele>304.00000</ele>
        <time>2020-09-23T07:32:17Z</time>
      </trkpt>
      <trkpt lat="40.92636798" lon="-8.44920163">
        <ele>306.00000</ele>
        <time>2020-09-23T07:32:21Z</time>
      </trkpt>
      <trkpt lat="40.92624963" lon="-8.44918001">
        <ele>305.00000</ele>
        <time>2020-09-23T07:32:26Z</time>
      </trkpt>
      <trkpt lat="40.92614720" lon="-8.44922318">
        <ele>302.00000</ele>
        <time>2020-09-23T07:32:33Z</time>
      </trkpt>
      <trkpt lat="40.92606397" lon="-8.44917037">
        <ele>302.00000</ele>
        <time>2020-09-23T07:32:42Z</time>
      </trkpt>
      <trkpt lat="40.92599356" lon="-8.44908798">
        <ele>304.00000</ele>
        <time>2020-09-23T07:32:46Z</time>
      </trkpt>
      <trkpt lat="40.92592324" lon="-8.44900324">
        <ele>305.00000</ele>
        <time>2020-09-23T07:32:52Z</time>
      </trkpt>
      <trkpt lat="40.92594243" lon="-8.44888480">
        <ele>310.00000</ele>
        <time>2020-09-23T07:32:58Z</time>
      </trkpt>
      <trkpt lat="40.92599356" lon="-8.44877600">
        <ele>315.00000</ele>
        <time>2020-09-23T07:33:04Z</time>
      </trkpt>
      <trkpt lat="40.92600957" lon="-8.44865363">
        <ele>319.00000</ele>
        <time>2020-09-23T07:33:10Z</time>
      </trkpt>
      <trkpt lat="40.92600638" lon="-8.44851516">
        <ele>323.00000</ele>
        <time>2020-09-23T07:33:17Z</time>
      </trkpt>
      <trkpt lat="40.92598082" lon="-8.44837920">
        <ele>326.00000</ele>
        <time>2020-09-23T07:33:24Z</time>
      </trkpt>
      <trkpt lat="40.92592324" lon="-8.44826320">
        <ele>327.00000</ele>
        <time>2020-09-23T07:33:29Z</time>
      </trkpt>
      <trkpt lat="40.92590723" lon="-8.44813596">
        <ele>329.00000</ele>
        <time>2020-09-23T07:33:33Z</time>
      </trkpt>
      <trkpt lat="40.92586238" lon="-8.44802876">
        <ele>330.00000</ele>
        <time>2020-09-23T07:33:37Z</time>
      </trkpt>
      <trkpt lat="40.92588476" lon="-8.44790638">
        <ele>330.00000</ele>
        <time>2020-09-23T07:33:43Z</time>
      </trkpt>
      <trkpt lat="40.92588158" lon="-8.44776003">
        <ele>331.00000</ele>
        <time>2020-09-23T07:33:51Z</time>
      </trkpt>
      <trkpt lat="40.92593279" lon="-8.44766163">
        <ele>331.00000</ele>
        <time>2020-09-23T07:33:59Z</time>
      </trkpt>
      <trkpt lat="40.92597437" lon="-8.44755358">
        <ele>332.00000</ele>
        <time>2020-09-23T07:34:07Z</time>
      </trkpt>
      <trkpt lat="40.92606078" lon="-8.44747362">
        <ele>332.00000</ele>
        <time>2020-09-23T07:34:13Z</time>
      </trkpt>
      <trkpt lat="40.92613119" lon="-8.44739357">
        <ele>332.00000</ele>
        <time>2020-09-23T07:34:19Z</time>
      </trkpt>
      <trkpt lat="40.92607361" lon="-8.44728637">
        <ele>333.00000</ele>
        <time>2020-09-23T07:34:27Z</time>
      </trkpt>
      <trkpt lat="40.92599356" lon="-8.44721043">
        <ele>335.00000</ele>
        <time>2020-09-23T07:34:39Z</time>
      </trkpt>
      <trkpt lat="40.92604796" lon="-8.44710557">
        <ele>337.00000</ele>
        <time>2020-09-23T07:34:50Z</time>
      </trkpt>
      <trkpt lat="40.92613756" lon="-8.44704799">
        <ele>338.00000</ele>
        <time>2020-09-23T07:34:56Z</time>
      </trkpt>
      <trkpt lat="40.92621761" lon="-8.44698160">
        <ele>340.00000</ele>
        <time>2020-09-23T07:35:08Z</time>
      </trkpt>
      <trkpt lat="40.92630403" lon="-8.44704003">
        <ele>338.00000</ele>
        <time>2020-09-23T07:35:17Z</time>
      </trkpt>
      <trkpt lat="40.92639036" lon="-8.44696316">
        <ele>340.00000</ele>
        <time>2020-09-23T07:35:23Z</time>
      </trkpt>
      <trkpt lat="40.92638080" lon="-8.44684481">
        <ele>344.00000</ele>
        <time>2020-09-23T07:35:33Z</time>
      </trkpt>
      <trkpt lat="40.92632004" lon="-8.44673601">
        <ele>348.00000</ele>
        <time>2020-09-23T07:35:40Z</time>
      </trkpt>
      <trkpt lat="40.92639036" lon="-8.44664163">
        <ele>352.00000</ele>
        <time>2020-09-23T07:36:01Z</time>
      </trkpt>
      <trkpt lat="40.92644803" lon="-8.44654482">
        <ele>358.00000</ele>
        <time>2020-09-23T07:36:13Z</time>
      </trkpt>
      <trkpt lat="40.92654400" lon="-8.44653678">
        <ele>360.00000</ele>
        <time>2020-09-23T07:36:26Z</time>
      </trkpt>
      <trkpt lat="40.92660795" lon="-8.44644323">
        <ele>365.00000</ele>
        <time>2020-09-23T07:36:35Z</time>
      </trkpt>
      <trkpt lat="40.92670401" lon="-8.44642320">
        <ele>367.00000</ele>
        <time>2020-09-23T07:36:43Z</time>
      </trkpt>
      <trkpt lat="40.92680635" lon="-8.44641842">
        <ele>369.00000</ele>
        <time>2020-09-23T07:36:49Z</time>
      </trkpt>
      <trkpt lat="40.92691197" lon="-8.44642002">
        <ele>370.00000</ele>
        <time>2020-09-23T07:36:54Z</time>
      </trkpt>
      <trkpt lat="40.92701439" lon="-8.44641038">
        <ele>371.00000</ele>
        <time>2020-09-23T07:36:58Z</time>
      </trkpt>
      <trkpt lat="40.92710718" lon="-8.44641683">
        <ele>371.00000</ele>
        <time>2020-09-23T07:37:02Z</time>
      </trkpt>
      <trkpt lat="40.92720324" lon="-8.44643200">
        <ele>370.00000</ele>
        <time>2020-09-23T07:37:08Z</time>
      </trkpt>
      <trkpt lat="40.92729276" lon="-8.44646159">
        <ele>369.00000</ele>
        <time>2020-09-23T07:37:14Z</time>
      </trkpt>
      <trkpt lat="40.92739518" lon="-8.44649520">
        <ele>367.00000</ele>
        <time>2020-09-23T07:37:20Z</time>
      </trkpt>
      <trkpt lat="40.92749116" lon="-8.44652161">
        <ele>365.00000</ele>
        <time>2020-09-23T07:37:26Z</time>
      </trkpt>
      <trkpt lat="40.92750079" lon="-8.44639998">
        <ele>370.00000</ele>
        <time>2020-09-23T07:37:39Z</time>
      </trkpt>
      <trkpt lat="40.92755201" lon="-8.44629923">
        <ele>375.00000</ele>
        <time>2020-09-23T07:37:49Z</time>
      </trkpt>
    </trkseg>
    <trkseg>
      <trkpt lat="40.92759358" lon="-8.44618482">
        <ele>380.00000</ele>
        <time>2020-09-23T07:37:58Z</time>
      </trkpt>
      <trkpt lat="40.92764798" lon="-8.44607359">
        <ele>386.00000</ele>
        <time>2020-09-23T07:38:10Z</time>
      </trkpt>
      <trkpt lat="40.92769282" lon="-8.44595599">
        <ele>391.00000</ele>
        <time>2020-09-23T07:38:30Z</time>
      </trkpt>
      <trkpt lat="40.92771202" lon="-8.44583756">
        <ele>396.00000</ele>
        <time>2020-09-23T07:38:38Z</time>
      </trkpt>
      <trkpt lat="40.92780799" lon="-8.44579037">
        <ele>399.00000</ele>
        <time>2020-09-23T07:38:48Z</time>
      </trkpt>
      <trkpt lat="40.92789759" lon="-8.44577679">
        <ele>399.00000</ele>
        <time>2020-09-23T07:39:21Z</time>
      </trkpt>
      <trkpt lat="40.92798083" lon="-8.44572323">
        <ele>402.00000</ele>
        <time>2020-09-23T07:39:25Z</time>
      </trkpt>
      <trkpt lat="40.92807998" lon="-8.44566640">
        <ele>404.00000</ele>
        <time>2020-09-23T07:39:29Z</time>
      </trkpt>
      <trkpt lat="40.92817277" lon="-8.44562558">
        <ele>404.00000</ele>
        <time>2020-09-23T07:39:33Z</time>
      </trkpt>
      <trkpt lat="40.92828475" lon="-8.44559197">
        <ele>404.00000</ele>
        <time>2020-09-23T07:39:37Z</time>
      </trkpt>
      <trkpt lat="40.92838718" lon="-8.44556322">
        <ele>404.00000</ele>
        <time>2020-09-23T07:39:41Z</time>
      </trkpt>
      <trkpt lat="40.92848315" lon="-8.44553363">
        <ele>406.00000</ele>
        <time>2020-09-23T07:39:45Z</time>
      </trkpt>
      <trkpt lat="40.92855683" lon="-8.44544160">
        <ele>409.00000</ele>
        <time>2020-09-23T07:39:51Z</time>
      </trkpt>
      <trkpt lat="40.92853437" lon="-8.44532484">
        <ele>412.00000</ele>
        <time>2020-09-23T07:39:59Z</time>
      </trkpt>
      <trkpt lat="40.92847041" lon="-8.44523523">
        <ele>415.00000</ele>
        <time>2020-09-23T07:40:06Z</time>
      </trkpt>
      <trkpt lat="40.92838718" lon="-8.44518159">
        <ele>418.00000</ele>
        <time>2020-09-23T07:40:11Z</time>
      </trkpt>
      <trkpt lat="40.92832323" lon="-8.44508402">
        <ele>421.00000</ele>
        <time>2020-09-23T07:40:18Z</time>
      </trkpt>
      <trkpt lat="40.92841283" lon="-8.44501043">
        <ele>422.00000</ele>
        <time>2020-09-23T07:40:25Z</time>
      </trkpt>
      <trkpt lat="40.92850243" lon="-8.44496802">
        <ele>423.00000</ele>
        <time>2020-09-23T07:40:31Z</time>
      </trkpt>
      <trkpt lat="40.92856957" lon="-8.44487439">
        <ele>425.00000</ele>
        <time>2020-09-23T07:40:38Z</time>
      </trkpt>
      <trkpt lat="40.92865599" lon="-8.44481203">
        <ele>427.00000</ele>
        <time>2020-09-23T07:40:48Z</time>
      </trkpt>
      <trkpt lat="40.92876160" lon="-8.44480801">
        <ele>428.00000</ele>
        <time>2020-09-23T07:40:56Z</time>
      </trkpt>
      <trkpt lat="40.92885439" lon="-8.44481203">
        <ele>429.00000</ele>
        <time>2020-09-23T07:41:03Z</time>
      </trkpt>
      <trkpt lat="40.92894081" lon="-8.44476476">
        <ele>431.00000</ele>
        <time>2020-09-23T07:41:09Z</time>
      </trkpt>
      <trkpt lat="40.92903996" lon="-8.44475202">
        <ele>433.00000</ele>
        <time>2020-09-23T07:41:15Z</time>
      </trkpt>
      <trkpt lat="40.92911037" lon="-8.44466879">
        <ele>435.00000</ele>
        <time>2020-09-23T07:41:23Z</time>
      </trkpt>
      <trkpt lat="40.92920316" lon="-8.44462000">
        <ele>437.00000</ele>
        <time>2020-09-23T07:41:30Z</time>
      </trkpt>
      <trkpt lat="40.92928002" lon="-8.44455521">
        <ele>439.00000</ele>
        <time>2020-09-23T07:41:35Z</time>
      </trkpt>
      <trkpt lat="40.92936317" lon="-8.44447676">
        <ele>441.00000</ele>
        <time>2020-09-23T07:41:42Z</time>
      </trkpt>
      <trkpt lat="40.92946560" lon="-8.44443996">
        <ele>443.00000</ele>
        <time>2020-09-23T07:41:48Z</time>
      </trkpt>
      <trkpt lat="40.92955838" lon="-8.44445999">
        <ele>442.00000</ele>
        <time>2020-09-23T07:41:54Z</time>
      </trkpt>
      <trkpt lat="40.92964162" lon="-8.44455362">
        <ele>441.00000</ele>
        <time>2020-09-23T07:42:00Z</time>
      </trkpt>
      <trkpt lat="40.92972158" lon="-8.44460877">
        <ele>441.00000</ele>
        <time>2020-09-23T07:42:04Z</time>
      </trkpt>
      <trkpt lat="40.92981437" lon="-8.44466719">
        <ele>438.00000</ele>
        <time>2020-09-23T07:42:10Z</time>
      </trkpt>
      <trkpt lat="40.92990397" lon="-8.44469678">
        <ele>436.00000</ele>
        <time>2020-09-23T07:42:15Z</time>
      </trkpt>
      <trkpt lat="40.93000640" lon="-8.44469837">
        <ele>434.00000</ele>
        <time>2020-09-23T07:42:20Z</time>
      </trkpt>
      <trkpt lat="40.93011519" lon="-8.44472478">
        <ele>431.00000</ele>
        <time>2020-09-23T07:42:26Z</time>
      </trkpt>
      <trkpt lat="40.93022081" lon="-8.44473676">
        <ele>428.00000</ele>
        <time>2020-09-23T07:42:33Z</time>
      </trkpt>
      <trkpt lat="40.93031041" lon="-8.44471438">
        <ele>426.00000</ele>
        <time>2020-09-23T07:42:38Z</time>
      </trkpt>
      <trkpt lat="40.93040957" lon="-8.44469678">
        <ele>424.00000</ele>
        <time>2020-09-23T07:42:43Z</time>
      </trkpt>
      <trkpt lat="40.93051836" lon="-8.44468723">
        <ele>422.00000</ele>
        <time>2020-09-23T07:42:48Z</time>
      </trkpt>
      <trkpt lat="40.93061760" lon="-8.44467842">
        <ele>419.00000</ele>
        <time>2020-09-23T07:42:52Z</time>
      </trkpt>
      <trkpt lat="40.93072003" lon="-8.44462319">
        <ele>417.00000</ele>
        <time>2020-09-23T07:42:57Z</time>
      </trkpt>
      <trkpt lat="40.93081600" lon="-8.44457600">
        <ele>414.00000</ele>
        <time>2020-09-23T07:43:02Z</time>
      </trkpt>
      <trkpt lat="40.93091843" lon="-8.44456317">
        <ele>412.00000</ele>
        <time>2020-09-23T07:43:07Z</time>
      </trkpt>
      <trkpt lat="40.93103360" lon="-8.44457357">
        <ele>408.00000</ele>
        <time>2020-09-23T07:43:11Z</time>
      </trkpt>
      <trkpt lat="40.93113276" lon="-8.44457516">
        <ele>406.00000</ele>
        <time>2020-09-23T07:43:15Z</time>
      </trkpt>
      <trkpt lat="40.93123200" lon="-8.44458161">
        <ele>405.00000</ele>
        <time>2020-09-23T07:43:22Z</time>
      </trkpt>
      <trkpt lat="40.93126720" lon="-8.44446158">
        <ele>408.00000</ele>
        <time>2020-09-23T07:43:31Z</time>
      </trkpt>
      <trkpt lat="40.93127676" lon="-8.44433041">
        <ele>412.00000</ele>
        <time>2020-09-23T07:43:43Z</time>
      </trkpt>
      <trkpt lat="40.93128321" lon="-8.44420317">
        <ele>416.00000</ele>
        <time>2020-09-23T07:43:53Z</time>
      </trkpt>
      <trkpt lat="40.93129604" lon="-8.44407677">
        <ele>419.00000</ele>
        <time>2020-09-23T07:44:00Z</time>
      </trkpt>
      <trkpt lat="40.93132797" lon="-8.44396479">
        <ele>422.00000</ele>
        <time>2020-09-23T07:44:08Z</time>
      </trkpt>
      <trkpt lat="40.93134398" lon="-8.44383998">
        <ele>425.00000</ele>
        <time>2020-09-23T07:44:17Z</time>
      </trkpt>
      <trkpt lat="40.93134080" lon="-8.44371995">
        <ele>428.00000</ele>
        <time>2020-09-23T07:44:24Z</time>
      </trkpt>
      <trkpt lat="40.93132797" lon="-8.44369523">
        <ele>429.00000</ele>
        <time>2020-09-23T07:44:28Z</time>
      </trkpt>
      <trkpt lat="40.93130559" lon="-8.44357838">
        <ele>432.00000</ele>
        <time>2020-09-23T07:44:40Z</time>
      </trkpt>
      <trkpt lat="40.93128321" lon="-8.44346079">
        <ele>435.00000</ele>
        <time>2020-09-23T07:44:50Z</time>
      </trkpt>
      <trkpt lat="40.93129277" lon="-8.44334159">
        <ele>437.00000</ele>
        <time>2020-09-23T07:45:00Z</time>
      </trkpt>
      <trkpt lat="40.93125119" lon="-8.44320639">
        <ele>440.00000</ele>
        <time>2020-09-23T07:45:10Z</time>
      </trkpt>
      <trkpt lat="40.93126720" lon="-8.44307522">
        <ele>442.00000</ele>
        <time>2020-09-23T07:45:17Z</time>
      </trkpt>
      <trkpt lat="40.93125438" lon="-8.44295678">
        <ele>445.00000</ele>
        <time>2020-09-23T07:45:24Z</time>
      </trkpt>
      <trkpt lat="40.93130878" lon="-8.44285201">
        <ele>445.00000</ele>
        <time>2020-09-23T07:45:34Z</time>
      </trkpt>
      <trkpt lat="40.93138882" lon="-8.44279040">
        <ele>445.00000</ele>
        <time>2020-09-23T07:46:19Z</time>
      </trkpt>
      <trkpt lat="40.93136963" lon="-8.44266962">
        <ele>447.00000</ele>
        <time>2020-09-23T07:46:26Z</time>
      </trkpt>
      <trkpt lat="40.93137600" lon="-8.44254883">
        <ele>449.00000</ele>
        <time>2020-09-23T07:46:37Z</time>
      </trkpt>
      <trkpt lat="40.93144641" lon="-8.44245596">
        <ele>449.00000</ele>
        <time>2020-09-23T07:46:46Z</time>
      </trkpt>
      <trkpt lat="40.93147516" lon="-8.44232160">
        <ele>450.00000</ele>
        <time>2020-09-23T07:46:52Z</time>
      </trkpt>
      <trkpt lat="40.93148161" lon="-8.44219998">
        <ele>451.00000</ele>
        <time>2020-09-23T07:47:01Z</time>
      </trkpt>
      <trkpt lat="40.93150081" lon="-8.44215841">
        <ele>452.00000</ele>
        <time>2020-09-23T07:47:03Z</time>
      </trkpt>
      <trkpt lat="40.93150399" lon="-8.44213276">
        <ele>452.00000</ele>
        <time>2020-09-23T07:47:04Z</time>
      </trkpt>
      <trkpt lat="40.93152000" lon="-8.44210158">
        <ele>452.00000</ele>
        <time>2020-09-23T07:47:06Z</time>
      </trkpt>
      <trkpt lat="40.93159359" lon="-8.44201440">
        <ele>452.00000</ele>
        <time>2020-09-23T07:47:12Z</time>
      </trkpt>
      <trkpt lat="40.93168320" lon="-8.44206319">
        <ele>451.00000</ele>
        <time>2020-09-23T07:47:18Z</time>
      </trkpt>
      <trkpt lat="40.93176643" lon="-8.44200963">
        <ele>450.00000</ele>
        <time>2020-09-23T07:47:23Z</time>
      </trkpt>
      <trkpt lat="40.93184321" lon="-8.44193360">
        <ele>449.00000</ele>
        <time>2020-09-23T07:47:30Z</time>
      </trkpt>
      <trkpt lat="40.93192962" lon="-8.44189203">
        <ele>448.00000</ele>
        <time>2020-09-23T07:47:37Z</time>
      </trkpt>
      <trkpt lat="40.93203842" lon="-8.44188080">
        <ele>447.00000</ele>
        <time>2020-09-23T07:47:47Z</time>
      </trkpt>
      <trkpt lat="40.93212802" lon="-8.44194316">
        <ele>444.00000</ele>
        <time>2020-09-23T07:47:52Z</time>
      </trkpt>
      <trkpt lat="40.93220799" lon="-8.44203435">
        <ele>441.00000</ele>
        <time>2020-09-23T07:47:56Z</time>
      </trkpt>
      <trkpt lat="40.93221763" lon="-8.44215841">
        <ele>439.00000</ele>
        <time>2020-09-23T07:48:03Z</time>
      </trkpt>
      <trkpt lat="40.93227840" lon="-8.44225035">
        <ele>436.00000</ele>
        <time>2020-09-23T07:48:17Z</time>
      </trkpt>
      <trkpt lat="40.93234880" lon="-8.44233761">
        <ele>434.00000</ele>
        <time>2020-09-23T07:48:29Z</time>
      </trkpt>
      <trkpt lat="40.93244478" lon="-8.44233116">
        <ele>433.00000</ele>
        <time>2020-09-23T07:48:37Z</time>
      </trkpt>
      <trkpt lat="40.93252801" lon="-8.44225756">
        <ele>432.00000</ele>
        <time>2020-09-23T07:48:42Z</time>
      </trkpt>
      <trkpt lat="40.93258559" lon="-8.44216561">
        <ele>433.00000</ele>
        <time>2020-09-23T07:48:46Z</time>
      </trkpt>
      <trkpt lat="40.93261443" lon="-8.44204081">
        <ele>434.00000</ele>
        <time>2020-09-23T07:48:51Z</time>
      </trkpt>
      <trkpt lat="40.93263681" lon="-8.44190318">
        <ele>435.00000</ele>
        <time>2020-09-23T07:48:57Z</time>
      </trkpt>
      <trkpt lat="40.93271358" lon="-8.44182958">
        <ele>434.00000</ele>
        <time>2020-09-23T07:49:03Z</time>
      </trkpt>
      <trkpt lat="40.93280319" lon="-8.44186881">
        <ele>431.00000</ele>
        <time>2020-09-23T07:49:08Z</time>
      </trkpt>
      <trkpt lat="40.93288960" lon="-8.44190318">
        <ele>428.00000</ele>
        <time>2020-09-23T07:49:13Z</time>
      </trkpt>
      <trkpt lat="40.93298239" lon="-8.44193360">
        <ele>425.00000</ele>
        <time>2020-09-23T07:49:30Z</time>
      </trkpt>
      <trkpt lat="40.93308482" lon="-8.44186722">
        <ele>422.00000</ele>
        <time>2020-09-23T07:49:42Z</time>
      </trkpt>
      <trkpt lat="40.93314240" lon="-8.44175121">
        <ele>421.00000</ele>
        <time>2020-09-23T07:49:47Z</time>
      </trkpt>
    </trkseg>
    <trkseg>
      <trkpt lat="40.93319680" lon="-8.44163998">
        <ele>420.00000</ele>
        <time>2020-09-23T07:49:52Z</time>
      </trkpt>
      <trkpt lat="40.93322237" lon="-8.44152163">
        <ele>420.00000</ele>
        <time>2020-09-23T07:50:04Z</time>
      </trkpt>
      <trkpt lat="40.93328322" lon="-8.44142801">
        <ele>420.00000</ele>
        <time>2020-09-23T07:50:14Z</time>
      </trkpt>
      <trkpt lat="40.93332798" lon="-8.44130957">
        <ele>419.00000</ele>
        <time>2020-09-23T07:50:22Z</time>
      </trkpt>
      <trkpt lat="40.93336964" lon="-8.44119356">
        <ele>417.00000</ele>
        <time>2020-09-23T07:50:28Z</time>
      </trkpt>
      <trkpt lat="40.93336637" lon="-8.44104638">
        <ele>415.00000</ele>
        <time>2020-09-23T07:50:34Z</time>
      </trkpt>
      <trkpt lat="40.93339520" lon="-8.44092157">
        <ele>414.00000</ele>
        <time>2020-09-23T07:50:40Z</time>
      </trkpt>
      <trkpt lat="40.93347843" lon="-8.44083683">
        <ele>412.00000</ele>
        <time>2020-09-23T07:50:46Z</time>
      </trkpt>
      <trkpt lat="40.93357441" lon="-8.44078159">
        <ele>410.00000</ele>
        <time>2020-09-23T07:50:53Z</time>
      </trkpt>
      <trkpt lat="40.93367038" lon="-8.44074320">
        <ele>409.00000</ele>
        <time>2020-09-23T07:50:59Z</time>
      </trkpt>
      <trkpt lat="40.93375680" lon="-8.44083197">
        <ele>407.00000</ele>
        <time>2020-09-23T07:51:04Z</time>
      </trkpt>
      <trkpt lat="40.93385595" lon="-8.44088478">
        <ele>406.00000</ele>
        <time>2020-09-23T07:51:09Z</time>
      </trkpt>
      <trkpt lat="40.93395201" lon="-8.44092878">
        <ele>404.00000</ele>
        <time>2020-09-23T07:51:14Z</time>
      </trkpt>
      <trkpt lat="40.93405762" lon="-8.44093356">
        <ele>401.00000</ele>
        <time>2020-09-23T07:51:21Z</time>
      </trkpt>
      <trkpt lat="40.93415041" lon="-8.44093683">
        <ele>399.00000</ele>
        <time>2020-09-23T07:51:25Z</time>
      </trkpt>
      <trkpt lat="40.93426558" lon="-8.44091118">
        <ele>396.00000</ele>
        <time>2020-09-23T07:51:29Z</time>
      </trkpt>
      <trkpt lat="40.93435518" lon="-8.44085116">
        <ele>395.00000</ele>
        <time>2020-09-23T07:51:33Z</time>
      </trkpt>
      <trkpt lat="40.93445442" lon="-8.44086156">
        <ele>393.00000</ele>
        <time>2020-09-23T07:51:38Z</time>
      </trkpt>
      <trkpt lat="40.93455039" lon="-8.44089676">
        <ele>392.00000</ele>
        <time>2020-09-23T07:51:42Z</time>
      </trkpt>
      <trkpt lat="40.93464637" lon="-8.44095996">
        <ele>391.00000</ele>
        <time>2020-09-23T07:51:46Z</time>
      </trkpt>
      <trkpt lat="40.93472323" lon="-8.44103598">
        <ele>390.00000</ele>
        <time>2020-09-23T07:51:50Z</time>
      </trkpt>
      <trkpt lat="40.93477117" lon="-8.44113841">
        <ele>388.00000</ele>
        <time>2020-09-23T07:51:56Z</time>
      </trkpt>
      <trkpt lat="40.93484477" lon="-8.44121444">
        <ele>385.00000</ele>
        <time>2020-09-23T07:52:01Z</time>
      </trkpt>
      <trkpt lat="40.93494082" lon="-8.44116959">
        <ele>384.00000</ele>
        <time>2020-09-23T07:52:05Z</time>
      </trkpt>
      <trkpt lat="40.93500478" lon="-8.44106482">
        <ele>384.00000</ele>
        <time>2020-09-23T07:52:10Z</time>
      </trkpt>
      <trkpt lat="40.93508482" lon="-8.44114243">
        <ele>381.00000</ele>
        <time>2020-09-23T07:52:21Z</time>
      </trkpt>
      <trkpt lat="40.93505918" lon="-8.44127437">
        <ele>379.00000</ele>
        <time>2020-09-23T07:52:26Z</time>
      </trkpt>
      <trkpt lat="40.93501442" lon="-8.44137922">
        <ele>379.00000</ele>
        <time>2020-09-23T07:52:30Z</time>
      </trkpt>
      <trkpt lat="40.93499841" lon="-8.44140797">
        <ele>379.00000</ele>
        <time>2020-09-23T07:52:31Z</time>
      </trkpt>
      <trkpt lat="40.93498240" lon="-8.44143681">
        <ele>379.00000</ele>
        <time>2020-09-23T07:52:32Z</time>
      </trkpt>
      <trkpt lat="40.93497603" lon="-8.44146162">
        <ele>378.00000</ele>
        <time>2020-09-23T07:52:33Z</time>
      </trkpt>
      <trkpt lat="40.93497603" lon="-8.44150562">
        <ele>378.00000</ele>
        <time>2020-09-23T07:52:35Z</time>
      </trkpt>
      <trkpt lat="40.93500478" lon="-8.44151996">
        <ele>376.00000</ele>
        <time>2020-09-23T07:52:37Z</time>
      </trkpt>
      <trkpt lat="40.93509756" lon="-8.44153680">
        <ele>373.00000</ele>
        <time>2020-09-23T07:52:45Z</time>
      </trkpt>
      <trkpt lat="40.93509756" lon="-8.44156798">
        <ele>372.00000</ele>
        <time>2020-09-23T07:52:47Z</time>
      </trkpt>
      <trkpt lat="40.93512003" lon="-8.44159036">
        <ele>371.00000</ele>
        <time>2020-09-23T07:52:49Z</time>
      </trkpt>
      <trkpt lat="40.93516160" lon="-8.44158399">
        <ele>369.00000</ele>
        <time>2020-09-23T07:53:00Z</time>
      </trkpt>
      <trkpt lat="40.93517761" lon="-8.44157117">
        <ele>369.00000</ele>
        <time>2020-09-23T07:53:16Z</time>
      </trkpt>
      <trkpt lat="40.93526403" lon="-8.44152322">
        <ele>367.00000</ele>
        <time>2020-09-23T07:53:35Z</time>
      </trkpt>
      <trkpt lat="40.93534399" lon="-8.44146162">
        <ele>366.00000</ele>
        <time>2020-09-23T07:53:49Z</time>
      </trkpt>
      <trkpt lat="40.93541759" lon="-8.44138559">
        <ele>366.00000</ele>
        <time>2020-09-23T07:53:53Z</time>
      </trkpt>
      <trkpt lat="40.93549763" lon="-8.44130161">
        <ele>365.00000</ele>
        <time>2020-09-23T07:53:58Z</time>
      </trkpt>
      <trkpt lat="40.93558397" lon="-8.44126481">
        <ele>363.00000</ele>
        <time>2020-09-23T07:54:04Z</time>
      </trkpt>
      <trkpt lat="40.93556477" lon="-8.44132323">
        <ele>363.00000</ele>
        <time>2020-09-23T07:54:11Z</time>
      </trkpt>
      <trkpt lat="40.93555203" lon="-8.44135441">
        <ele>362.00000</ele>
        <time>2020-09-23T07:54:14Z</time>
      </trkpt>
      <trkpt lat="40.93555840" lon="-8.44137679">
        <ele>362.00000</ele>
        <time>2020-09-23T07:54:40Z</time>
      </trkpt>
      <trkpt lat="40.93556477" lon="-8.44139917">
        <ele>361.00000</ele>
        <time>2020-09-23T07:54:43Z</time>
      </trkpt>
      <trkpt lat="40.93559042" lon="-8.44141040">
        <ele>360.00000</ele>
        <time>2020-09-23T07:54:45Z</time>
      </trkpt>
      <trkpt lat="40.93568002" lon="-8.44136321">
        <ele>358.00000</ele>
        <time>2020-09-23T07:54:52Z</time>
      </trkpt>
      <trkpt lat="40.93576963" lon="-8.44132483">
        <ele>356.00000</ele>
        <time>2020-09-23T07:54:59Z</time>
      </trkpt>
      <trkpt lat="40.93586241" lon="-8.44133438">
        <ele>353.00000</ele>
        <time>2020-09-23T07:55:15Z</time>
      </trkpt>
      <trkpt lat="40.93590080" lon="-8.44122324">
        <ele>352.00000</ele>
        <time>2020-09-23T07:55:20Z</time>
      </trkpt>
      <trkpt lat="40.93597121" lon="-8.44114721">
        <ele>350.00000</ele>
        <time>2020-09-23T07:55:26Z</time>
      </trkpt>
      <trkpt lat="40.93605763" lon="-8.44108317">
        <ele>346.00000</ele>
        <time>2020-09-23T07:55:33Z</time>
      </trkpt>
      <trkpt lat="40.93615042" lon="-8.44106960">
        <ele>342.00000</ele>
        <time>2020-09-23T07:55:51Z</time>
      </trkpt>
      <trkpt lat="40.93623356" lon="-8.44099676">
        <ele>340.00000</ele>
        <time>2020-09-23T07:55:59Z</time>
      </trkpt>
      <trkpt lat="40.93631680" lon="-8.44093523">
        <ele>337.00000</ele>
        <time>2020-09-23T07:56:09Z</time>
      </trkpt>
      <trkpt lat="40.93635200" lon="-8.44082476">
        <ele>338.00000</ele>
        <time>2020-09-23T07:56:15Z</time>
      </trkpt>
      <trkpt lat="40.93640003" lon="-8.44071043">
        <ele>337.00000</ele>
        <time>2020-09-23T07:56:25Z</time>
      </trkpt>
      <trkpt lat="40.93647362" lon="-8.44062318">
        <ele>336.00000</ele>
        <time>2020-09-23T07:56:31Z</time>
      </trkpt>
      <trkpt lat="40.93655358" lon="-8.44056475">
        <ele>333.00000</ele>
        <time>2020-09-23T07:56:37Z</time>
      </trkpt>
      <trkpt lat="40.93656641" lon="-8.44044238">
        <ele>334.00000</ele>
        <time>2020-09-23T07:56:43Z</time>
      </trkpt>
      <trkpt lat="40.93658879" lon="-8.44030483">
        <ele>335.00000</ele>
        <time>2020-09-23T07:56:48Z</time>
      </trkpt>
      <trkpt lat="40.93667202" lon="-8.44018480">
        <ele>330.00000</ele>
        <time>2020-09-23T07:56:52Z</time>
      </trkpt>
      <trkpt lat="40.93672642" lon="-8.44008799">
        <ele>325.00000</ele>
        <time>2020-09-23T07:56:55Z</time>
      </trkpt>
      <trkpt lat="40.93671360" lon="-8.43995195">
        <ele>324.00000</ele>
        <time>2020-09-23T07:56:59Z</time>
      </trkpt>
      <trkpt lat="40.93671041" lon="-8.43982723">
        <ele>323.00000</ele>
        <time>2020-09-23T07:57:04Z</time>
      </trkpt>
      <trkpt lat="40.93679683" lon="-8.43977199">
        <ele>317.00000</ele>
        <time>2020-09-23T07:57:09Z</time>
      </trkpt>
      <trkpt lat="40.93688962" lon="-8.43972958">
        <ele>312.00000</ele>
        <time>2020-09-23T07:57:14Z</time>
      </trkpt>
      <trkpt lat="40.93696321" lon="-8.43964316">
        <ele>310.00000</ele>
        <time>2020-09-23T07:57:21Z</time>
      </trkpt>
      <trkpt lat="40.93701442" lon="-8.43952640">
        <ele>309.00000</ele>
        <time>2020-09-23T07:57:28Z</time>
      </trkpt>
      <trkpt lat="40.93707201" lon="-8.43943202">
        <ele>308.00000</ele>
        <time>2020-09-23T07:57:33Z</time>
      </trkpt>
      <trkpt lat="40.93707519" lon="-8.43940319">
        <ele>308.00000</ele>
        <time>2020-09-23T07:57:35Z</time>
      </trkpt>
      <trkpt lat="40.93704963" lon="-8.43937997">
        <ele>309.00000</ele>
        <time>2020-09-23T07:57:38Z</time>
      </trkpt>
      <trkpt lat="40.93703043" lon="-8.43937519">
        <ele>310.00000</ele>
        <time>2020-09-23T07:57:39Z</time>
      </trkpt>
      <trkpt lat="40.93701115" lon="-8.43937201">
        <ele>310.00000</ele>
        <time>2020-09-23T07:57:40Z</time>
      </trkpt>
      <trkpt lat="40.93697603" lon="-8.43936639">
        <ele>311.00000</ele>
        <time>2020-09-23T07:57:42Z</time>
      </trkpt>
      <trkpt lat="40.93695357" lon="-8.43936162">
        <ele>312.00000</ele>
        <time>2020-09-23T07:57:43Z</time>
      </trkpt>
      <trkpt lat="40.93692800" lon="-8.43935198">
        <ele>312.00000</ele>
        <time>2020-09-23T07:57:45Z</time>
      </trkpt>
      <trkpt lat="40.93689599" lon="-8.43933044">
        <ele>313.00000</ele>
        <time>2020-09-23T07:57:47Z</time>
      </trkpt>
      <trkpt lat="40.93682876" lon="-8.43924159">
        <ele>315.00000</ele>
        <time>2020-09-23T07:57:51Z</time>
      </trkpt>
      <trkpt lat="40.93680320" lon="-8.43921359">
        <ele>315.00000</ele>
        <time>2020-09-23T07:57:53Z</time>
      </trkpt>
      <trkpt lat="40.93678400" lon="-8.43919683">
        <ele>315.00000</ele>
        <time>2020-09-23T07:57:54Z</time>
      </trkpt>
      <trkpt lat="40.93676481" lon="-8.43917361">
        <ele>316.00000</ele>
        <time>2020-09-23T07:57:56Z</time>
      </trkpt>
      <trkpt lat="40.93674243" lon="-8.43914318">
        <ele>316.00000</ele>
        <time>2020-09-23T07:57:58Z</time>
      </trkpt>
      <trkpt lat="40.93671678" lon="-8.43913204">
        <ele>317.00000</ele>
        <time>2020-09-23T07:57:59Z</time>
      </trkpt>
      <trkpt lat="40.93669440" lon="-8.43911997">
        <ele>317.00000</ele>
        <time>2020-09-23T07:58:00Z</time>
      </trkpt>
      <trkpt lat="40.93667521" lon="-8.43911360">
        <ele>318.00000</ele>
        <time>2020-09-23T07:58:01Z</time>
      </trkpt>
      <trkpt lat="40.93663682" lon="-8.43911200">
        <ele>318.00000</ele>
        <time>2020-09-23T07:58:03Z</time>
      </trkpt>
      <trkpt lat="40.93660480" lon="-8.43910722">
        <ele>319.00000</ele>
        <time>2020-09-23T07:58:05Z</time>
      </trkpt>
      <trkpt lat="40.93656641" lon="-8.43909356">
        <ele>320.00000</ele>
        <time>2020-09-23T07:58:07Z</time>
      </trkpt>
      <trkpt lat="40.93654721" lon="-8.43908317">
        <ele>320.00000</ele>
        <time>2020-09-23T07:58:08Z</time>
      </trkpt>
      <trkpt lat="40.93652802" lon="-8.43907202">
        <ele>320.00000</ele>
        <time>2020-09-23T07:58:09Z</time>
      </trkpt>
      <trkpt lat="40.93650883" lon="-8.43906003">
        <ele>321.00000</ele>
        <time>2020-09-23T07:58:10Z</time>
      </trkpt>
      <trkpt lat="40.93647681" lon="-8.43903363">
        <ele>321.00000</ele>
        <time>2020-09-23T07:58:12Z</time>
      </trkpt>
      <trkpt lat="40.93645443" lon="-8.43900723">
        <ele>321.00000</ele>
        <time>2020-09-23T07:58:14Z</time>
      </trkpt>
      <trkpt lat="40.93641922" lon="-8.43896959">
        <ele>322.00000</ele>
        <time>2020-09-23T07:58:16Z</time>
      </trkpt>
      <trkpt lat="40.93640640" lon="-8.43894956">
        <ele>322.00000</ele>
        <time>2020-09-23T07:58:17Z</time>
      </trkpt>
      <trkpt lat="40.93639039" lon="-8.43893523">
        <ele>322.00000</ele>
        <time>2020-09-23T07:58:18Z</time>
      </trkpt>
      <trkpt lat="40.93637438" lon="-8.43891520">
        <ele>322.00000</ele>
        <time>2020-09-23T07:58:19Z</time>
      </trkpt>
      <trkpt lat="40.93635837" lon="-8.43889843">
        <ele>322.00000</ele>
        <time>2020-09-23T07:58:20Z</time>
      </trkpt>
      <trkpt lat="40.93633918" lon="-8.43887681">
        <ele>322.00000</ele>
        <time>2020-09-23T07:58:21Z</time>
      </trkpt>
      <trkpt lat="40.93631998" lon="-8.43884479">
        <ele>322.00000</ele>
        <time>2020-09-23T07:58:22Z</time>
      </trkpt>
      <trkpt lat="40.93630079" lon="-8.43881763">
        <ele>322.00000</ele>
        <time>2020-09-23T07:58:23Z</time>
      </trkpt>
      <trkpt lat="40.93628796" lon="-8.43879282">
        <ele>322.00000</ele>
        <time>2020-09-23T07:58:24Z</time>
      </trkpt>
      <trkpt lat="40.93626558" lon="-8.43875275">
        <ele>322.00000</ele>
        <time>2020-09-23T07:58:26Z</time>
      </trkpt>
      <trkpt lat="40.93624957" lon="-8.43873037">
        <ele>322.00000</ele>
        <time>2020-09-23T07:58:27Z</time>
      </trkpt>
      <trkpt lat="40.93623356" lon="-8.43870640">
        <ele>321.00000</ele>
        <time>2020-09-23T07:58:28Z</time>
      </trkpt>
      <trkpt lat="40.93621437" lon="-8.43868159">
        <ele>321.00000</ele>
        <time>2020-09-23T07:58:29Z</time>
      </trkpt>
      <trkpt lat="40.93619517" lon="-8.43864639">
        <ele>321.00000</ele>
        <time>2020-09-23T07:58:30Z</time>
      </trkpt>
      <trkpt lat="40.93617280" lon="-8.43859677">
        <ele>320.00000</ele>
        <time>2020-09-23T07:58:32Z</time>
      </trkpt>
      <trkpt lat="40.93615360" lon="-8.43856802">
        <ele>320.00000</ele>
        <time>2020-09-23T07:58:33Z</time>
      </trkpt>
      <trkpt lat="40.93613759" lon="-8.43853441">
        <ele>320.00000</ele>
        <time>2020-09-23T07:58:34Z</time>
      </trkpt>
      <trkpt lat="40.93611521" lon="-8.43850960">
        <ele>320.00000</ele>
        <time>2020-09-23T07:58:35Z</time>
      </trkpt>
      <trkpt lat="40.93609920" lon="-8.43849677">
        <ele>320.00000</ele>
        <time>2020-09-23T07:58:36Z</time>
      </trkpt>
      <trkpt lat="40.93608001" lon="-8.43848160">
        <ele>320.00000</ele>
        <time>2020-09-23T07:58:37Z</time>
      </trkpt>
      <trkpt lat="40.93606081" lon="-8.43846718">
        <ele>320.00000</ele>
        <time>2020-09-23T07:58:38Z</time>
      </trkpt>
      <trkpt lat="40.93602879" lon="-8.43844003">
        <ele>320.00000</ele>
        <time>2020-09-23T07:58:40Z</time>
      </trkpt>
      <trkpt lat="40.93599996" lon="-8.43842159">
        <ele>320.00000</ele>
        <time>2020-09-23T07:58:42Z</time>
      </trkpt>
      <trkpt lat="40.93597121" lon="-8.43839996">
        <ele>320.00000</ele>
        <time>2020-09-23T07:58:44Z</time>
      </trkpt>
      <trkpt lat="40.93595202" lon="-8.43838320">
        <ele>320.00000</ele>
        <time>2020-09-23T07:58:46Z</time>
      </trkpt>
      <trkpt lat="40.93592964" lon="-8.43836316">
        <ele>320.00000</ele>
        <time>2020-09-23T07:58:48Z</time>
      </trkpt>
      <trkpt lat="40.93591036" lon="-8.43834321">
        <ele>320.00000</ele>
        <time>2020-09-23T07:58:50Z</time>
      </trkpt>
      <trkpt lat="40.93589116" lon="-8.43832880">
        <ele>320.00000</ele>
        <time>2020-09-23T07:58:52Z</time>
      </trkpt>
      <trkpt lat="40.93586878" lon="-8.43830323">
        <ele>320.00000</ele>
        <time>2020-09-23T07:58:55Z</time>
      </trkpt>
      <trkpt lat="40.93585923" lon="-8.43828001">
        <ele>320.00000</ele>
        <time>2020-09-23T07:59:02Z</time>
      </trkpt>
      <trkpt lat="40.93584959" lon="-8.43815839">
        <ele>320.00000</ele>
        <time>2020-09-23T07:59:39Z</time>
      </trkpt>
      <trkpt lat="40.93583676" lon="-8.43801280">
        <ele>320.00000</ele>
        <time>2020-09-23T07:59:43Z</time>
      </trkpt>
      <trkpt lat="40.93584003" lon="-8.43786637">
        <ele>321.00000</ele>
        <time>2020-09-23T07:59:47Z</time>
      </trkpt>
      <trkpt lat="40.93585923" lon="-8.43773360">
        <ele>321.00000</ele>
        <time>2020-09-23T07:59:51Z</time>
      </trkpt>
      <trkpt lat="40.93588479" lon="-8.43758960">
        <ele>321.00000</ele>
        <time>2020-09-23T07:59:55Z</time>
      </trkpt>
      <trkpt lat="40.93590080" lon="-8.43744476">
        <ele>322.00000</ele>
        <time>2020-09-23T07:59:59Z</time>
      </trkpt>
      <trkpt lat="40.93591363" lon="-8.43730319">
        <ele>322.00000</ele>
        <time>2020-09-23T08:00:03Z</time>
      </trkpt>
      <trkpt lat="40.93592318" lon="-8.43715843">
        <ele>322.00000</ele>
        <time>2020-09-23T08:00:07Z</time>
      </trkpt>
      <trkpt lat="40.93590080" lon="-8.43701443">
        <ele>324.00000</ele>
        <time>2020-09-23T08:00:11Z</time>
      </trkpt>
      <trkpt lat="40.93589116" lon="-8.43686875">
        <ele>326.00000</ele>
        <time>2020-09-23T08:00:15Z</time>
      </trkpt>
      <trkpt lat="40.93587842" lon="-8.43673682">
        <ele>327.00000</ele>
        <time>2020-09-23T08:00:19Z</time>
      </trkpt>
      <trkpt lat="40.93586241" lon="-8.43667119">
        <ele>327.00000</ele>
        <time>2020-09-23T08:00:21Z</time>
      </trkpt>
      <trkpt lat="40.93585277" lon="-8.43663758">
        <ele>327.00000</ele>
        <time>2020-09-23T08:00:22Z</time>
      </trkpt>
      <trkpt lat="40.93584003" lon="-8.43659517">
        <ele>328.00000</ele>
        <time>2020-09-23T08:00:23Z</time>
      </trkpt>
      <trkpt lat="40.93583358" lon="-8.43655996">
        <ele>328.00000</ele>
        <time>2020-09-23T08:00:24Z</time>
      </trkpt>
      <trkpt lat="40.93582402" lon="-8.43652560">
        <ele>328.00000</ele>
        <time>2020-09-23T08:00:25Z</time>
      </trkpt>
    </trkseg>
    <trkseg>
      <trkpt lat="40.93581757" lon="-8.43649199">
        <ele>329.00000</ele>
        <time>2020-09-23T08:00:26Z</time>
      </trkpt>
      <trkpt lat="40.93581120" lon="-8.43645838">
        <ele>329.00000</ele>
        <time>2020-09-23T08:00:27Z</time>
      </trkpt>
      <trkpt lat="40.93580483" lon="-8.43642560">
        <ele>329.00000</ele>
        <time>2020-09-23T08:00:28Z</time>
      </trkpt>
      <trkpt lat="40.93581438" lon="-8.43639358">
        <ele>329.00000</ele>
        <time>2020-09-23T08:00:29Z</time>
      </trkpt>
      <trkpt lat="40.93582076" lon="-8.43636483">
        <ele>329.00000</ele>
        <time>2020-09-23T08:00:30Z</time>
      </trkpt>
      <trkpt lat="40.93582076" lon="-8.43633675">
        <ele>329.00000</ele>
        <time>2020-09-23T08:00:31Z</time>
      </trkpt>
      <trkpt lat="40.93581757" lon="-8.43631203">
        <ele>329.00000</ele>
        <time>2020-09-23T08:00:32Z</time>
      </trkpt>
      <trkpt lat="40.93580483" lon="-8.43628319">
        <ele>329.00000</ele>
        <time>2020-09-23T08:00:33Z</time>
      </trkpt>
      <trkpt lat="40.93576963" lon="-8.43623198">
        <ele>330.00000</ele>
        <time>2020-09-23T08:00:35Z</time>
      </trkpt>
      <trkpt lat="40.93572478" lon="-8.43621362">
        <ele>331.00000</ele>
        <time>2020-09-23T08:00:37Z</time>
      </trkpt>
      <trkpt lat="40.93570240" lon="-8.43621362">
        <ele>331.00000</ele>
        <time>2020-09-23T08:00:38Z</time>
      </trkpt>
      <trkpt lat="40.93567675" lon="-8.43621119">
        <ele>332.00000</ele>
        <time>2020-09-23T08:00:39Z</time>
      </trkpt>
      <trkpt lat="40.93565119" lon="-8.43620876">
        <ele>332.00000</ele>
        <time>2020-09-23T08:00:40Z</time>
      </trkpt>
      <trkpt lat="40.93561599" lon="-8.43619996">
        <ele>333.00000</ele>
        <time>2020-09-23T08:00:42Z</time>
      </trkpt>
      <trkpt lat="40.93559042" lon="-8.43619518">
        <ele>334.00000</ele>
        <time>2020-09-23T08:00:43Z</time>
      </trkpt>
      <trkpt lat="40.93557123" lon="-8.43618479">
        <ele>334.00000</ele>
        <time>2020-09-23T08:00:44Z</time>
      </trkpt>
      <trkpt lat="40.93554558" lon="-8.43618236">
        <ele>335.00000</ele>
        <time>2020-09-23T08:00:45Z</time>
      </trkpt>
      <trkpt lat="40.93552320" lon="-8.43616643">
        <ele>335.00000</ele>
        <time>2020-09-23T08:00:46Z</time>
      </trkpt>
      <trkpt lat="40.93550082" lon="-8.43615596">
        <ele>335.00000</ele>
        <time>2020-09-23T08:00:47Z</time>
      </trkpt>
      <trkpt lat="40.93547835" lon="-8.43614883">
        <ele>336.00000</ele>
        <time>2020-09-23T08:00:48Z</time>
      </trkpt>
      <trkpt lat="40.93545916" lon="-8.43614883">
        <ele>336.00000</ele>
        <time>2020-09-23T08:00:49Z</time>
      </trkpt>
      <trkpt lat="40.93543997" lon="-8.43614481">
        <ele>336.00000</ele>
        <time>2020-09-23T08:00:50Z</time>
      </trkpt>
      <trkpt lat="40.93541759" lon="-8.43614481">
        <ele>336.00000</ele>
        <time>2020-09-23T08:00:51Z</time>
      </trkpt>
      <trkpt lat="40.93539521" lon="-8.43614162">
        <ele>337.00000</ele>
        <time>2020-09-23T08:00:52Z</time>
      </trkpt>
      <trkpt lat="40.93537283" lon="-8.43613835">
        <ele>337.00000</ele>
        <time>2020-09-23T08:00:53Z</time>
      </trkpt>
      <trkpt lat="40.93534718" lon="-8.43613358">
        <ele>337.00000</ele>
        <time>2020-09-23T08:00:54Z</time>
      </trkpt>
      <trkpt lat="40.93532480" lon="-8.43612637">
        <ele>337.00000</ele>
        <time>2020-09-23T08:00:55Z</time>
      </trkpt>
      <trkpt lat="40.93530560" lon="-8.43612478">
        <ele>337.00000</ele>
        <time>2020-09-23T08:00:56Z</time>
      </trkpt>
      <trkpt lat="40.93528322" lon="-8.43612159">
        <ele>338.00000</ele>
        <time>2020-09-23T08:00:57Z</time>
      </trkpt>
      <trkpt lat="40.93526403" lon="-8.43611841">
        <ele>338.00000</ele>
        <time>2020-09-23T08:00:58Z</time>
      </trkpt>
      <trkpt lat="40.93524157" lon="-8.43611363">
        <ele>338.00000</ele>
        <time>2020-09-23T08:00:59Z</time>
      </trkpt>
      <trkpt lat="40.93522237" lon="-8.43611363">
        <ele>339.00000</ele>
        <time>2020-09-23T08:01:00Z</time>
      </trkpt>
      <trkpt lat="40.93520318" lon="-8.43611363">
        <ele>339.00000</ele>
        <time>2020-09-23T08:01:01Z</time>
      </trkpt>
      <trkpt lat="40.93518080" lon="-8.43611363">
        <ele>339.00000</ele>
        <time>2020-09-23T08:01:02Z</time>
      </trkpt>
      <trkpt lat="40.93515842" lon="-8.43610642">
        <ele>340.00000</ele>
        <time>2020-09-23T08:01:03Z</time>
      </trkpt>
      <trkpt lat="40.93513595" lon="-8.43610399">
        <ele>340.00000</ele>
        <time>2020-09-23T08:01:04Z</time>
      </trkpt>
      <trkpt lat="40.93511676" lon="-8.43610156">
        <ele>340.00000</ele>
        <time>2020-09-23T08:01:05Z</time>
      </trkpt>
      <trkpt lat="40.93509756" lon="-8.43610156">
        <ele>341.00000</ele>
        <time>2020-09-23T08:01:06Z</time>
      </trkpt>
      <trkpt lat="40.93507518" lon="-8.43609837">
        <ele>341.00000</ele>
        <time>2020-09-23T08:01:07Z</time>
      </trkpt>
      <trkpt lat="40.93503680" lon="-8.43609360">
        <ele>341.00000</ele>
        <time>2020-09-23T08:01:09Z</time>
      </trkpt>
      <trkpt lat="40.93501442" lon="-8.43609997">
        <ele>342.00000</ele>
        <time>2020-09-23T08:01:11Z</time>
      </trkpt>
      <trkpt lat="40.93499522" lon="-8.43609603">
        <ele>342.00000</ele>
        <time>2020-09-23T08:01:13Z</time>
      </trkpt>
      <trkpt lat="40.93496002" lon="-8.43607683">
        <ele>342.00000</ele>
        <time>2020-09-23T08:01:15Z</time>
      </trkpt>
      <trkpt lat="40.93494082" lon="-8.43607516">
        <ele>343.00000</ele>
        <time>2020-09-23T08:01:17Z</time>
      </trkpt>
      <trkpt lat="40.93491836" lon="-8.43607122">
        <ele>343.00000</ele>
        <time>2020-09-23T08:01:19Z</time>
      </trkpt>
      <trkpt lat="40.93489916" lon="-8.43606635">
        <ele>343.00000</ele>
        <time>2020-09-23T08:01:20Z</time>
      </trkpt>
      <trkpt lat="40.93487042" lon="-8.43606476">
        <ele>343.00000</ele>
        <time>2020-09-23T08:01:22Z</time>
      </trkpt>
      <trkpt lat="40.93484477" lon="-8.43606476">
        <ele>344.00000</ele>
        <time>2020-09-23T08:01:24Z</time>
      </trkpt>
      <trkpt lat="40.93481920" lon="-8.43606635">
        <ele>344.00000</ele>
        <time>2020-09-23T08:01:26Z</time>
      </trkpt>
      <trkpt lat="40.93479037" lon="-8.43606476">
        <ele>345.00000</ele>
        <time>2020-09-23T08:01:28Z</time>
      </trkpt>
      <trkpt lat="40.93476799" lon="-8.43606401">
        <ele>345.00000</ele>
        <time>2020-09-23T08:01:30Z</time>
      </trkpt>
      <trkpt lat="40.93474242" lon="-8.43605839">
        <ele>345.00000</ele>
        <time>2020-09-23T08:01:32Z</time>
      </trkpt>
      <trkpt lat="40.93472323" lon="-8.43606158">
        <ele>346.00000</ele>
        <time>2020-09-23T08:01:34Z</time>
      </trkpt>
      <trkpt lat="40.93469758" lon="-8.43605839">
        <ele>345.00000</ele>
        <time>2020-09-23T08:01:36Z</time>
      </trkpt>
      <trkpt lat="40.93466883" lon="-8.43605521">
        <ele>345.00000</ele>
        <time>2020-09-23T08:01:38Z</time>
      </trkpt>
      <trkpt lat="40.93464318" lon="-8.43606158">
        <ele>345.00000</ele>
        <time>2020-09-23T08:01:40Z</time>
      </trkpt>
      <trkpt lat="40.93461116" lon="-8.43607122">
        <ele>346.00000</ele>
        <time>2020-09-23T08:01:42Z</time>
      </trkpt>
      <trkpt lat="40.93458560" lon="-8.43607356">
        <ele>345.00000</ele>
        <time>2020-09-23T08:01:44Z</time>
      </trkpt>
      <trkpt lat="40.93456322" lon="-8.43607122">
        <ele>345.00000</ele>
        <time>2020-09-23T08:01:46Z</time>
      </trkpt>
      <trkpt lat="40.93454075" lon="-8.43607516">
        <ele>345.00000</ele>
        <time>2020-09-23T08:01:48Z</time>
      </trkpt>
      <trkpt lat="40.93451200" lon="-8.43608639">
        <ele>345.00000</ele>
        <time>2020-09-23T08:01:55Z</time>
      </trkpt>
      <trkpt lat="40.93448963" lon="-8.43609116">
        <ele>345.00000</ele>
        <time>2020-09-23T08:01:57Z</time>
      </trkpt>
      <trkpt lat="40.93446398" lon="-8.43609837">
        <ele>345.00000</ele>
        <time>2020-09-23T08:01:59Z</time>
      </trkpt>
      <trkpt lat="40.93444478" lon="-8.43610156">
        <ele>345.00000</ele>
        <time>2020-09-23T08:02:00Z</time>
      </trkpt>
      <trkpt lat="40.93442559" lon="-8.43610399">
        <ele>345.00000</ele>
        <time>2020-09-23T08:02:01Z</time>
      </trkpt>
      <trkpt lat="40.93436163" lon="-8.43615596">
        <ele>346.00000</ele>
        <time>2020-09-23T08:02:06Z</time>
      </trkpt>
      <trkpt lat="40.93427522" lon="-8.43620876">
        <ele>347.00000</ele>
        <time>2020-09-23T08:02:11Z</time>
      </trkpt>
      <trkpt lat="40.93418561" lon="-8.43619837">
        <ele>346.00000</ele>
        <time>2020-09-23T08:02:15Z</time>
      </trkpt>
      <trkpt lat="40.93409601" lon="-8.43618957">
        <ele>346.00000</ele>
        <time>2020-09-23T08:02:19Z</time>
      </trkpt>
      <trkpt lat="40.93400641" lon="-8.43627355">
        <ele>346.00000</ele>
        <time>2020-09-23T08:02:25Z</time>
      </trkpt>
      <trkpt lat="40.93390717" lon="-8.43622880">
        <ele>346.00000</ele>
        <time>2020-09-23T08:02:30Z</time>
      </trkpt>
      <trkpt lat="40.93389443" lon="-8.43620717">
        <ele>346.00000</ele>
        <time>2020-09-23T08:02:31Z</time>
      </trkpt>
      <trkpt lat="40.93387842" lon="-8.43616157">
        <ele>347.00000</ele>
        <time>2020-09-23T08:02:33Z</time>
      </trkpt>
      <trkpt lat="40.93386878" lon="-8.43611841">
        <ele>347.00000</ele>
        <time>2020-09-23T08:02:35Z</time>
      </trkpt>
      <trkpt lat="40.93385922" lon="-8.43609519">
        <ele>347.00000</ele>
        <time>2020-09-23T08:02:36Z</time>
      </trkpt>
      <trkpt lat="40.93385277" lon="-8.43607038">
        <ele>348.00000</ele>
        <time>2020-09-23T08:02:37Z</time>
      </trkpt>
      <trkpt lat="40.93384958" lon="-8.43604481">
        <ele>348.00000</ele>
        <time>2020-09-23T08:02:38Z</time>
      </trkpt>
      <trkpt lat="40.93384321" lon="-8.43602000">
        <ele>349.00000</ele>
        <time>2020-09-23T08:02:39Z</time>
      </trkpt>
      <trkpt lat="40.93383676" lon="-8.43599678">
        <ele>349.00000</ele>
        <time>2020-09-23T08:02:40Z</time>
      </trkpt>
      <trkpt lat="40.93382720" lon="-8.43594800">
        <ele>350.00000</ele>
        <time>2020-09-23T08:02:42Z</time>
      </trkpt>
      <trkpt lat="40.93378881" lon="-8.43584323">
        <ele>353.00000</ele>
        <time>2020-09-23T08:02:47Z</time>
      </trkpt>
      <trkpt lat="40.93377280" lon="-8.43580316">
        <ele>354.00000</ele>
        <time>2020-09-23T08:02:49Z</time>
      </trkpt>
      <trkpt lat="40.93376962" lon="-8.43575840">
        <ele>354.00000</ele>
        <time>2020-09-23T08:02:51Z</time>
      </trkpt>
      <trkpt lat="40.93377280" lon="-8.43573359">
        <ele>355.00000</ele>
        <time>2020-09-23T08:02:52Z</time>
      </trkpt>
      <trkpt lat="40.93380482" lon="-8.43560962">
        <ele>356.00000</ele>
        <time>2020-09-23T08:02:57Z</time>
      </trkpt>
      <trkpt lat="40.93385922" lon="-8.43549521">
        <ele>357.00000</ele>
        <time>2020-09-23T08:03:02Z</time>
      </trkpt>
      <trkpt lat="40.93379518" lon="-8.43544878">
        <ele>358.00000</ele>
        <time>2020-09-23T08:03:07Z</time>
      </trkpt>
      <trkpt lat="40.93376962" lon="-8.43545355">
        <ele>358.00000</ele>
        <time>2020-09-23T08:03:08Z</time>
      </trkpt>
      <trkpt lat="40.93373760" lon="-8.43545598">
        <ele>358.00000</ele>
        <time>2020-09-23T08:03:09Z</time>
      </trkpt>
      <trkpt lat="40.93371522" lon="-8.43546479">
        <ele>358.00000</ele>
        <time>2020-09-23T08:03:10Z</time>
      </trkpt>
      <trkpt lat="40.93369276" lon="-8.43546956">
        <ele>358.00000</ele>
        <time>2020-09-23T08:03:11Z</time>
      </trkpt>
      <trkpt lat="40.93358723" lon="-8.43549119">
        <ele>359.00000</ele>
        <time>2020-09-23T08:03:16Z</time>
      </trkpt>
      <trkpt lat="40.93349763" lon="-8.43551122">
        <ele>359.00000</ele>
        <time>2020-09-23T08:03:20Z</time>
      </trkpt>
      <trkpt lat="40.93347198" lon="-8.43550720">
        <ele>359.00000</ele>
        <time>2020-09-23T08:03:22Z</time>
      </trkpt>
      <trkpt lat="40.93343040" lon="-8.43538876">
        <ele>360.00000</ele>
        <time>2020-09-23T08:03:35Z</time>
      </trkpt>
      <trkpt lat="40.93335681" lon="-8.43529120">
        <ele>360.00000</ele>
        <time>2020-09-23T08:03:40Z</time>
      </trkpt>
      <trkpt lat="40.93326721" lon="-8.43521123">
        <ele>361.00000</ele>
        <time>2020-09-23T08:03:46Z</time>
      </trkpt>
      <trkpt lat="40.93319043" lon="-8.43514560">
        <ele>361.00000</ele>
        <time>2020-09-23T08:03:51Z</time>
      </trkpt>
      <trkpt lat="40.93311357" lon="-8.43506639">
        <ele>361.00000</ele>
        <time>2020-09-23T08:03:57Z</time>
      </trkpt>
      <trkpt lat="40.93305917" lon="-8.43502080">
        <ele>362.00000</ele>
        <time>2020-09-23T08:04:14Z</time>
      </trkpt>
      <trkpt lat="40.93302078" lon="-8.43502557">
        <ele>362.00000</ele>
        <time>2020-09-23T08:04:46Z</time>
      </trkpt>
      <trkpt lat="40.93299203" lon="-8.43504561">
        <ele>362.00000</ele>
        <time>2020-09-23T08:04:47Z</time>
      </trkpt>
      <trkpt lat="40.93296001" lon="-8.43506162">
        <ele>363.00000</ele>
        <time>2020-09-23T08:04:48Z</time>
      </trkpt>
      <trkpt lat="40.93293118" lon="-8.43507519">
        <ele>363.00000</ele>
        <time>2020-09-23T08:04:49Z</time>
      </trkpt>
      <trkpt lat="40.93283839" lon="-8.43507201">
        <ele>365.00000</ele>
        <time>2020-09-23T08:04:52Z</time>
      </trkpt>
      <trkpt lat="40.93275197" lon="-8.43503437">
        <ele>365.00000</ele>
        <time>2020-09-23T08:04:55Z</time>
      </trkpt>
      <trkpt lat="40.93265600" lon="-8.43498962">
        <ele>366.00000</ele>
        <time>2020-09-23T08:04:59Z</time>
      </trkpt>
      <trkpt lat="40.93254402" lon="-8.43498718">
        <ele>367.00000</ele>
        <time>2020-09-23T08:05:04Z</time>
      </trkpt>
      <trkpt lat="40.93244796" lon="-8.43500956">
        <ele>369.00000</ele>
        <time>2020-09-23T08:05:08Z</time>
      </trkpt>
      <trkpt lat="40.93233916" lon="-8.43503681">
        <ele>371.00000</ele>
        <time>2020-09-23T08:05:13Z</time>
      </trkpt>
      <trkpt lat="40.93224001" lon="-8.43505441">
        <ele>373.00000</ele>
        <time>2020-09-23T08:05:17Z</time>
      </trkpt>
      <trkpt lat="40.93214076" lon="-8.43506556">
        <ele>374.00000</ele>
        <time>2020-09-23T08:05:22Z</time>
      </trkpt>
      <trkpt lat="40.93204479" lon="-8.43506556">
        <ele>376.00000</ele>
        <time>2020-09-23T08:05:27Z</time>
      </trkpt>
      <trkpt lat="40.93194236" lon="-8.43506162">
        <ele>377.00000</ele>
        <time>2020-09-23T08:05:31Z</time>
      </trkpt>
      <trkpt lat="40.93183357" lon="-8.43504720">
        <ele>376.00000</ele>
        <time>2020-09-23T08:05:35Z</time>
      </trkpt>
      <trkpt lat="40.93171840" lon="-8.43504561">
        <ele>376.00000</ele>
        <time>2020-09-23T08:05:39Z</time>
      </trkpt>
      <trkpt lat="40.93162561" lon="-8.43507201">
        <ele>375.00000</ele>
        <time>2020-09-23T08:05:42Z</time>
      </trkpt>
      <trkpt lat="40.93153282" lon="-8.43509841">
        <ele>374.00000</ele>
        <time>2020-09-23T08:05:45Z</time>
      </trkpt>
      <trkpt lat="40.93142076" lon="-8.43514560">
        <ele>373.00000</ele>
        <time>2020-09-23T08:05:49Z</time>
      </trkpt>
      <trkpt lat="40.93134080" lon="-8.43520637">
        <ele>372.00000</ele>
        <time>2020-09-23T08:05:52Z</time>
      </trkpt>
      <trkpt lat="40.93125119" lon="-8.43522800">
        <ele>371.00000</ele>
        <time>2020-09-23T08:05:55Z</time>
      </trkpt>
      <trkpt lat="40.93118397" lon="-8.43522800">
        <ele>370.00000</ele>
        <time>2020-09-23T08:05:57Z</time>
      </trkpt>
      <trkpt lat="40.93114558" lon="-8.43523118">
        <ele>369.00000</ele>
        <time>2020-09-23T08:05:58Z</time>
      </trkpt>
      <trkpt lat="40.93105279" lon="-8.43523998">
        <ele>369.00000</ele>
        <time>2020-09-23T08:06:01Z</time>
      </trkpt>
      <trkpt lat="40.93095682" lon="-8.43523043">
        <ele>369.00000</ele>
        <time>2020-09-23T08:06:04Z</time>
      </trkpt>
      <trkpt lat="40.93086403" lon="-8.43522640">
        <ele>369.00000</ele>
        <time>2020-09-23T08:06:07Z</time>
      </trkpt>
      <trkpt lat="40.93076479" lon="-8.43522322">
        <ele>369.00000</ele>
        <time>2020-09-23T08:06:10Z</time>
      </trkpt>
      <trkpt lat="40.93064635" lon="-8.43523118">
        <ele>370.00000</ele>
        <time>2020-09-23T08:06:14Z</time>
      </trkpt>
      <trkpt lat="40.93055684" lon="-8.43525281">
        <ele>370.00000</ele>
        <time>2020-09-23T08:06:17Z</time>
      </trkpt>
      <trkpt lat="40.93052800" lon="-8.43526395">
        <ele>371.00000</ele>
        <time>2020-09-23T08:06:18Z</time>
      </trkpt>
      <trkpt lat="40.93049598" lon="-8.43527519">
        <ele>371.00000</ele>
        <time>2020-09-23T08:06:19Z</time>
      </trkpt>
      <trkpt lat="40.93047042" lon="-8.43528877">
        <ele>371.00000</ele>
        <time>2020-09-23T08:06:20Z</time>
      </trkpt>
      <trkpt lat="40.93044159" lon="-8.43530477">
        <ele>371.00000</ele>
        <time>2020-09-23T08:06:21Z</time>
      </trkpt>
      <trkpt lat="40.93041921" lon="-8.43532162">
        <ele>371.00000</ele>
        <time>2020-09-23T08:06:22Z</time>
      </trkpt>
      <trkpt lat="40.93039356" lon="-8.43533679">
        <ele>372.00000</ele>
        <time>2020-09-23T08:06:23Z</time>
      </trkpt>
      <trkpt lat="40.93036799" lon="-8.43535356">
        <ele>372.00000</ele>
        <time>2020-09-23T08:06:24Z</time>
      </trkpt>
      <trkpt lat="40.93033916" lon="-8.43537040">
        <ele>372.00000</ele>
        <time>2020-09-23T08:06:25Z</time>
      </trkpt>
      <trkpt lat="40.93031359" lon="-8.43538641">
        <ele>372.00000</ele>
        <time>2020-09-23T08:06:26Z</time>
      </trkpt>
      <trkpt lat="40.93029121" lon="-8.43540402">
        <ele>372.00000</ele>
        <time>2020-09-23T08:06:27Z</time>
      </trkpt>
      <trkpt lat="40.93025601" lon="-8.43541516">
        <ele>373.00000</ele>
        <time>2020-09-23T08:06:28Z</time>
      </trkpt>
      <trkpt lat="40.93023363" lon="-8.43542321">
        <ele>373.00000</ele>
        <time>2020-09-23T08:06:29Z</time>
      </trkpt>
      <trkpt lat="40.93020480" lon="-8.43542640">
        <ele>373.00000</ele>
        <time>2020-09-23T08:06:30Z</time>
      </trkpt>
      <trkpt lat="40.93017923" lon="-8.43542321">
        <ele>373.00000</ele>
        <time>2020-09-23T08:06:31Z</time>
      </trkpt>
      <trkpt lat="40.93015040" lon="-8.43541600">
        <ele>373.00000</ele>
        <time>2020-09-23T08:06:32Z</time>
      </trkpt>
      <trkpt lat="40.93012156" lon="-8.43540879">
        <ele>373.00000</ele>
        <time>2020-09-23T08:06:33Z</time>
      </trkpt>
      <trkpt lat="40.93009918" lon="-8.43539119">
        <ele>373.00000</ele>
        <time>2020-09-23T08:06:34Z</time>
      </trkpt>
      <trkpt lat="40.93005116" lon="-8.43536001">
        <ele>374.00000</ele>
        <time>2020-09-23T08:06:36Z</time>
      </trkpt>
      <trkpt lat="40.93002241" lon="-8.43534476">
        <ele>374.00000</ele>
        <time>2020-09-23T08:06:37Z</time>
      </trkpt>
      <trkpt lat="40.93000003" lon="-8.43532640">
        <ele>374.00000</ele>
        <time>2020-09-23T08:06:38Z</time>
      </trkpt>
      <trkpt lat="40.92997438" lon="-8.43531039">
        <ele>374.00000</ele>
        <time>2020-09-23T08:06:39Z</time>
      </trkpt>
      <trkpt lat="40.92995200" lon="-8.43530000">
        <ele>374.00000</ele>
        <time>2020-09-23T08:06:40Z</time>
      </trkpt>
      <trkpt lat="40.92992643" lon="-8.43529522">
        <ele>374.00000</ele>
        <time>2020-09-23T08:06:41Z</time>
      </trkpt>
      <trkpt lat="40.92990078" lon="-8.43529522">
        <ele>374.00000</ele>
        <time>2020-09-23T08:06:42Z</time>
      </trkpt>
      <trkpt lat="40.92987840" lon="-8.43529757">
        <ele>374.00000</ele>
        <time>2020-09-23T08:06:43Z</time>
      </trkpt>
      <trkpt lat="40.92985276" lon="-8.43531039">
        <ele>375.00000</ele>
        <time>2020-09-23T08:06:44Z</time>
      </trkpt>
      <trkpt lat="40.92983356" lon="-8.43532481">
        <ele>375.00000</ele>
        <time>2020-09-23T08:06:45Z</time>
      </trkpt>
      <trkpt lat="40.92980800" lon="-8.43534400">
        <ele>375.00000</ele>
        <time>2020-09-23T08:06:46Z</time>
      </trkpt>
      <trkpt lat="40.92978562" lon="-8.43536403">
        <ele>375.00000</ele>
        <time>2020-09-23T08:06:47Z</time>
      </trkpt>
      <trkpt lat="40.92976642" lon="-8.43538323">
        <ele>376.00000</ele>
        <time>2020-09-23T08:06:48Z</time>
      </trkpt>
      <trkpt lat="40.92974723" lon="-8.43540402">
        <ele>376.00000</ele>
        <time>2020-09-23T08:06:49Z</time>
      </trkpt>
      <trkpt lat="40.92972476" lon="-8.43541516">
        <ele>376.00000</ele>
        <time>2020-09-23T08:06:50Z</time>
      </trkpt>
      <trkpt lat="40.92969920" lon="-8.43541843">
        <ele>376.00000</ele>
        <time>2020-09-23T08:06:51Z</time>
      </trkpt>
      <trkpt lat="40.92967364" lon="-8.43541600">
        <ele>377.00000</ele>
        <time>2020-09-23T08:06:52Z</time>
      </trkpt>
      <trkpt lat="40.92964162" lon="-8.43541600">
        <ele>377.00000</ele>
        <time>2020-09-23T08:06:53Z</time>
      </trkpt>
      <trkpt lat="40.92961597" lon="-8.43540963">
        <ele>377.00000</ele>
        <time>2020-09-23T08:06:54Z</time>
      </trkpt>
      <trkpt lat="40.92958722" lon="-8.43541122">
        <ele>378.00000</ele>
        <time>2020-09-23T08:06:55Z</time>
      </trkpt>
      <trkpt lat="40.92956157" lon="-8.43541600">
        <ele>378.00000</ele>
        <time>2020-09-23T08:06:56Z</time>
      </trkpt>
      <trkpt lat="40.92953919" lon="-8.43542883">
        <ele>378.00000</ele>
        <time>2020-09-23T08:06:57Z</time>
      </trkpt>
      <trkpt lat="40.92952318" lon="-8.43544878">
        <ele>379.00000</ele>
        <time>2020-09-23T08:06:58Z</time>
      </trkpt>
      <trkpt lat="40.92951999" lon="-8.43547359">
        <ele>379.00000</ele>
        <time>2020-09-23T08:06:59Z</time>
      </trkpt>
      <trkpt lat="40.92953600" lon="-8.43553201">
        <ele>378.00000</ele>
        <time>2020-09-23T08:07:01Z</time>
      </trkpt>
      <trkpt lat="40.92954883" lon="-8.43556721">
        <ele>378.00000</ele>
        <time>2020-09-23T08:07:02Z</time>
      </trkpt>
      <trkpt lat="40.92956157" lon="-8.43559680">
        <ele>379.00000</ele>
        <time>2020-09-23T08:07:03Z</time>
      </trkpt>
      <trkpt lat="40.92957758" lon="-8.43562480">
        <ele>379.00000</ele>
        <time>2020-09-23T08:07:04Z</time>
      </trkpt>
      <trkpt lat="40.92958722" lon="-8.43565681">
        <ele>379.00000</ele>
        <time>2020-09-23T08:07:05Z</time>
      </trkpt>
      <trkpt lat="40.92959996" lon="-8.43569202">
        <ele>379.00000</ele>
        <time>2020-09-23T08:07:06Z</time>
      </trkpt>
      <trkpt lat="40.92960641" lon="-8.43572722">
        <ele>379.00000</ele>
        <time>2020-09-23T08:07:07Z</time>
      </trkpt>
      <trkpt lat="40.92961924" lon="-8.43575279">
        <ele>379.00000</ele>
        <time>2020-09-23T08:07:08Z</time>
      </trkpt>
      <trkpt lat="40.92962561" lon="-8.43578162">
        <ele>379.00000</ele>
        <time>2020-09-23T08:07:09Z</time>
      </trkpt>
      <trkpt lat="40.92963516" lon="-8.43581196">
        <ele>379.00000</ele>
        <time>2020-09-23T08:07:10Z</time>
      </trkpt>
      <trkpt lat="40.92963843" lon="-8.43584557">
        <ele>379.00000</ele>
        <time>2020-09-23T08:07:11Z</time>
      </trkpt>
      <trkpt lat="40.92963516" lon="-8.43587516">
        <ele>379.00000</ele>
        <time>2020-09-23T08:07:12Z</time>
      </trkpt>
      <trkpt lat="40.92962879" lon="-8.43591037">
        <ele>379.00000</ele>
        <time>2020-09-23T08:07:13Z</time>
      </trkpt>
      <trkpt lat="40.92957758" lon="-8.43601682">
        <ele>381.00000</ele>
        <time>2020-09-23T08:07:17Z</time>
      </trkpt>
      <trkpt lat="40.92955838" lon="-8.43604884">
        <ele>381.00000</ele>
        <time>2020-09-23T08:07:18Z</time>
      </trkpt>
      <trkpt lat="40.92954237" lon="-8.43608002">
        <ele>382.00000</ele>
        <time>2020-09-23T08:07:19Z</time>
      </trkpt>
      <trkpt lat="40.92952963" lon="-8.43611120">
        <ele>382.00000</ele>
        <time>2020-09-23T08:07:20Z</time>
      </trkpt>
      <trkpt lat="40.92951999" lon="-8.43614162">
        <ele>383.00000</ele>
        <time>2020-09-23T08:07:21Z</time>
      </trkpt>
      <trkpt lat="40.92945923" lon="-8.43620876">
        <ele>385.00000</ele>
        <time>2020-09-23T08:07:24Z</time>
      </trkpt>
      <trkpt lat="40.92944322" lon="-8.43622963">
        <ele>385.00000</ele>
        <time>2020-09-23T08:07:25Z</time>
      </trkpt>
      <trkpt lat="40.92942721" lon="-8.43624883">
        <ele>386.00000</ele>
        <time>2020-09-23T08:07:26Z</time>
      </trkpt>
      <trkpt lat="40.92941438" lon="-8.43627196">
        <ele>386.00000</ele>
        <time>2020-09-23T08:07:27Z</time>
      </trkpt>
      <trkpt lat="40.92939519" lon="-8.43628797">
        <ele>387.00000</ele>
        <time>2020-09-23T08:07:28Z</time>
      </trkpt>
      <trkpt lat="40.92937918" lon="-8.43630800">
        <ele>387.00000</ele>
        <time>2020-09-23T08:07:29Z</time>
      </trkpt>
      <trkpt lat="40.92936317" lon="-8.43632963">
        <ele>388.00000</ele>
        <time>2020-09-23T08:07:30Z</time>
      </trkpt>
      <trkpt lat="40.92935043" lon="-8.43635436">
        <ele>388.00000</ele>
        <time>2020-09-23T08:07:31Z</time>
      </trkpt>
      <trkpt lat="40.92933760" lon="-8.43638956">
        <ele>389.00000</ele>
        <time>2020-09-23T08:07:32Z</time>
      </trkpt>
      <trkpt lat="40.92932478" lon="-8.43642317">
        <ele>389.00000</ele>
        <time>2020-09-23T08:07:33Z</time>
      </trkpt>
      <trkpt lat="40.92931841" lon="-8.43645838">
        <ele>389.00000</ele>
        <time>2020-09-23T08:07:34Z</time>
      </trkpt>
      <trkpt lat="40.92930877" lon="-8.43649283">
        <ele>390.00000</ele>
        <time>2020-09-23T08:07:35Z</time>
      </trkpt>
      <trkpt lat="40.92930240" lon="-8.43652803">
        <ele>390.00000</ele>
        <time>2020-09-23T08:07:36Z</time>
      </trkpt>
      <trkpt lat="40.92929922" lon="-8.43656156">
        <ele>390.00000</ele>
        <time>2020-09-23T08:07:37Z</time>
      </trkpt>
      <trkpt lat="40.92929603" lon="-8.43659282">
        <ele>390.00000</ele>
        <time>2020-09-23T08:07:38Z</time>
      </trkpt>
      <trkpt lat="40.92930240" lon="-8.43671360">
        <ele>391.00000</ele>
        <time>2020-09-23T08:07:42Z</time>
      </trkpt>
      <trkpt lat="40.92928958" lon="-8.43684319">
        <ele>392.00000</ele>
        <time>2020-09-23T08:07:46Z</time>
      </trkpt>
      <trkpt lat="40.92923199" lon="-8.43694956">
        <ele>394.00000</ele>
        <time>2020-09-23T08:07:49Z</time>
      </trkpt>
      <trkpt lat="40.92920643" lon="-8.43710076">
        <ele>396.00000</ele>
        <time>2020-09-23T08:07:53Z</time>
      </trkpt>
      <trkpt lat="40.92919042" lon="-8.43723043">
        <ele>397.00000</ele>
        <time>2020-09-23T08:07:57Z</time>
      </trkpt>
    </trkseg>
    <trkseg>
      <trkpt lat="40.92922562" lon="-8.43736002">
        <ele>399.00000</ele>
        <time>2020-09-23T08:08:02Z</time>
      </trkpt>
      <trkpt lat="40.92924800" lon="-8.43748876">
        <ele>400.00000</ele>
        <time>2020-09-23T08:08:07Z</time>
      </trkpt>
      <trkpt lat="40.92927684" lon="-8.43761122">
        <ele>402.00000</ele>
        <time>2020-09-23T08:08:13Z</time>
      </trkpt>
      <trkpt lat="40.92930877" lon="-8.43773444">
        <ele>404.00000</ele>
        <time>2020-09-23T08:08:20Z</time>
      </trkpt>
      <trkpt lat="40.92937918" lon="-8.43784558">
        <ele>405.00000</ele>
        <time>2020-09-23T08:08:27Z</time>
      </trkpt>
      <trkpt lat="40.92944959" lon="-8.43794558">
        <ele>406.00000</ele>
        <time>2020-09-23T08:08:34Z</time>
      </trkpt>
      <trkpt lat="40.92952318" lon="-8.43802638">
        <ele>408.00000</ele>
        <time>2020-09-23T08:08:40Z</time>
      </trkpt>
      <trkpt lat="40.92958722" lon="-8.43811363">
        <ele>410.00000</ele>
        <time>2020-09-23T08:08:46Z</time>
      </trkpt>
      <trkpt lat="40.92967682" lon="-8.43818480">
        <ele>413.00000</ele>
        <time>2020-09-23T08:08:55Z</time>
      </trkpt>
      <trkpt lat="40.92975678" lon="-8.43825361">
        <ele>416.00000</ele>
        <time>2020-09-23T08:09:05Z</time>
      </trkpt>
      <trkpt lat="40.92981764" lon="-8.43834238">
        <ele>420.00000</ele>
        <time>2020-09-23T08:09:14Z</time>
      </trkpt>
      <trkpt lat="40.92987522" lon="-8.43843441">
        <ele>425.00000</ele>
        <time>2020-09-23T08:09:23Z</time>
      </trkpt>
      <trkpt lat="40.92996155" lon="-8.43846718">
        <ele>426.00000</ele>
        <time>2020-09-23T08:09:37Z</time>
      </trkpt>
      <trkpt lat="40.93005116" lon="-8.43841999">
        <ele>423.00000</ele>
        <time>2020-09-23T08:09:45Z</time>
      </trkpt>
      <trkpt lat="40.93014076" lon="-8.43844480">
        <ele>423.00000</ele>
        <time>2020-09-23T08:09:56Z</time>
      </trkpt>
      <trkpt lat="40.93024956" lon="-8.43844958">
        <ele>421.00000</ele>
        <time>2020-09-23T08:10:07Z</time>
      </trkpt>
      <trkpt lat="40.93033916" lon="-8.43842159">
        <ele>419.00000</ele>
        <time>2020-09-23T08:10:11Z</time>
      </trkpt>
      <trkpt lat="40.93043521" lon="-8.43839443">
        <ele>416.00000</ele>
        <time>2020-09-23T08:10:15Z</time>
      </trkpt>
      <trkpt lat="40.93052800" lon="-8.43835520">
        <ele>413.00000</ele>
        <time>2020-09-23T08:10:22Z</time>
      </trkpt>
      <trkpt lat="40.93062079" lon="-8.43838722">
        <ele>413.00000</ele>
        <time>2020-09-23T08:10:30Z</time>
      </trkpt>
      <trkpt lat="40.93068801" lon="-8.43847439">
        <ele>414.00000</ele>
        <time>2020-09-23T08:10:43Z</time>
      </trkpt>
      <trkpt lat="40.93075842" lon="-8.43854958">
        <ele>415.00000</ele>
        <time>2020-09-23T08:10:53Z</time>
      </trkpt>
      <trkpt lat="40.93081919" lon="-8.43865200">
        <ele>417.00000</ele>
        <time>2020-09-23T08:11:07Z</time>
      </trkpt>
      <trkpt lat="40.93089278" lon="-8.43872157">
        <ele>419.00000</ele>
        <time>2020-09-23T08:11:25Z</time>
      </trkpt>
      <trkpt lat="40.93087040" lon="-8.43885116">
        <ele>423.00000</ele>
        <time>2020-09-23T08:11:45Z</time>
      </trkpt>
      <trkpt lat="40.93087040" lon="-8.43897362">
        <ele>427.00000</ele>
        <time>2020-09-23T08:12:00Z</time>
      </trkpt>
      <trkpt lat="40.93094718" lon="-8.43905199">
        <ele>430.00000</ele>
        <time>2020-09-23T08:12:15Z</time>
      </trkpt>
      <trkpt lat="40.93101440" lon="-8.43914318">
        <ele>432.00000</ele>
        <time>2020-09-23T08:12:33Z</time>
      </trkpt>
      <trkpt lat="40.93110401" lon="-8.43919197">
        <ele>433.00000</ele>
        <time>2020-09-23T08:12:43Z</time>
      </trkpt>
      <trkpt lat="40.93117760" lon="-8.43927042">
        <ele>434.00000</ele>
        <time>2020-09-23T08:13:08Z</time>
      </trkpt>
      <trkpt lat="40.93126720" lon="-8.43928559">
        <ele>433.00000</ele>
        <time>2020-09-23T08:13:22Z</time>
      </trkpt>
      <trkpt lat="40.93133443" lon="-8.43919842">
        <ele>429.00000</ele>
        <time>2020-09-23T08:13:33Z</time>
      </trkpt>
      <trkpt lat="40.93144322" lon="-8.43923362">
        <ele>428.00000</ele>
        <time>2020-09-23T08:13:41Z</time>
      </trkpt>
      <trkpt lat="40.93154557" lon="-8.43920722">
        <ele>426.00000</ele>
        <time>2020-09-23T08:13:46Z</time>
      </trkpt>
      <trkpt lat="40.93163198" lon="-8.43925282">
        <ele>426.00000</ele>
        <time>2020-09-23T08:13:52Z</time>
      </trkpt>
      <trkpt lat="40.93172159" lon="-8.43922080">
        <ele>424.00000</ele>
        <time>2020-09-23T08:13:58Z</time>
      </trkpt>
      <trkpt lat="40.93182083" lon="-8.43917361">
        <ele>422.00000</ele>
        <time>2020-09-23T08:14:02Z</time>
      </trkpt>
      <trkpt lat="40.93191999" lon="-8.43915198">
        <ele>421.00000</ele>
        <time>2020-09-23T08:14:06Z</time>
      </trkpt>
      <trkpt lat="40.93200322" lon="-8.43908317">
        <ele>419.00000</ele>
        <time>2020-09-23T08:14:10Z</time>
      </trkpt>
      <trkpt lat="40.93206080" lon="-8.43897119">
        <ele>416.00000</ele>
        <time>2020-09-23T08:14:14Z</time>
      </trkpt>
      <trkpt lat="40.93212476" lon="-8.43887681">
        <ele>414.00000</ele>
        <time>2020-09-23T08:14:21Z</time>
      </trkpt>
      <trkpt lat="40.93212476" lon="-8.43878477">
        <ele>412.00000</ele>
        <time>2020-09-23T08:14:25Z</time>
      </trkpt>
      <trkpt lat="40.93211520" lon="-8.43875041">
        <ele>412.00000</ele>
        <time>2020-09-23T08:14:27Z</time>
      </trkpt>
      <trkpt lat="40.93214403" lon="-8.43863516">
        <ele>410.00000</ele>
        <time>2020-09-23T08:14:39Z</time>
      </trkpt>
      <trkpt lat="40.93214403" lon="-8.43860800">
        <ele>410.00000</ele>
        <time>2020-09-23T08:14:41Z</time>
      </trkpt>
      <trkpt lat="40.93214076" lon="-8.43857036">
        <ele>409.00000</ele>
        <time>2020-09-23T08:14:43Z</time>
      </trkpt>
      <trkpt lat="40.93212157" lon="-8.43854798">
        <ele>409.00000</ele>
        <time>2020-09-23T08:14:45Z</time>
      </trkpt>
      <trkpt lat="40.93210238" lon="-8.43852720">
        <ele>408.00000</ele>
        <time>2020-09-23T08:14:46Z</time>
      </trkpt>
      <trkpt lat="40.93206399" lon="-8.43845679">
        <ele>407.00000</ele>
        <time>2020-09-23T08:14:51Z</time>
      </trkpt>
      <trkpt lat="40.93207681" lon="-8.43842796">
        <ele>406.00000</ele>
        <time>2020-09-23T08:14:53Z</time>
      </trkpt>
      <trkpt lat="40.93208963" lon="-8.43830483">
        <ele>404.00000</ele>
        <time>2020-09-23T08:15:00Z</time>
      </trkpt>
      <trkpt lat="40.93215040" lon="-8.43820877">
        <ele>401.00000</ele>
        <time>2020-09-23T08:15:09Z</time>
      </trkpt>
      <trkpt lat="40.93224001" lon="-8.43821841">
        <ele>400.00000</ele>
        <time>2020-09-23T08:15:21Z</time>
      </trkpt>
      <trkpt lat="40.93230723" lon="-8.43822159">
        <ele>399.00000</ele>
        <time>2020-09-23T08:15:29Z</time>
      </trkpt>
      <trkpt lat="40.93240002" lon="-8.43820961">
        <ele>396.00000</ele>
        <time>2020-09-23T08:15:42Z</time>
      </trkpt>
      <trkpt lat="40.93247998" lon="-8.43814641">
        <ele>394.00000</ele>
        <time>2020-09-23T08:15:49Z</time>
      </trkpt>
      <trkpt lat="40.93256321" lon="-8.43807038">
        <ele>391.00000</ele>
        <time>2020-09-23T08:15:56Z</time>
      </trkpt>
      <trkpt lat="40.93267838" lon="-8.43804482">
        <ele>389.00000</ele>
        <time>2020-09-23T08:16:02Z</time>
      </trkpt>
      <trkpt lat="40.93277117" lon="-8.43801842">
        <ele>388.00000</ele>
        <time>2020-09-23T08:16:10Z</time>
      </trkpt>
      <trkpt lat="40.93287041" lon="-8.43795681">
        <ele>387.00000</ele>
        <time>2020-09-23T08:16:15Z</time>
      </trkpt>
      <trkpt lat="40.93291517" lon="-8.43785279">
        <ele>385.00000</ele>
        <time>2020-09-23T08:16:20Z</time>
      </trkpt>
      <trkpt lat="40.93301760" lon="-8.43780962">
        <ele>383.00000</ele>
        <time>2020-09-23T08:16:26Z</time>
      </trkpt>
      <trkpt lat="40.93311357" lon="-8.43782563">
        <ele>383.00000</ele>
        <time>2020-09-23T08:16:31Z</time>
      </trkpt>
      <trkpt lat="40.93320317" lon="-8.43783443">
        <ele>382.00000</ele>
        <time>2020-09-23T08:16:36Z</time>
      </trkpt>
      <trkpt lat="40.93326075" lon="-8.43793837">
        <ele>385.00000</ele>
        <time>2020-09-23T08:16:47Z</time>
      </trkpt>
      <trkpt lat="40.93335036" lon="-8.43801280">
        <ele>386.00000</ele>
        <time>2020-09-23T08:16:52Z</time>
      </trkpt>
      <trkpt lat="40.93343359" lon="-8.43810877">
        <ele>388.00000</ele>
        <time>2020-09-23T08:16:57Z</time>
      </trkpt>
      <trkpt lat="40.93347843" lon="-8.43822000">
        <ele>391.00000</ele>
        <time>2020-09-23T08:17:07Z</time>
      </trkpt>
      <trkpt lat="40.93353920" lon="-8.43831120">
        <ele>392.00000</ele>
        <time>2020-09-23T08:17:45Z</time>
      </trkpt>
      <trkpt lat="40.93360961" lon="-8.43839200">
        <ele>394.00000</ele>
        <time>2020-09-23T08:17:50Z</time>
      </trkpt>
      <trkpt lat="40.93363836" lon="-8.43841362">
        <ele>394.00000</ele>
        <time>2020-09-23T08:17:52Z</time>
      </trkpt>
      <trkpt lat="40.93365755" lon="-8.43842963">
        <ele>394.00000</ele>
        <time>2020-09-23T08:17:55Z</time>
      </trkpt>
      <trkpt lat="40.93367038" lon="-8.43845997">
        <ele>395.00000</ele>
        <time>2020-09-23T08:17:59Z</time>
      </trkpt>
      <trkpt lat="40.93367683" lon="-8.43848722">
        <ele>395.00000</ele>
        <time>2020-09-23T08:18:02Z</time>
      </trkpt>
      <trkpt lat="40.93368639" lon="-8.43852158">
        <ele>396.00000</ele>
        <time>2020-09-23T08:18:08Z</time>
      </trkpt>
      <trkpt lat="40.93369276" lon="-8.43854723">
        <ele>396.00000</ele>
        <time>2020-09-23T08:18:11Z</time>
      </trkpt>
      <trkpt lat="40.93369603" lon="-8.43857841">
        <ele>397.00000</ele>
        <time>2020-09-23T08:18:15Z</time>
      </trkpt>
      <trkpt lat="40.93371841" lon="-8.43858160">
        <ele>397.00000</ele>
        <time>2020-09-23T08:18:18Z</time>
      </trkpt>
      <trkpt lat="40.93373760" lon="-8.43859836">
        <ele>397.00000</ele>
        <time>2020-09-23T08:18:21Z</time>
      </trkpt>
      <trkpt lat="40.93375043" lon="-8.43861680">
        <ele>397.00000</ele>
        <time>2020-09-23T08:18:23Z</time>
      </trkpt>
      <trkpt lat="40.93375680" lon="-8.43864002">
        <ele>397.00000</ele>
        <time>2020-09-23T08:18:25Z</time>
      </trkpt>
      <trkpt lat="40.93377280" lon="-8.43865276">
        <ele>397.00000</ele>
        <time>2020-09-23T08:18:27Z</time>
      </trkpt>
      <trkpt lat="40.93379200" lon="-8.43866156">
        <ele>397.00000</ele>
        <time>2020-09-23T08:18:29Z</time>
      </trkpt>
      <trkpt lat="40.93380801" lon="-8.43867841">
        <ele>397.00000</ele>
        <time>2020-09-23T08:18:31Z</time>
      </trkpt>
      <trkpt lat="40.93382402" lon="-8.43870162">
        <ele>397.00000</ele>
        <time>2020-09-23T08:18:33Z</time>
      </trkpt>
      <trkpt lat="40.93383357" lon="-8.43873281">
        <ele>397.00000</ele>
        <time>2020-09-23T08:18:36Z</time>
      </trkpt>
      <trkpt lat="40.93385277" lon="-8.43875996">
        <ele>397.00000</ele>
        <time>2020-09-23T08:18:38Z</time>
      </trkpt>
      <trkpt lat="40.93385595" lon="-8.43878402">
        <ele>398.00000</ele>
        <time>2020-09-23T08:18:40Z</time>
      </trkpt>
      <trkpt lat="40.93387196" lon="-8.43881042">
        <ele>398.00000</ele>
        <time>2020-09-23T08:18:43Z</time>
      </trkpt>
      <trkpt lat="40.93388479" lon="-8.43883523">
        <ele>398.00000</ele>
        <time>2020-09-23T08:18:46Z</time>
      </trkpt>
      <trkpt lat="40.93390398" lon="-8.43884403">
        <ele>398.00000</ele>
        <time>2020-09-23T08:18:48Z</time>
      </trkpt>
      <trkpt lat="40.93392636" lon="-8.43884403">
        <ele>397.00000</ele>
        <time>2020-09-23T08:18:51Z</time>
      </trkpt>
      <trkpt lat="40.93394882" lon="-8.43885040">
        <ele>397.00000</ele>
        <time>2020-09-23T08:18:53Z</time>
      </trkpt>
      <trkpt lat="40.93397439" lon="-8.43886482">
        <ele>396.00000</ele>
        <time>2020-09-23T08:18:55Z</time>
      </trkpt>
      <trkpt lat="40.93399677" lon="-8.43887119">
        <ele>396.00000</ele>
        <time>2020-09-23T08:18:57Z</time>
      </trkpt>
      <trkpt lat="40.93402242" lon="-8.43887362">
        <ele>395.00000</ele>
        <time>2020-09-23T08:18:59Z</time>
      </trkpt>
      <trkpt lat="40.93404798" lon="-8.43886641">
        <ele>395.00000</ele>
        <time>2020-09-23T08:19:01Z</time>
      </trkpt>
      <trkpt lat="40.93407682" lon="-8.43887840">
        <ele>394.00000</ele>
        <time>2020-09-23T08:19:03Z</time>
      </trkpt>
      <trkpt lat="40.93409283" lon="-8.43889039">
        <ele>394.00000</ele>
        <time>2020-09-23T08:19:04Z</time>
      </trkpt>
      <trkpt lat="40.93412158" lon="-8.43891603">
        <ele>394.00000</ele>
        <time>2020-09-23T08:19:06Z</time>
      </trkpt>
      <trkpt lat="40.93421118" lon="-8.43896482">
        <ele>393.00000</ele>
        <time>2020-09-23T08:19:12Z</time>
      </trkpt>
      <trkpt lat="40.93425602" lon="-8.43898477">
        <ele>393.00000</ele>
        <time>2020-09-23T08:19:15Z</time>
      </trkpt>
      <trkpt lat="40.93429123" lon="-8.43899122">
        <ele>392.00000</ele>
        <time>2020-09-23T08:19:17Z</time>
      </trkpt>
      <trkpt lat="40.93431042" lon="-8.43898963">
        <ele>392.00000</ele>
        <time>2020-09-23T08:19:18Z</time>
      </trkpt>
      <trkpt lat="40.93440958" lon="-8.43897596">
        <ele>391.00000</ele>
        <time>2020-09-23T08:19:24Z</time>
      </trkpt>
      <trkpt lat="40.93450237" lon="-8.43893841">
        <ele>388.00000</ele>
        <time>2020-09-23T08:19:44Z</time>
      </trkpt>
      <trkpt lat="40.93458241" lon="-8.43885518">
        <ele>385.00000</ele>
        <time>2020-09-23T08:19:55Z</time>
      </trkpt>
      <trkpt lat="40.93464000" lon="-8.43883121">
        <ele>384.00000</ele>
        <time>2020-09-23T08:20:10Z</time>
      </trkpt>
      <trkpt lat="40.93466238" lon="-8.43888636">
        <ele>385.00000</ele>
        <time>2020-09-23T08:20:52Z</time>
      </trkpt>
      <trkpt lat="40.93466556" lon="-8.43891520">
        <ele>385.00000</ele>
        <time>2020-09-23T08:20:54Z</time>
      </trkpt>
      <trkpt lat="40.93466556" lon="-8.43894956">
        <ele>385.00000</ele>
        <time>2020-09-23T08:20:56Z</time>
      </trkpt>
      <trkpt lat="40.93466556" lon="-8.43897596">
        <ele>386.00000</ele>
        <time>2020-09-23T08:20:57Z</time>
      </trkpt>
      <trkpt lat="40.93466883" lon="-8.43900480">
        <ele>386.00000</ele>
        <time>2020-09-23T08:20:58Z</time>
      </trkpt>
      <trkpt lat="40.93466556" lon="-8.43903196">
        <ele>387.00000</ele>
        <time>2020-09-23T08:20:59Z</time>
      </trkpt>
      <trkpt lat="40.93466238" lon="-8.43905601">
        <ele>387.00000</ele>
        <time>2020-09-23T08:21:00Z</time>
      </trkpt>
      <trkpt lat="40.93466238" lon="-8.43908719">
        <ele>388.00000</ele>
        <time>2020-09-23T08:21:02Z</time>
      </trkpt>
      <trkpt lat="40.93464964" lon="-8.43911837">
        <ele>388.00000</ele>
        <time>2020-09-23T08:21:05Z</time>
      </trkpt>
      <trkpt lat="40.93465919" lon="-8.43914318">
        <ele>389.00000</ele>
        <time>2020-09-23T08:21:08Z</time>
      </trkpt>
      <trkpt lat="40.93464637" lon="-8.43916481">
        <ele>389.00000</ele>
        <time>2020-09-23T08:21:10Z</time>
      </trkpt>
      <trkpt lat="40.93464637" lon="-8.43919356">
        <ele>390.00000</ele>
        <time>2020-09-23T08:21:12Z</time>
      </trkpt>
      <trkpt lat="40.93464000" lon="-8.43922717">
        <ele>390.00000</ele>
        <time>2020-09-23T08:21:15Z</time>
      </trkpt>
      <trkpt lat="40.93464318" lon="-8.43925198">
        <ele>390.00000</ele>
        <time>2020-09-23T08:21:17Z</time>
      </trkpt>
      <trkpt lat="40.93463036" lon="-8.43927277">
        <ele>391.00000</ele>
        <time>2020-09-23T08:21:20Z</time>
      </trkpt>
      <trkpt lat="40.93462080" lon="-8.43929523">
        <ele>392.00000</ele>
        <time>2020-09-23T08:21:23Z</time>
      </trkpt>
      <trkpt lat="40.93460479" lon="-8.43930797">
        <ele>392.00000</ele>
        <time>2020-09-23T08:21:29Z</time>
      </trkpt>
      <trkpt lat="40.93459197" lon="-8.43933203">
        <ele>393.00000</ele>
        <time>2020-09-23T08:21:31Z</time>
      </trkpt>
      <trkpt lat="40.93457923" lon="-8.43935675">
        <ele>393.00000</ele>
        <time>2020-09-23T08:21:33Z</time>
      </trkpt>
      <trkpt lat="40.93456640" lon="-8.43937838">
        <ele>394.00000</ele>
        <time>2020-09-23T08:21:34Z</time>
      </trkpt>
      <trkpt lat="40.93456959" lon="-8.43940562">
        <ele>394.00000</ele>
        <time>2020-09-23T08:21:36Z</time>
      </trkpt>
      <trkpt lat="40.93457277" lon="-8.43943278">
        <ele>395.00000</ele>
        <time>2020-09-23T08:21:49Z</time>
      </trkpt>
      <trkpt lat="40.93458241" lon="-8.43945516">
        <ele>395.00000</ele>
        <time>2020-09-23T08:21:51Z</time>
      </trkpt>
      <trkpt lat="40.93458560" lon="-8.43947997">
        <ele>395.00000</ele>
        <time>2020-09-23T08:21:53Z</time>
      </trkpt>
      <trkpt lat="40.93460161" lon="-8.43950637">
        <ele>395.00000</ele>
        <time>2020-09-23T08:21:55Z</time>
      </trkpt>
      <trkpt lat="40.93461116" lon="-8.43952883">
        <ele>394.00000</ele>
        <time>2020-09-23T08:21:57Z</time>
      </trkpt>
      <trkpt lat="40.93462080" lon="-8.43955121">
        <ele>394.00000</ele>
        <time>2020-09-23T08:22:10Z</time>
      </trkpt>
      <trkpt lat="40.93463363" lon="-8.43958399">
        <ele>394.00000</ele>
        <time>2020-09-23T08:22:13Z</time>
      </trkpt>
      <trkpt lat="40.93464318" lon="-8.43962321">
        <ele>394.00000</ele>
        <time>2020-09-23T08:22:15Z</time>
      </trkpt>
      <trkpt lat="40.93466238" lon="-8.43966001">
        <ele>394.00000</ele>
        <time>2020-09-23T08:22:17Z</time>
      </trkpt>
      <trkpt lat="40.93467202" lon="-8.43970879">
        <ele>394.00000</ele>
        <time>2020-09-23T08:22:19Z</time>
      </trkpt>
      <trkpt lat="40.93466556" lon="-8.43975196">
        <ele>394.00000</ele>
        <time>2020-09-23T08:22:21Z</time>
      </trkpt>
      <trkpt lat="40.93466238" lon="-8.43979999">
        <ele>394.00000</ele>
        <time>2020-09-23T08:22:23Z</time>
      </trkpt>
      <trkpt lat="40.93465919" lon="-8.43982480">
        <ele>394.00000</ele>
        <time>2020-09-23T08:22:24Z</time>
      </trkpt>
      <trkpt lat="40.93464964" lon="-8.43984802">
        <ele>394.00000</ele>
        <time>2020-09-23T08:22:25Z</time>
      </trkpt>
      <trkpt lat="40.93464318" lon="-8.43987358">
        <ele>395.00000</ele>
        <time>2020-09-23T08:22:26Z</time>
      </trkpt>
      <trkpt lat="40.93464000" lon="-8.43989999">
        <ele>395.00000</ele>
        <time>2020-09-23T08:22:27Z</time>
      </trkpt>
      <trkpt lat="40.93464000" lon="-8.43993360">
        <ele>395.00000</ele>
        <time>2020-09-23T08:22:28Z</time>
      </trkpt>
      <trkpt lat="40.93464000" lon="-8.43996075">
        <ele>395.00000</ele>
        <time>2020-09-23T08:22:29Z</time>
      </trkpt>
      <trkpt lat="40.93464318" lon="-8.43999043">
        <ele>395.00000</ele>
        <time>2020-09-23T08:22:30Z</time>
      </trkpt>
      <trkpt lat="40.93464318" lon="-8.44002001">
        <ele>394.00000</ele>
        <time>2020-09-23T08:22:31Z</time>
      </trkpt>
      <trkpt lat="40.93464000" lon="-8.44004801">
        <ele>394.00000</ele>
        <time>2020-09-23T08:22:32Z</time>
      </trkpt>
      <trkpt lat="40.93463036" lon="-8.44009679">
        <ele>394.00000</ele>
        <time>2020-09-23T08:22:34Z</time>
      </trkpt>
      <trkpt lat="40.93462399" lon="-8.44014323">
        <ele>394.00000</ele>
        <time>2020-09-23T08:22:36Z</time>
      </trkpt>
      <trkpt lat="40.93462080" lon="-8.44018639">
        <ele>394.00000</ele>
        <time>2020-09-23T08:22:38Z</time>
      </trkpt>
      <trkpt lat="40.93461116" lon="-8.44020877">
        <ele>394.00000</ele>
        <time>2020-09-23T08:22:39Z</time>
      </trkpt>
      <trkpt lat="40.93459842" lon="-8.44025119">
        <ele>394.00000</ele>
        <time>2020-09-23T08:22:41Z</time>
      </trkpt>
      <trkpt lat="40.93458560" lon="-8.44027122">
        <ele>394.00000</ele>
        <time>2020-09-23T08:22:42Z</time>
      </trkpt>
      <trkpt lat="40.93457277" lon="-8.44029041">
        <ele>395.00000</ele>
        <time>2020-09-23T08:22:43Z</time>
      </trkpt>
      <trkpt lat="40.93454402" lon="-8.44032160">
        <ele>395.00000</ele>
        <time>2020-09-23T08:22:45Z</time>
      </trkpt>
      <trkpt lat="40.93451838" lon="-8.44033517">
        <ele>395.00000</ele>
        <time>2020-09-23T08:22:47Z</time>
      </trkpt>
      <trkpt lat="40.93449281" lon="-8.44033836">
        <ele>396.00000</ele>
        <time>2020-09-23T08:22:48Z</time>
      </trkpt>
      <trkpt lat="40.93447362" lon="-8.44034004">
        <ele>396.00000</ele>
        <time>2020-09-23T08:22:49Z</time>
      </trkpt>
      <trkpt lat="40.93445442" lon="-8.44033836">
        <ele>396.00000</ele>
        <time>2020-09-23T08:22:50Z</time>
      </trkpt>
      <trkpt lat="40.93442559" lon="-8.44031522">
        <ele>397.00000</ele>
        <time>2020-09-23T08:22:52Z</time>
      </trkpt>
      <trkpt lat="40.93439357" lon="-8.44030156">
        <ele>398.00000</ele>
        <time>2020-09-23T08:22:54Z</time>
      </trkpt>
      <trkpt lat="40.93435518" lon="-8.44028882">
        <ele>400.00000</ele>
        <time>2020-09-23T08:22:56Z</time>
      </trkpt>
    </trkseg>
    <trkseg>
      <trkpt lat="40.93429441" lon="-8.44028480">
        <ele>401.00000</ele>
        <time>2020-09-23T08:22:59Z</time>
      </trkpt>
      <trkpt lat="40.93423356" lon="-8.44021758">
        <ele>403.00000</ele>
        <time>2020-09-23T08:23:03Z</time>
      </trkpt>
      <trkpt lat="40.93421436" lon="-8.44021523">
        <ele>404.00000</ele>
        <time>2020-09-23T08:23:04Z</time>
      </trkpt>
      <trkpt lat="40.93419517" lon="-8.44022160">
        <ele>404.00000</ele>
        <time>2020-09-23T08:23:05Z</time>
      </trkpt>
      <trkpt lat="40.93417279" lon="-8.44022638">
        <ele>405.00000</ele>
        <time>2020-09-23T08:23:06Z</time>
      </trkpt>
      <trkpt lat="40.93414077" lon="-8.44025119">
        <ele>405.00000</ele>
        <time>2020-09-23T08:23:08Z</time>
      </trkpt>
      <trkpt lat="40.93412476" lon="-8.44026401">
        <ele>405.00000</ele>
        <time>2020-09-23T08:23:09Z</time>
      </trkpt>
      <trkpt lat="40.93410884" lon="-8.44028480">
        <ele>405.00000</ele>
        <time>2020-09-23T08:23:10Z</time>
      </trkpt>
      <trkpt lat="40.93409283" lon="-8.44030642">
        <ele>406.00000</ele>
        <time>2020-09-23T08:23:11Z</time>
      </trkpt>
      <trkpt lat="40.93406399" lon="-8.44030961">
        <ele>406.00000</ele>
        <time>2020-09-23T08:23:13Z</time>
      </trkpt>
      <trkpt lat="40.93403516" lon="-8.44030156">
        <ele>407.00000</ele>
        <time>2020-09-23T08:23:15Z</time>
      </trkpt>
      <trkpt lat="40.93400641" lon="-8.44028480">
        <ele>407.00000</ele>
        <time>2020-09-23T08:23:17Z</time>
      </trkpt>
      <trkpt lat="40.93398403" lon="-8.44027038">
        <ele>408.00000</ele>
        <time>2020-09-23T08:23:19Z</time>
      </trkpt>
      <trkpt lat="40.93395520" lon="-8.44023518">
        <ele>409.00000</ele>
        <time>2020-09-23T08:23:21Z</time>
      </trkpt>
      <trkpt lat="40.93393282" lon="-8.44019117">
        <ele>409.00000</ele>
        <time>2020-09-23T08:23:23Z</time>
      </trkpt>
      <trkpt lat="40.93392318" lon="-8.44016795">
        <ele>410.00000</ele>
        <time>2020-09-23T08:23:24Z</time>
      </trkpt>
      <trkpt lat="40.93390717" lon="-8.44013200">
        <ele>410.00000</ele>
        <time>2020-09-23T08:23:26Z</time>
      </trkpt>
      <trkpt lat="40.93389761" lon="-8.44010643">
        <ele>411.00000</ele>
        <time>2020-09-23T08:23:27Z</time>
      </trkpt>
      <trkpt lat="40.93388797" lon="-8.44007844">
        <ele>411.00000</ele>
        <time>2020-09-23T08:23:28Z</time>
      </trkpt>
      <trkpt lat="40.93387523" lon="-8.44005036">
        <ele>411.00000</ele>
        <time>2020-09-23T08:23:29Z</time>
      </trkpt>
      <trkpt lat="40.93386559" lon="-8.44002563">
        <ele>412.00000</ele>
        <time>2020-09-23T08:23:30Z</time>
      </trkpt>
      <trkpt lat="40.93385277" lon="-8.44000644">
        <ele>412.00000</ele>
        <time>2020-09-23T08:23:31Z</time>
      </trkpt>
      <trkpt lat="40.93383039" lon="-8.43997039">
        <ele>412.00000</ele>
        <time>2020-09-23T08:23:33Z</time>
      </trkpt>
      <trkpt lat="40.93381438" lon="-8.43994961">
        <ele>412.00000</ele>
        <time>2020-09-23T08:23:34Z</time>
      </trkpt>
      <trkpt lat="40.93379200" lon="-8.43993443">
        <ele>413.00000</ele>
        <time>2020-09-23T08:23:35Z</time>
      </trkpt>
      <trkpt lat="40.93375680" lon="-8.43991683">
        <ele>413.00000</ele>
        <time>2020-09-23T08:23:37Z</time>
      </trkpt>
      <trkpt lat="40.93372478" lon="-8.43989202">
        <ele>413.00000</ele>
        <time>2020-09-23T08:23:39Z</time>
      </trkpt>
      <trkpt lat="40.93370558" lon="-8.43988322">
        <ele>414.00000</ele>
        <time>2020-09-23T08:23:40Z</time>
      </trkpt>
      <trkpt lat="40.93368639" lon="-8.43987836">
        <ele>414.00000</ele>
        <time>2020-09-23T08:23:41Z</time>
      </trkpt>
      <trkpt lat="40.93365437" lon="-8.43986478">
        <ele>414.00000</ele>
        <time>2020-09-23T08:23:43Z</time>
      </trkpt>
      <trkpt lat="40.93363517" lon="-8.43985841">
        <ele>415.00000</ele>
        <time>2020-09-23T08:23:44Z</time>
      </trkpt>
      <trkpt lat="40.93352956" lon="-8.43988163">
        <ele>416.00000</ele>
        <time>2020-09-23T08:23:49Z</time>
      </trkpt>
      <trkpt lat="40.93343359" lon="-8.43990803">
        <ele>418.00000</ele>
        <time>2020-09-23T08:23:53Z</time>
      </trkpt>
      <trkpt lat="40.93338238" lon="-8.43992798">
        <ele>419.00000</ele>
        <time>2020-09-23T08:23:55Z</time>
      </trkpt>
      <trkpt lat="40.93334080" lon="-8.43995195">
        <ele>419.00000</ele>
        <time>2020-09-23T08:23:57Z</time>
      </trkpt>
      <trkpt lat="40.93331842" lon="-8.43996796">
        <ele>419.00000</ele>
        <time>2020-09-23T08:23:58Z</time>
      </trkpt>
      <trkpt lat="40.93322882" lon="-8.44002798">
        <ele>420.00000</ele>
        <time>2020-09-23T08:24:02Z</time>
      </trkpt>
      <trkpt lat="40.93319999" lon="-8.44004156">
        <ele>420.00000</ele>
        <time>2020-09-23T08:24:03Z</time>
      </trkpt>
      <trkpt lat="40.93317442" lon="-8.44005522">
        <ele>420.00000</ele>
        <time>2020-09-23T08:24:04Z</time>
      </trkpt>
      <trkpt lat="40.93314877" lon="-8.44006637">
        <ele>420.00000</ele>
        <time>2020-09-23T08:24:05Z</time>
      </trkpt>
      <trkpt lat="40.93312321" lon="-8.44008321">
        <ele>420.00000</ele>
        <time>2020-09-23T08:24:06Z</time>
      </trkpt>
      <trkpt lat="40.93310083" lon="-8.44009679">
        <ele>420.00000</ele>
        <time>2020-09-23T08:24:07Z</time>
      </trkpt>
      <trkpt lat="40.93307836" lon="-8.44011842">
        <ele>420.00000</ele>
        <time>2020-09-23T08:24:08Z</time>
      </trkpt>
      <trkpt lat="40.93305598" lon="-8.44013677">
        <ele>421.00000</ele>
        <time>2020-09-23T08:24:09Z</time>
      </trkpt>
      <trkpt lat="40.93303679" lon="-8.44015756">
        <ele>420.00000</ele>
        <time>2020-09-23T08:24:10Z</time>
      </trkpt>
      <trkpt lat="40.93301760" lon="-8.44018396">
        <ele>420.00000</ele>
        <time>2020-09-23T08:24:11Z</time>
      </trkpt>
      <trkpt lat="40.93299522" lon="-8.44020643">
        <ele>420.00000</ele>
        <time>2020-09-23T08:24:12Z</time>
      </trkpt>
      <trkpt lat="40.93297921" lon="-8.44022881">
        <ele>420.00000</ele>
        <time>2020-09-23T08:24:13Z</time>
      </trkpt>
      <trkpt lat="40.93296001" lon="-8.44024876">
        <ele>420.00000</ele>
        <time>2020-09-23T08:24:14Z</time>
      </trkpt>
      <trkpt lat="40.93294400" lon="-8.44026477">
        <ele>420.00000</ele>
        <time>2020-09-23T08:24:15Z</time>
      </trkpt>
      <trkpt lat="40.93292481" lon="-8.44028002">
        <ele>420.00000</ele>
        <time>2020-09-23T08:24:16Z</time>
      </trkpt>
      <trkpt lat="40.93289597" lon="-8.44031120">
        <ele>421.00000</ele>
        <time>2020-09-23T08:24:18Z</time>
      </trkpt>
      <trkpt lat="40.93287996" lon="-8.44032956">
        <ele>421.00000</ele>
        <time>2020-09-23T08:24:19Z</time>
      </trkpt>
      <trkpt lat="40.93286396" lon="-8.44034481">
        <ele>421.00000</ele>
        <time>2020-09-23T08:24:20Z</time>
      </trkpt>
      <trkpt lat="40.93283839" lon="-8.44037842">
        <ele>421.00000</ele>
        <time>2020-09-23T08:24:22Z</time>
      </trkpt>
      <trkpt lat="40.93282557" lon="-8.44039519">
        <ele>421.00000</ele>
        <time>2020-09-23T08:24:23Z</time>
      </trkpt>
      <trkpt lat="40.93280319" lon="-8.44041598">
        <ele>421.00000</ele>
        <time>2020-09-23T08:24:25Z</time>
      </trkpt>
      <trkpt lat="40.93278399" lon="-8.44045361">
        <ele>421.00000</ele>
        <time>2020-09-23T08:24:27Z</time>
      </trkpt>
      <trkpt lat="40.93276480" lon="-8.44048077">
        <ele>421.00000</ele>
        <time>2020-09-23T08:24:29Z</time>
      </trkpt>
      <trkpt lat="40.93274560" lon="-8.44050717">
        <ele>421.00000</ele>
        <time>2020-09-23T08:24:31Z</time>
      </trkpt>
      <trkpt lat="40.93271358" lon="-8.44051203">
        <ele>422.00000</ele>
        <time>2020-09-23T08:24:33Z</time>
      </trkpt>
      <trkpt lat="40.93267838" lon="-8.44050717">
        <ele>423.00000</ele>
        <time>2020-09-23T08:24:35Z</time>
      </trkpt>
      <trkpt lat="40.93264636" lon="-8.44051840">
        <ele>423.00000</ele>
        <time>2020-09-23T08:24:37Z</time>
      </trkpt>
      <trkpt lat="40.93262398" lon="-8.44054003">
        <ele>424.00000</ele>
        <time>2020-09-23T08:24:39Z</time>
      </trkpt>
      <trkpt lat="40.93260797" lon="-8.44057196">
        <ele>424.00000</ele>
        <time>2020-09-23T08:24:41Z</time>
      </trkpt>
      <trkpt lat="40.93259196" lon="-8.44062083">
        <ele>425.00000</ele>
        <time>2020-09-23T08:24:43Z</time>
      </trkpt>
      <trkpt lat="40.93258559" lon="-8.44064799">
        <ele>425.00000</ele>
        <time>2020-09-23T08:24:44Z</time>
      </trkpt>
      <trkpt lat="40.93257604" lon="-8.44067280">
        <ele>425.00000</ele>
        <time>2020-09-23T08:24:46Z</time>
      </trkpt>
      <trkpt lat="40.93254720" lon="-8.44065838">
        <ele>426.00000</ele>
        <time>2020-09-23T08:24:48Z</time>
      </trkpt>
      <trkpt lat="40.93250881" lon="-8.44062158">
        <ele>427.00000</ele>
        <time>2020-09-23T08:24:50Z</time>
      </trkpt>
      <trkpt lat="40.93249599" lon="-8.44060482">
        <ele>427.00000</ele>
        <time>2020-09-23T08:24:51Z</time>
      </trkpt>
      <trkpt lat="40.93246079" lon="-8.44059677">
        <ele>428.00000</ele>
        <time>2020-09-23T08:24:53Z</time>
      </trkpt>
      <trkpt lat="40.93243841" lon="-8.44060717">
        <ele>429.00000</ele>
        <time>2020-09-23T08:24:55Z</time>
      </trkpt>
      <trkpt lat="40.93241921" lon="-8.44061437">
        <ele>429.00000</ele>
        <time>2020-09-23T08:24:57Z</time>
      </trkpt>
      <trkpt lat="40.93240957" lon="-8.44066081">
        <ele>430.00000</ele>
        <time>2020-09-23T08:24:59Z</time>
      </trkpt>
      <trkpt lat="40.93241603" lon="-8.44070557">
        <ele>430.00000</ele>
        <time>2020-09-23T08:25:01Z</time>
      </trkpt>
      <trkpt lat="40.93240957" lon="-8.44074320">
        <ele>430.00000</ele>
        <time>2020-09-23T08:25:03Z</time>
      </trkpt>
      <trkpt lat="40.93239356" lon="-8.44075997">
        <ele>431.00000</ele>
        <time>2020-09-23T08:25:06Z</time>
      </trkpt>
      <trkpt lat="40.93230723" lon="-8.44071043">
        <ele>433.00000</ele>
        <time>2020-09-23T08:25:12Z</time>
      </trkpt>
      <trkpt lat="40.93228803" lon="-8.44071043">
        <ele>434.00000</ele>
        <time>2020-09-23T08:25:14Z</time>
      </trkpt>
      <trkpt lat="40.93227521" lon="-8.44074320">
        <ele>434.00000</ele>
        <time>2020-09-23T08:25:17Z</time>
      </trkpt>
      <trkpt lat="40.93228158" lon="-8.44077036">
        <ele>434.00000</ele>
        <time>2020-09-23T08:25:18Z</time>
      </trkpt>
      <trkpt lat="40.93228477" lon="-8.44081839">
        <ele>434.00000</ele>
        <time>2020-09-23T08:25:20Z</time>
      </trkpt>
      <trkpt lat="40.93230077" lon="-8.44092157">
        <ele>435.00000</ele>
        <time>2020-09-23T08:25:25Z</time>
      </trkpt>
      <trkpt lat="40.93229440" lon="-8.44095116">
        <ele>436.00000</ele>
        <time>2020-09-23T08:25:27Z</time>
      </trkpt>
      <trkpt lat="40.93228477" lon="-8.44097681">
        <ele>437.00000</ele>
        <time>2020-09-23T08:25:29Z</time>
      </trkpt>
      <trkpt lat="40.93228158" lon="-8.44100958">
        <ele>438.00000</ele>
        <time>2020-09-23T08:25:32Z</time>
      </trkpt>
      <trkpt lat="40.93227521" lon="-8.44104319">
        <ele>438.00000</ele>
        <time>2020-09-23T08:25:35Z</time>
      </trkpt>
      <trkpt lat="40.93227840" lon="-8.44107597">
        <ele>439.00000</ele>
        <time>2020-09-23T08:25:37Z</time>
      </trkpt>
      <trkpt lat="40.93226876" lon="-8.44110639">
        <ele>440.00000</ele>
        <time>2020-09-23T08:25:40Z</time>
      </trkpt>
      <trkpt lat="40.93226557" lon="-8.44114319">
        <ele>440.00000</ele>
        <time>2020-09-23T08:25:43Z</time>
      </trkpt>
      <trkpt lat="40.93224319" lon="-8.44116238">
        <ele>442.00000</ele>
        <time>2020-09-23T08:25:46Z</time>
      </trkpt>
      <trkpt lat="40.93222081" lon="-8.44115518">
        <ele>442.00000</ele>
        <time>2020-09-23T08:25:48Z</time>
      </trkpt>
      <trkpt lat="40.93219843" lon="-8.44113523">
        <ele>443.00000</ele>
        <time>2020-09-23T08:25:50Z</time>
      </trkpt>
      <trkpt lat="40.93217597" lon="-8.44112316">
        <ele>443.00000</ele>
        <time>2020-09-23T08:25:52Z</time>
      </trkpt>
      <trkpt lat="40.93214076" lon="-8.44111603">
        <ele>444.00000</ele>
        <time>2020-09-23T08:25:55Z</time>
      </trkpt>
      <trkpt lat="40.93210238" lon="-8.44111519">
        <ele>445.00000</ele>
        <time>2020-09-23T08:25:57Z</time>
      </trkpt>
      <trkpt lat="40.93208318" lon="-8.44112240">
        <ele>446.00000</ele>
        <time>2020-09-23T08:25:58Z</time>
      </trkpt>
      <trkpt lat="40.93206399" lon="-8.44112718">
        <ele>446.00000</ele>
        <time>2020-09-23T08:25:59Z</time>
      </trkpt>
      <trkpt lat="40.93204479" lon="-8.44112718">
        <ele>447.00000</ele>
        <time>2020-09-23T08:26:00Z</time>
      </trkpt>
      <trkpt lat="40.93201923" lon="-8.44112483">
        <ele>447.00000</ele>
        <time>2020-09-23T08:26:01Z</time>
      </trkpt>
      <trkpt lat="40.93200003" lon="-8.44113363">
        <ele>448.00000</ele>
        <time>2020-09-23T08:26:02Z</time>
      </trkpt>
      <trkpt lat="40.93198075" lon="-8.44114319">
        <ele>449.00000</ele>
        <time>2020-09-23T08:26:03Z</time>
      </trkpt>
      <trkpt lat="40.93196156" lon="-8.44115518">
        <ele>449.00000</ele>
        <time>2020-09-23T08:26:04Z</time>
      </trkpt>
      <trkpt lat="40.93193918" lon="-8.44116959">
        <ele>450.00000</ele>
        <time>2020-09-23T08:26:06Z</time>
      </trkpt>
      <trkpt lat="40.93190716" lon="-8.44116004">
        <ele>451.00000</ele>
        <time>2020-09-23T08:26:08Z</time>
      </trkpt>
      <trkpt lat="40.93188478" lon="-8.44115518">
        <ele>451.00000</ele>
        <time>2020-09-23T08:26:10Z</time>
      </trkpt>
      <trkpt lat="40.93186559" lon="-8.44112961">
        <ele>452.00000</ele>
        <time>2020-09-23T08:26:13Z</time>
      </trkpt>
      <trkpt lat="40.93184639" lon="-8.44111603">
        <ele>452.00000</ele>
        <time>2020-09-23T08:26:15Z</time>
      </trkpt>
      <trkpt lat="40.93182083" lon="-8.44111117">
        <ele>453.00000</ele>
        <time>2020-09-23T08:26:17Z</time>
      </trkpt>
      <trkpt lat="40.93180163" lon="-8.44112240">
        <ele>454.00000</ele>
        <time>2020-09-23T08:26:19Z</time>
      </trkpt>
      <trkpt lat="40.93178235" lon="-8.44111997">
        <ele>454.00000</ele>
        <time>2020-09-23T08:26:20Z</time>
      </trkpt>
      <trkpt lat="40.93175997" lon="-8.44114000">
        <ele>455.00000</ele>
        <time>2020-09-23T08:26:22Z</time>
      </trkpt>
      <trkpt lat="40.93175042" lon="-8.44116322">
        <ele>455.00000</ele>
        <time>2020-09-23T08:26:23Z</time>
      </trkpt>
      <trkpt lat="40.93172796" lon="-8.44118317">
        <ele>455.00000</ele>
        <time>2020-09-23T08:26:25Z</time>
      </trkpt>
      <trkpt lat="40.93171203" lon="-8.44119440">
        <ele>456.00000</ele>
        <time>2020-09-23T08:26:26Z</time>
      </trkpt>
      <trkpt lat="40.93169921" lon="-8.44121360">
        <ele>456.00000</ele>
        <time>2020-09-23T08:26:27Z</time>
      </trkpt>
      <trkpt lat="40.93168320" lon="-8.44122961">
        <ele>456.00000</ele>
        <time>2020-09-23T08:26:28Z</time>
      </trkpt>
      <trkpt lat="40.93158722" lon="-8.44127202">
        <ele>457.00000</ele>
        <time>2020-09-23T08:26:34Z</time>
      </trkpt>
      <trkpt lat="40.93150081" lon="-8.44130479">
        <ele>458.00000</ele>
        <time>2020-09-23T08:26:39Z</time>
      </trkpt>
      <trkpt lat="40.93141120" lon="-8.44131359">
        <ele>459.00000</ele>
        <time>2020-09-23T08:26:44Z</time>
      </trkpt>
      <trkpt lat="40.93131523" lon="-8.44126322">
        <ele>460.00000</ele>
        <time>2020-09-23T08:26:49Z</time>
      </trkpt>
      <trkpt lat="40.93122236" lon="-8.44127361">
        <ele>460.00000</ele>
        <time>2020-09-23T08:26:54Z</time>
      </trkpt>
      <trkpt lat="40.93112957" lon="-8.44130798">
        <ele>460.00000</ele>
        <time>2020-09-23T08:26:59Z</time>
      </trkpt>
      <trkpt lat="40.93103041" lon="-8.44130957">
        <ele>461.00000</ele>
        <time>2020-09-23T08:27:04Z</time>
      </trkpt>
      <trkpt lat="40.93093436" lon="-8.44128157">
        <ele>462.00000</ele>
        <time>2020-09-23T08:27:10Z</time>
      </trkpt>
      <trkpt lat="40.93089915" lon="-8.44129683">
        <ele>463.00000</ele>
        <time>2020-09-23T08:27:12Z</time>
      </trkpt>
      <trkpt lat="40.93087040" lon="-8.44132323">
        <ele>464.00000</ele>
        <time>2020-09-23T08:27:14Z</time>
      </trkpt>
      <trkpt lat="40.93077443" lon="-8.44132323">
        <ele>465.00000</ele>
        <time>2020-09-23T08:27:18Z</time>
      </trkpt>
      <trkpt lat="40.93068156" lon="-8.44129440">
        <ele>467.00000</ele>
        <time>2020-09-23T08:27:22Z</time>
      </trkpt>
      <trkpt lat="40.93058877" lon="-8.44123682">
        <ele>468.00000</ele>
        <time>2020-09-23T08:27:27Z</time>
      </trkpt>
      <trkpt lat="40.93049917" lon="-8.44131359">
        <ele>469.00000</ele>
        <time>2020-09-23T08:27:33Z</time>
      </trkpt>
      <trkpt lat="40.93039356" lon="-8.44133363">
        <ele>470.00000</ele>
        <time>2020-09-23T08:27:38Z</time>
      </trkpt>
      <trkpt lat="40.93028803" lon="-8.44132323">
        <ele>470.00000</ele>
        <time>2020-09-23T08:27:43Z</time>
      </trkpt>
      <trkpt lat="40.93019843" lon="-8.44131359">
        <ele>470.00000</ele>
        <time>2020-09-23T08:27:46Z</time>
      </trkpt>
      <trkpt lat="40.93011838" lon="-8.44139683">
        <ele>470.00000</ele>
        <time>2020-09-23T08:27:50Z</time>
      </trkpt>
      <trkpt lat="40.93007680" lon="-8.44151518">
        <ele>469.00000</ele>
        <time>2020-09-23T08:27:54Z</time>
      </trkpt>
      <trkpt lat="40.93003196" lon="-8.44154560">
        <ele>469.00000</ele>
        <time>2020-09-23T08:27:56Z</time>
      </trkpt>
      <trkpt lat="40.92992643" lon="-8.44153521">
        <ele>469.00000</ele>
        <time>2020-09-23T08:28:00Z</time>
      </trkpt>
      <trkpt lat="40.92982719" lon="-8.44151677">
        <ele>469.00000</ele>
        <time>2020-09-23T08:28:04Z</time>
      </trkpt>
      <trkpt lat="40.92972476" lon="-8.44153521">
        <ele>469.00000</ele>
        <time>2020-09-23T08:28:08Z</time>
      </trkpt>
      <trkpt lat="40.92962561" lon="-8.44157276">
        <ele>471.00000</ele>
        <time>2020-09-23T08:28:12Z</time>
      </trkpt>
      <trkpt lat="40.92954237" lon="-8.44151040">
        <ele>472.00000</ele>
        <time>2020-09-23T08:28:17Z</time>
      </trkpt>
      <trkpt lat="40.92946560" lon="-8.44140563">
        <ele>474.00000</ele>
        <time>2020-09-23T08:28:21Z</time>
      </trkpt>
      <trkpt lat="40.92936635" lon="-8.44137277">
        <ele>475.00000</ele>
        <time>2020-09-23T08:28:25Z</time>
      </trkpt>
      <trkpt lat="40.92927038" lon="-8.44135676">
        <ele>476.00000</ele>
        <time>2020-09-23T08:28:30Z</time>
      </trkpt>
      <trkpt lat="40.92919042" lon="-8.44142164">
        <ele>476.00000</ele>
        <time>2020-09-23T08:28:36Z</time>
      </trkpt>
      <trkpt lat="40.92909763" lon="-8.44147042">
        <ele>476.00000</ele>
        <time>2020-09-23T08:28:44Z</time>
      </trkpt>
      <trkpt lat="40.92901121" lon="-8.44143681">
        <ele>476.00000</ele>
        <time>2020-09-23T08:28:55Z</time>
      </trkpt>
      <trkpt lat="40.92893117" lon="-8.44137922">
        <ele>477.00000</ele>
        <time>2020-09-23T08:28:59Z</time>
      </trkpt>
      <trkpt lat="40.92884483" lon="-8.44132156">
        <ele>477.00000</ele>
        <time>2020-09-23T08:29:05Z</time>
      </trkpt>
      <trkpt lat="40.92876479" lon="-8.44130320">
        <ele>476.00000</ele>
        <time>2020-09-23T08:29:10Z</time>
      </trkpt>
      <trkpt lat="40.92874559" lon="-8.44130001">
        <ele>476.00000</ele>
        <time>2020-09-23T08:29:12Z</time>
      </trkpt>
      <trkpt lat="40.92869438" lon="-8.44130722">
        <ele>476.00000</ele>
        <time>2020-09-23T08:29:18Z</time>
      </trkpt>
      <trkpt lat="40.92867518" lon="-8.44130320">
        <ele>476.00000</ele>
        <time>2020-09-23T08:29:20Z</time>
      </trkpt>
      <trkpt lat="40.92864962" lon="-8.44130320">
        <ele>476.00000</ele>
        <time>2020-09-23T08:29:24Z</time>
      </trkpt>
      <trkpt lat="40.92862715" lon="-8.44130479">
        <ele>476.00000</ele>
        <time>2020-09-23T08:29:26Z</time>
      </trkpt>
      <trkpt lat="40.92860477" lon="-8.44130001">
        <ele>476.00000</ele>
        <time>2020-09-23T08:29:28Z</time>
      </trkpt>
      <trkpt lat="40.92858558" lon="-8.44129440">
        <ele>476.00000</ele>
        <time>2020-09-23T08:29:29Z</time>
      </trkpt>
      <trkpt lat="40.92854719" lon="-8.44128719">
        <ele>476.00000</ele>
        <time>2020-09-23T08:29:31Z</time>
      </trkpt>
      <trkpt lat="40.92852481" lon="-8.44128719">
        <ele>475.00000</ele>
        <time>2020-09-23T08:29:32Z</time>
      </trkpt>
      <trkpt lat="40.92850562" lon="-8.44129197">
        <ele>475.00000</ele>
        <time>2020-09-23T08:29:33Z</time>
      </trkpt>
      <trkpt lat="40.92847678" lon="-8.44131443">
        <ele>475.00000</ele>
        <time>2020-09-23T08:29:35Z</time>
      </trkpt>
      <trkpt lat="40.92846723" lon="-8.44134083">
        <ele>475.00000</ele>
        <time>2020-09-23T08:29:36Z</time>
      </trkpt>
      <trkpt lat="40.92840956" lon="-8.44143521">
        <ele>474.00000</ele>
        <time>2020-09-23T08:29:41Z</time>
      </trkpt>
      <trkpt lat="40.92832960" lon="-8.44151518">
        <ele>473.00000</ele>
        <time>2020-09-23T08:29:44Z</time>
      </trkpt>
      <trkpt lat="40.92826883" lon="-8.44162004">
        <ele>473.00000</ele>
        <time>2020-09-23T08:29:49Z</time>
      </trkpt>
      <trkpt lat="40.92819197" lon="-8.44169036">
        <ele>472.00000</ele>
        <time>2020-09-23T08:29:53Z</time>
      </trkpt>
      <trkpt lat="40.92810882" lon="-8.44177602">
        <ele>471.00000</ele>
        <time>2020-09-23T08:29:59Z</time>
      </trkpt>
      <trkpt lat="40.92804478" lon="-8.44189681">
        <ele>470.00000</ele>
        <time>2020-09-23T08:30:04Z</time>
      </trkpt>
      <trkpt lat="40.92801922" lon="-8.44201843">
        <ele>470.00000</ele>
        <time>2020-09-23T08:30:08Z</time>
      </trkpt>
      <trkpt lat="40.92800958" lon="-8.44206562">
        <ele>470.00000</ele>
        <time>2020-09-23T08:30:10Z</time>
      </trkpt>
      <trkpt lat="40.92800002" lon="-8.44209202">
        <ele>470.00000</ele>
        <time>2020-09-23T08:30:11Z</time>
      </trkpt>
      <trkpt lat="40.92799684" lon="-8.44212161">
        <ele>470.00000</ele>
        <time>2020-09-23T08:30:12Z</time>
      </trkpt>
      <trkpt lat="40.92797756" lon="-8.44218556">
        <ele>469.00000</ele>
        <time>2020-09-23T08:30:14Z</time>
      </trkpt>
      <trkpt lat="40.92797119" lon="-8.44221842">
        <ele>469.00000</ele>
        <time>2020-09-23T08:30:15Z</time>
      </trkpt>
      <trkpt lat="40.92796800" lon="-8.44224642">
        <ele>469.00000</ele>
        <time>2020-09-23T08:30:16Z</time>
      </trkpt>
      <trkpt lat="40.92795836" lon="-8.44228003">
        <ele>468.00000</ele>
        <time>2020-09-23T08:30:17Z</time>
      </trkpt>
      <trkpt lat="40.92795199" lon="-8.44231121">
        <ele>468.00000</ele>
        <time>2020-09-23T08:30:18Z</time>
      </trkpt>
      <trkpt lat="40.92794562" lon="-8.44245839">
        <ele>466.00000</ele>
        <time>2020-09-23T08:30:23Z</time>
      </trkpt>
      <trkpt lat="40.92791042" lon="-8.44262318">
        <ele>463.00000</ele>
        <time>2020-09-23T08:30:27Z</time>
      </trkpt>
      <trkpt lat="40.92785602" lon="-8.44276559">
        <ele>461.00000</ele>
        <time>2020-09-23T08:30:30Z</time>
      </trkpt>
      <trkpt lat="40.92780799" lon="-8.44287036">
        <ele>460.00000</ele>
        <time>2020-09-23T08:30:33Z</time>
      </trkpt>
      <trkpt lat="40.92775359" lon="-8.44300003">
        <ele>458.00000</ele>
        <time>2020-09-23T08:30:37Z</time>
      </trkpt>
      <trkpt lat="40.92769282" lon="-8.44312878">
        <ele>456.00000</ele>
        <time>2020-09-23T08:30:41Z</time>
      </trkpt>
      <trkpt lat="40.92763516" lon="-8.44322483">
        <ele>454.00000</ele>
        <time>2020-09-23T08:30:45Z</time>
      </trkpt>
      <trkpt lat="40.92760322" lon="-8.44336322">
        <ele>453.00000</ele>
        <time>2020-09-23T08:30:50Z</time>
      </trkpt>
      <trkpt lat="40.92757757" lon="-8.44349197">
        <ele>451.00000</ele>
        <time>2020-09-23T08:30:53Z</time>
      </trkpt>
    </trkseg>
    <trkseg>
      <trkpt lat="40.92755838" lon="-8.44361677">
        <ele>449.00000</ele>
        <time>2020-09-23T08:30:57Z</time>
      </trkpt>
      <trkpt lat="40.92753918" lon="-8.44374158">
        <ele>447.00000</ele>
        <time>2020-09-23T08:31:02Z</time>
      </trkpt>
      <trkpt lat="40.92749761" lon="-8.44385599">
        <ele>444.00000</ele>
        <time>2020-09-23T08:31:07Z</time>
      </trkpt>
      <trkpt lat="40.92742402" lon="-8.44392883">
        <ele>442.00000</ele>
        <time>2020-09-23T08:31:12Z</time>
      </trkpt>
      <trkpt lat="40.92732159" lon="-8.44397518">
        <ele>439.00000</ele>
        <time>2020-09-23T08:31:17Z</time>
      </trkpt>
      <trkpt lat="40.92722243" lon="-8.44399203">
        <ele>437.00000</ele>
        <time>2020-09-23T08:31:22Z</time>
      </trkpt>
      <trkpt lat="40.92710400" lon="-8.44398323">
        <ele>436.00000</ele>
        <time>2020-09-23T08:31:27Z</time>
      </trkpt>
      <trkpt lat="40.92701439" lon="-8.44392959">
        <ele>436.00000</ele>
        <time>2020-09-23T08:31:33Z</time>
      </trkpt>
      <trkpt lat="40.92694080" lon="-8.44382322">
        <ele>438.00000</ele>
        <time>2020-09-23T08:31:38Z</time>
      </trkpt>
      <trkpt lat="40.92686721" lon="-8.44374401">
        <ele>437.00000</ele>
        <time>2020-09-23T08:31:42Z</time>
      </trkpt>
      <trkpt lat="40.92676159" lon="-8.44377041">
        <ele>434.00000</ele>
        <time>2020-09-23T08:31:48Z</time>
      </trkpt>
      <trkpt lat="40.92664643" lon="-8.44378642">
        <ele>431.00000</ele>
        <time>2020-09-23T08:31:52Z</time>
      </trkpt>
      <trkpt lat="40.92654081" lon="-8.44381358">
        <ele>429.00000</ele>
        <time>2020-09-23T08:31:56Z</time>
      </trkpt>
      <trkpt lat="40.92646077" lon="-8.44386882">
        <ele>427.00000</ele>
        <time>2020-09-23T08:32:00Z</time>
      </trkpt>
      <trkpt lat="40.92638717" lon="-8.44394476">
        <ele>424.00000</ele>
        <time>2020-09-23T08:32:05Z</time>
      </trkpt>
      <trkpt lat="40.92638080" lon="-8.44408717">
        <ele>421.00000</ele>
        <time>2020-09-23T08:32:12Z</time>
      </trkpt>
      <trkpt lat="40.92644803" lon="-8.44418800">
        <ele>420.00000</ele>
        <time>2020-09-23T08:32:18Z</time>
      </trkpt>
      <trkpt lat="40.92653118" lon="-8.44423519">
        <ele>420.00000</ele>
        <time>2020-09-23T08:32:24Z</time>
      </trkpt>
      <trkpt lat="40.92650243" lon="-8.44436796">
        <ele>417.00000</ele>
        <time>2020-09-23T08:32:32Z</time>
      </trkpt>
      <trkpt lat="40.92652481" lon="-8.44449838">
        <ele>414.00000</ele>
        <time>2020-09-23T08:32:37Z</time>
      </trkpt>
      <trkpt lat="40.92655682" lon="-8.44460961">
        <ele>411.00000</ele>
        <time>2020-09-23T08:32:41Z</time>
      </trkpt>
      <trkpt lat="40.92658557" lon="-8.44472955">
        <ele>408.00000</ele>
        <time>2020-09-23T08:32:46Z</time>
      </trkpt>
      <trkpt lat="40.92658557" lon="-8.44487917">
        <ele>405.00000</ele>
        <time>2020-09-23T08:32:51Z</time>
      </trkpt>
      <trkpt lat="40.92660795" lon="-8.44499995">
        <ele>404.00000</ele>
        <time>2020-09-23T08:32:55Z</time>
      </trkpt>
      <trkpt lat="40.92664316" lon="-8.44513121">
        <ele>402.00000</ele>
        <time>2020-09-23T08:32:59Z</time>
      </trkpt>
      <trkpt lat="40.92668482" lon="-8.44525359">
        <ele>400.00000</ele>
        <time>2020-09-23T08:33:05Z</time>
      </trkpt>
      <trkpt lat="40.92666562" lon="-8.44537521">
        <ele>398.00000</ele>
        <time>2020-09-23T08:33:11Z</time>
      </trkpt>
      <trkpt lat="40.92660158" lon="-8.44547437">
        <ele>395.00000</ele>
        <time>2020-09-23T08:33:22Z</time>
      </trkpt>
      <trkpt lat="40.92655037" lon="-8.44557437">
        <ele>393.00000</ele>
        <time>2020-09-23T08:33:27Z</time>
      </trkpt>
      <trkpt lat="40.92648642" lon="-8.44567839">
        <ele>390.00000</ele>
        <time>2020-09-23T08:33:30Z</time>
      </trkpt>
      <trkpt lat="40.92642883" lon="-8.44577042">
        <ele>388.00000</ele>
        <time>2020-09-23T08:33:33Z</time>
      </trkpt>
      <trkpt lat="40.92634560" lon="-8.44583362">
        <ele>386.00000</ele>
        <time>2020-09-23T08:33:39Z</time>
      </trkpt>
      <trkpt lat="40.92626882" lon="-8.44591677">
        <ele>383.00000</ele>
        <time>2020-09-23T08:33:47Z</time>
      </trkpt>
      <trkpt lat="40.92619196" lon="-8.44598961">
        <ele>380.00000</ele>
        <time>2020-09-23T08:33:52Z</time>
      </trkpt>
      <trkpt lat="40.92611200" lon="-8.44607359">
        <ele>377.00000</ele>
        <time>2020-09-23T08:33:58Z</time>
      </trkpt>
      <trkpt lat="40.92601921" lon="-8.44610477">
        <ele>375.00000</ele>
        <time>2020-09-23T08:34:02Z</time>
      </trkpt>
      <trkpt lat="40.92592642" lon="-8.44613201">
        <ele>373.00000</ele>
        <time>2020-09-23T08:34:07Z</time>
      </trkpt>
      <trkpt lat="40.92583363" lon="-8.44616479">
        <ele>370.00000</ele>
        <time>2020-09-23T08:34:12Z</time>
      </trkpt>
      <trkpt lat="40.92573439" lon="-8.44617996">
        <ele>369.00000</ele>
        <time>2020-09-23T08:34:16Z</time>
      </trkpt>
      <trkpt lat="40.92564797" lon="-8.44622162">
        <ele>367.00000</ele>
        <time>2020-09-23T08:34:19Z</time>
      </trkpt>
      <trkpt lat="40.92557757" lon="-8.44629680">
        <ele>364.00000</ele>
        <time>2020-09-23T08:34:25Z</time>
      </trkpt>
      <trkpt lat="40.92549123" lon="-8.44633201">
        <ele>363.00000</ele>
        <time>2020-09-23T08:34:34Z</time>
      </trkpt>
      <trkpt lat="40.92538881" lon="-8.44634802">
        <ele>364.00000</ele>
        <time>2020-09-23T08:34:46Z</time>
      </trkpt>
      <trkpt lat="40.92528956" lon="-8.44636562">
        <ele>365.00000</ele>
        <time>2020-09-23T08:34:52Z</time>
      </trkpt>
      <trkpt lat="40.92519359" lon="-8.44639680">
        <ele>365.00000</ele>
        <time>2020-09-23T08:34:58Z</time>
      </trkpt>
      <trkpt lat="40.92509762" lon="-8.44635682">
        <ele>367.00000</ele>
        <time>2020-09-23T08:35:07Z</time>
      </trkpt>
      <trkpt lat="40.92501120" lon="-8.44632161">
        <ele>369.00000</ele>
        <time>2020-09-23T08:35:15Z</time>
      </trkpt>
      <trkpt lat="40.92491523" lon="-8.44629202">
        <ele>370.00000</ele>
        <time>2020-09-23T08:35:27Z</time>
      </trkpt>
      <trkpt lat="40.92484164" lon="-8.44631684">
        <ele>371.00000</ele>
        <time>2020-09-23T08:35:32Z</time>
      </trkpt>
      <trkpt lat="40.92481917" lon="-8.44632161">
        <ele>371.00000</ele>
        <time>2020-09-23T08:35:35Z</time>
      </trkpt>
      <trkpt lat="40.92479361" lon="-8.44632564">
        <ele>371.00000</ele>
        <time>2020-09-23T08:35:37Z</time>
      </trkpt>
      <trkpt lat="40.92477123" lon="-8.44633276">
        <ele>371.00000</ele>
        <time>2020-09-23T08:35:39Z</time>
      </trkpt>
      <trkpt lat="40.92474876" lon="-8.44634642">
        <ele>371.00000</ele>
        <time>2020-09-23T08:35:40Z</time>
      </trkpt>
      <trkpt lat="40.92472957" lon="-8.44635522">
        <ele>371.00000</ele>
        <time>2020-09-23T08:35:41Z</time>
      </trkpt>
      <trkpt lat="40.92470400" lon="-8.44636796">
        <ele>371.00000</ele>
        <time>2020-09-23T08:35:42Z</time>
      </trkpt>
      <trkpt lat="40.92467517" lon="-8.44638800">
        <ele>372.00000</ele>
        <time>2020-09-23T08:35:44Z</time>
      </trkpt>
      <trkpt lat="40.92465598" lon="-8.44640803">
        <ele>372.00000</ele>
        <time>2020-09-23T08:35:46Z</time>
      </trkpt>
      <trkpt lat="40.92463678" lon="-8.44642639">
        <ele>372.00000</ele>
        <time>2020-09-23T08:35:48Z</time>
      </trkpt>
      <trkpt lat="40.92463360" lon="-8.44645036">
        <ele>371.00000</ele>
        <time>2020-09-23T08:35:50Z</time>
      </trkpt>
      <trkpt lat="40.92462396" lon="-8.44648640">
        <ele>370.00000</ele>
        <time>2020-09-23T08:35:52Z</time>
      </trkpt>
      <trkpt lat="40.92462077" lon="-8.44651683">
        <ele>369.00000</ele>
        <time>2020-09-23T08:35:54Z</time>
      </trkpt>
      <trkpt lat="40.92461759" lon="-8.44655035">
        <ele>368.00000</ele>
        <time>2020-09-23T08:35:56Z</time>
      </trkpt>
      <trkpt lat="40.92461122" lon="-8.44658397">
        <ele>368.00000</ele>
        <time>2020-09-23T08:35:58Z</time>
      </trkpt>
      <trkpt lat="40.92459521" lon="-8.44660400">
        <ele>368.00000</ele>
        <time>2020-09-23T08:35:59Z</time>
      </trkpt>
      <trkpt lat="40.92457601" lon="-8.44662160">
        <ele>367.00000</ele>
        <time>2020-09-23T08:36:03Z</time>
      </trkpt>
      <trkpt lat="40.92448960" lon="-8.44667122">
        <ele>368.00000</ele>
        <time>2020-09-23T08:36:15Z</time>
      </trkpt>
      <trkpt lat="40.92439362" lon="-8.44666158">
        <ele>370.00000</ele>
        <time>2020-09-23T08:36:22Z</time>
      </trkpt>
      <trkpt lat="40.92429438" lon="-8.44660157">
        <ele>373.00000</ele>
        <time>2020-09-23T08:36:27Z</time>
      </trkpt>
      <trkpt lat="40.92427200" lon="-8.44659117">
        <ele>373.00000</ele>
        <time>2020-09-23T08:36:28Z</time>
      </trkpt>
      <trkpt lat="40.92425281" lon="-8.44658480">
        <ele>374.00000</ele>
        <time>2020-09-23T08:36:29Z</time>
      </trkpt>
      <trkpt lat="40.92422397" lon="-8.44657843">
        <ele>374.00000</ele>
        <time>2020-09-23T08:36:31Z</time>
      </trkpt>
      <trkpt lat="40.92420478" lon="-8.44656880">
        <ele>375.00000</ele>
        <time>2020-09-23T08:36:32Z</time>
      </trkpt>
      <trkpt lat="40.92418558" lon="-8.44655999">
        <ele>375.00000</ele>
        <time>2020-09-23T08:36:33Z</time>
      </trkpt>
      <trkpt lat="40.92416639" lon="-8.44655035">
        <ele>375.00000</ele>
        <time>2020-09-23T08:36:34Z</time>
      </trkpt>
      <trkpt lat="40.92414082" lon="-8.44653518">
        <ele>376.00000</ele>
        <time>2020-09-23T08:36:35Z</time>
      </trkpt>
      <trkpt lat="40.92411518" lon="-8.44652638">
        <ele>376.00000</ele>
        <time>2020-09-23T08:36:36Z</time>
      </trkpt>
      <trkpt lat="40.92409598" lon="-8.44651683">
        <ele>377.00000</ele>
        <time>2020-09-23T08:36:37Z</time>
      </trkpt>
      <trkpt lat="40.92400638" lon="-8.44648481">
        <ele>378.00000</ele>
        <time>2020-09-23T08:36:42Z</time>
      </trkpt>
      <trkpt lat="40.92390077" lon="-8.44645681">
        <ele>380.00000</ele>
        <time>2020-09-23T08:36:48Z</time>
      </trkpt>
      <trkpt lat="40.92384000" lon="-8.44642639">
        <ele>381.00000</ele>
        <time>2020-09-23T08:36:52Z</time>
      </trkpt>
      <trkpt lat="40.92379515" lon="-8.44641038">
        <ele>381.00000</ele>
        <time>2020-09-23T08:36:55Z</time>
      </trkpt>
      <trkpt lat="40.92370237" lon="-8.44633519">
        <ele>383.00000</ele>
        <time>2020-09-23T08:37:05Z</time>
      </trkpt>
      <trkpt lat="40.92360002" lon="-8.44632639">
        <ele>383.00000</ele>
        <time>2020-09-23T08:37:13Z</time>
      </trkpt>
      <trkpt lat="40.92349760" lon="-8.44632161">
        <ele>382.00000</ele>
        <time>2020-09-23T08:37:26Z</time>
      </trkpt>
      <trkpt lat="40.92342082" lon="-8.44640803">
        <ele>380.00000</ele>
        <time>2020-09-23T08:37:33Z</time>
      </trkpt>
      <trkpt lat="40.92336324" lon="-8.44651758">
        <ele>377.00000</ele>
        <time>2020-09-23T08:37:39Z</time>
      </trkpt>
      <trkpt lat="40.92333122" lon="-8.44663602">
        <ele>374.00000</ele>
        <time>2020-09-23T08:37:46Z</time>
      </trkpt>
      <trkpt lat="40.92326399" lon="-8.44673518">
        <ele>371.00000</ele>
        <time>2020-09-23T08:37:56Z</time>
      </trkpt>
      <trkpt lat="40.92319996" lon="-8.44682159">
        <ele>367.00000</ele>
        <time>2020-09-23T08:38:01Z</time>
      </trkpt>
      <trkpt lat="40.92314556" lon="-8.44695202">
        <ele>363.00000</ele>
        <time>2020-09-23T08:38:06Z</time>
      </trkpt>
      <trkpt lat="40.92316484" lon="-8.44708797">
        <ele>360.00000</ele>
        <time>2020-09-23T08:38:11Z</time>
      </trkpt>
      <trkpt lat="40.92323843" lon="-8.44717523">
        <ele>360.00000</ele>
        <time>2020-09-23T08:38:18Z</time>
      </trkpt>
      <trkpt lat="40.92323843" lon="-8.44731118">
        <ele>357.00000</ele>
        <time>2020-09-23T08:38:29Z</time>
      </trkpt>
      <trkpt lat="40.92323197" lon="-8.44743842">
        <ele>353.00000</ele>
        <time>2020-09-23T08:38:34Z</time>
      </trkpt>
      <trkpt lat="40.92318722" lon="-8.44755442">
        <ele>350.00000</ele>
        <time>2020-09-23T08:38:38Z</time>
      </trkpt>
      <trkpt lat="40.92316484" lon="-8.44757362">
        <ele>349.00000</ele>
        <time>2020-09-23T08:38:39Z</time>
      </trkpt>
      <trkpt lat="40.92314883" lon="-8.44760321">
        <ele>348.00000</ele>
        <time>2020-09-23T08:38:40Z</time>
      </trkpt>
      <trkpt lat="40.92311035" lon="-8.44773279">
        <ele>345.00000</ele>
        <time>2020-09-23T08:38:44Z</time>
      </trkpt>
      <trkpt lat="40.92310398" lon="-8.44776640">
        <ele>344.00000</ele>
        <time>2020-09-23T08:38:45Z</time>
      </trkpt>
      <trkpt lat="40.92309443" lon="-8.44779842">
        <ele>343.00000</ele>
        <time>2020-09-23T08:38:46Z</time>
      </trkpt>
      <trkpt lat="40.92309443" lon="-8.44782642">
        <ele>342.00000</ele>
        <time>2020-09-23T08:38:47Z</time>
      </trkpt>
      <trkpt lat="40.92308797" lon="-8.44785282">
        <ele>341.00000</ele>
        <time>2020-09-23T08:38:48Z</time>
      </trkpt>
      <trkpt lat="40.92308797" lon="-8.44787679">
        <ele>341.00000</ele>
        <time>2020-09-23T08:38:49Z</time>
      </trkpt>
      <trkpt lat="40.92308797" lon="-8.44791761">
        <ele>340.00000</ele>
        <time>2020-09-23T08:38:51Z</time>
      </trkpt>
      <trkpt lat="40.92310080" lon="-8.44795038">
        <ele>339.00000</ele>
        <time>2020-09-23T08:38:53Z</time>
      </trkpt>
      <trkpt lat="40.92312318" lon="-8.44797679">
        <ele>338.00000</ele>
        <time>2020-09-23T08:38:55Z</time>
      </trkpt>
      <trkpt lat="40.92313919" lon="-8.44801124">
        <ele>337.00000</ele>
        <time>2020-09-23T08:38:57Z</time>
      </trkpt>
      <trkpt lat="40.92316157" lon="-8.44816320">
        <ele>333.00000</ele>
        <time>2020-09-23T08:39:03Z</time>
      </trkpt>
      <trkpt lat="40.92310717" lon="-8.44826160">
        <ele>331.00000</ele>
        <time>2020-09-23T08:39:06Z</time>
      </trkpt>
      <trkpt lat="40.92302083" lon="-8.44832799">
        <ele>330.00000</ele>
        <time>2020-09-23T08:39:13Z</time>
      </trkpt>
      <trkpt lat="40.92299200" lon="-8.44834316">
        <ele>330.00000</ele>
        <time>2020-09-23T08:39:15Z</time>
      </trkpt>
      <trkpt lat="40.92297281" lon="-8.44835842">
        <ele>329.00000</ele>
        <time>2020-09-23T08:39:18Z</time>
      </trkpt>
      <trkpt lat="40.92295043" lon="-8.44837359">
        <ele>329.00000</ele>
        <time>2020-09-23T08:39:20Z</time>
      </trkpt>
      <trkpt lat="40.92290558" lon="-8.44839437">
        <ele>328.00000</ele>
        <time>2020-09-23T08:39:23Z</time>
      </trkpt>
      <trkpt lat="40.92287683" lon="-8.44841675">
        <ele>327.00000</ele>
        <time>2020-09-23T08:39:25Z</time>
      </trkpt>
      <trkpt lat="40.92285437" lon="-8.44844559">
        <ele>327.00000</ele>
        <time>2020-09-23T08:39:27Z</time>
      </trkpt>
      <trkpt lat="40.92282562" lon="-8.44847283">
        <ele>326.00000</ele>
        <time>2020-09-23T08:39:29Z</time>
      </trkpt>
      <trkpt lat="40.92280643" lon="-8.44848163">
        <ele>326.00000</ele>
        <time>2020-09-23T08:39:30Z</time>
      </trkpt>
      <trkpt lat="40.92272956" lon="-8.44852798">
        <ele>325.00000</ele>
        <time>2020-09-23T08:39:39Z</time>
      </trkpt>
      <trkpt lat="40.92271037" lon="-8.44853678">
        <ele>324.00000</ele>
        <time>2020-09-23T08:39:41Z</time>
      </trkpt>
      <trkpt lat="40.92269436" lon="-8.44855036">
        <ele>324.00000</ele>
        <time>2020-09-23T08:39:45Z</time>
      </trkpt>
      <trkpt lat="40.92268480" lon="-8.44857676">
        <ele>324.00000</ele>
        <time>2020-09-23T08:40:15Z</time>
      </trkpt>
      <trkpt lat="40.92267843" lon="-8.44861683">
        <ele>323.00000</ele>
        <time>2020-09-23T08:40:17Z</time>
      </trkpt>
      <trkpt lat="40.92268799" lon="-8.44864156">
        <ele>323.00000</ele>
        <time>2020-09-23T08:40:18Z</time>
      </trkpt>
      <trkpt lat="40.92269436" lon="-8.44866880">
        <ele>323.00000</ele>
        <time>2020-09-23T08:40:19Z</time>
      </trkpt>
      <trkpt lat="40.92270718" lon="-8.44869520">
        <ele>324.00000</ele>
        <time>2020-09-23T08:40:20Z</time>
      </trkpt>
      <trkpt lat="40.92276804" lon="-8.44879520">
        <ele>324.00000</ele>
        <time>2020-09-23T08:40:30Z</time>
      </trkpt>
      <trkpt lat="40.92281280" lon="-8.44883115">
        <ele>324.00000</ele>
        <time>2020-09-23T08:40:33Z</time>
      </trkpt>
      <trkpt lat="40.92283199" lon="-8.44883602">
        <ele>324.00000</ele>
        <time>2020-09-23T08:40:34Z</time>
      </trkpt>
      <trkpt lat="40.92292796" lon="-8.44886963">
        <ele>324.00000</ele>
        <time>2020-09-23T08:40:38Z</time>
      </trkpt>
      <trkpt lat="40.92302402" lon="-8.44888723">
        <ele>324.00000</ele>
        <time>2020-09-23T08:40:42Z</time>
      </trkpt>
    </trkseg>
    <trkseg>
      <trkpt lat="40.92311362" lon="-8.44889997">
        <ele>322.00000</ele>
        <time>2020-09-23T08:40:45Z</time>
      </trkpt>
      <trkpt lat="40.92320641" lon="-8.44891523">
        <ele>321.00000</ele>
        <time>2020-09-23T08:40:48Z</time>
      </trkpt>
      <trkpt lat="40.92332158" lon="-8.44893836">
        <ele>318.00000</ele>
        <time>2020-09-23T08:40:52Z</time>
      </trkpt>
      <trkpt lat="40.92343037" lon="-8.44893358">
        <ele>316.00000</ele>
        <time>2020-09-23T08:40:56Z</time>
      </trkpt>
      <trkpt lat="40.92354236" lon="-8.44891196">
        <ele>313.00000</ele>
        <time>2020-09-23T08:41:00Z</time>
      </trkpt>
      <trkpt lat="40.92364797" lon="-8.44888723">
        <ele>310.00000</ele>
        <time>2020-09-23T08:41:04Z</time>
      </trkpt>
      <trkpt lat="40.92375677" lon="-8.44886720">
        <ele>306.00000</ele>
        <time>2020-09-23T08:41:08Z</time>
      </trkpt>
      <trkpt lat="40.92381443" lon="-8.44884959">
        <ele>304.00000</ele>
        <time>2020-09-23T08:41:10Z</time>
      </trkpt>
      <trkpt lat="40.92384000" lon="-8.44884716">
        <ele>303.00000</ele>
        <time>2020-09-23T08:41:11Z</time>
      </trkpt>
      <trkpt lat="40.92386238" lon="-8.44884959">
        <ele>302.00000</ele>
        <time>2020-09-23T08:41:12Z</time>
      </trkpt>
      <trkpt lat="40.92389758" lon="-8.44885597">
        <ele>301.00000</ele>
        <time>2020-09-23T08:41:13Z</time>
      </trkpt>
      <trkpt lat="40.92400638" lon="-8.44888002">
        <ele>299.00000</ele>
        <time>2020-09-23T08:41:17Z</time>
      </trkpt>
      <trkpt lat="40.92407360" lon="-8.44889997">
        <ele>298.00000</ele>
        <time>2020-09-23T08:41:19Z</time>
      </trkpt>
      <trkpt lat="40.92409917" lon="-8.44891841">
        <ele>297.00000</ele>
        <time>2020-09-23T08:41:20Z</time>
      </trkpt>
      <trkpt lat="40.92412163" lon="-8.44892478">
        <ele>297.00000</ele>
        <time>2020-09-23T08:41:21Z</time>
      </trkpt>
      <trkpt lat="40.92414719" lon="-8.44893199">
        <ele>297.00000</ele>
        <time>2020-09-23T08:41:22Z</time>
      </trkpt>
      <trkpt lat="40.92417276" lon="-8.44893836">
        <ele>296.00000</ele>
        <time>2020-09-23T08:41:23Z</time>
      </trkpt>
      <trkpt lat="40.92424644" lon="-8.44895998">
        <ele>296.00000</ele>
        <time>2020-09-23T08:41:26Z</time>
      </trkpt>
      <trkpt lat="40.92430084" lon="-8.44896803">
        <ele>296.00000</ele>
        <time>2020-09-23T08:41:28Z</time>
      </trkpt>
      <trkpt lat="40.92432640" lon="-8.44897356">
        <ele>296.00000</ele>
        <time>2020-09-23T08:41:29Z</time>
      </trkpt>
      <trkpt lat="40.92437761" lon="-8.44898002">
        <ele>296.00000</ele>
        <time>2020-09-23T08:41:31Z</time>
      </trkpt>
      <trkpt lat="40.92439999" lon="-8.44898798">
        <ele>296.00000</ele>
        <time>2020-09-23T08:41:32Z</time>
      </trkpt>
      <trkpt lat="40.92441919" lon="-8.44899997">
        <ele>296.00000</ele>
        <time>2020-09-23T08:41:33Z</time>
      </trkpt>
      <trkpt lat="40.92444157" lon="-8.44902796">
        <ele>296.00000</ele>
        <time>2020-09-23T08:41:36Z</time>
      </trkpt>
      <trkpt lat="40.92441282" lon="-8.44903358">
        <ele>296.00000</ele>
        <time>2020-09-23T08:41:38Z</time>
      </trkpt>
      <trkpt lat="40.92432003" lon="-8.44902721">
        <ele>296.00000</ele>
        <time>2020-09-23T08:41:41Z</time>
      </trkpt>
      <trkpt lat="40.92422716" lon="-8.44901204">
        <ele>296.00000</ele>
        <time>2020-09-23T08:41:44Z</time>
      </trkpt>
      <trkpt lat="40.92411518" lon="-8.44899837">
        <ele>297.00000</ele>
        <time>2020-09-23T08:41:48Z</time>
      </trkpt>
      <trkpt lat="40.92400319" lon="-8.44900156">
        <ele>298.00000</ele>
        <time>2020-09-23T08:41:52Z</time>
      </trkpt>
      <trkpt lat="40.92393916" lon="-8.44900324">
        <ele>299.00000</ele>
        <time>2020-09-23T08:41:54Z</time>
      </trkpt>
      <trkpt lat="40.92390722" lon="-8.44900324">
        <ele>300.00000</ele>
        <time>2020-09-23T08:41:55Z</time>
      </trkpt>
      <trkpt lat="40.92380798" lon="-8.44899678">
        <ele>303.00000</ele>
        <time>2020-09-23T08:41:58Z</time>
      </trkpt>
      <trkpt lat="40.92377923" lon="-8.44899200">
        <ele>304.00000</ele>
        <time>2020-09-23T08:41:59Z</time>
      </trkpt>
      <trkpt lat="40.92374721" lon="-8.44898798">
        <ele>306.00000</ele>
        <time>2020-09-23T08:42:00Z</time>
      </trkpt>
      <trkpt lat="40.92372156" lon="-8.44898723">
        <ele>307.00000</ele>
        <time>2020-09-23T08:42:01Z</time>
      </trkpt>
      <trkpt lat="40.92369600" lon="-8.44899200">
        <ele>308.00000</ele>
        <time>2020-09-23T08:42:02Z</time>
      </trkpt>
      <trkpt lat="40.92367043" lon="-8.44899443">
        <ele>308.00000</ele>
        <time>2020-09-23T08:42:03Z</time>
      </trkpt>
      <trkpt lat="40.92364478" lon="-8.44899997">
        <ele>309.00000</ele>
        <time>2020-09-23T08:42:04Z</time>
      </trkpt>
      <trkpt lat="40.92361922" lon="-8.44900324">
        <ele>310.00000</ele>
        <time>2020-09-23T08:42:05Z</time>
      </trkpt>
      <trkpt lat="40.92360002" lon="-8.44900961">
        <ele>311.00000</ele>
        <time>2020-09-23T08:42:06Z</time>
      </trkpt>
      <trkpt lat="40.92357119" lon="-8.44902000">
        <ele>312.00000</ele>
        <time>2020-09-23T08:42:07Z</time>
      </trkpt>
      <trkpt lat="40.92354881" lon="-8.44903676">
        <ele>312.00000</ele>
        <time>2020-09-23T08:42:08Z</time>
      </trkpt>
      <trkpt lat="40.92351998" lon="-8.44905202">
        <ele>313.00000</ele>
        <time>2020-09-23T08:42:09Z</time>
      </trkpt>
      <trkpt lat="40.92349123" lon="-8.44906719">
        <ele>313.00000</ele>
        <time>2020-09-23T08:42:10Z</time>
      </trkpt>
      <trkpt lat="40.92342082" lon="-8.44910323">
        <ele>315.00000</ele>
        <time>2020-09-23T08:42:13Z</time>
      </trkpt>
      <trkpt lat="40.92331839" lon="-8.44911840">
        <ele>317.00000</ele>
        <time>2020-09-23T08:42:17Z</time>
      </trkpt>
      <trkpt lat="40.92322879" lon="-8.44910323">
        <ele>319.00000</ele>
        <time>2020-09-23T08:42:20Z</time>
      </trkpt>
      <trkpt lat="40.92310717" lon="-8.44910558">
        <ele>320.00000</ele>
        <time>2020-09-23T08:42:24Z</time>
      </trkpt>
      <trkpt lat="40.92308479" lon="-8.44910558">
        <ele>321.00000</ele>
        <time>2020-09-23T08:42:25Z</time>
      </trkpt>
      <trkpt lat="40.92306559" lon="-8.44910642">
        <ele>321.00000</ele>
        <time>2020-09-23T08:42:26Z</time>
      </trkpt>
      <trkpt lat="40.92296317" lon="-8.44909275">
        <ele>322.00000</ele>
        <time>2020-09-23T08:42:31Z</time>
      </trkpt>
      <trkpt lat="40.92286719" lon="-8.44906317">
        <ele>323.00000</ele>
        <time>2020-09-23T08:42:35Z</time>
      </trkpt>
      <trkpt lat="40.92277441" lon="-8.44901363">
        <ele>323.00000</ele>
        <time>2020-09-23T08:42:39Z</time>
      </trkpt>
      <trkpt lat="40.92271682" lon="-8.44899360">
        <ele>323.00000</ele>
        <time>2020-09-23T08:42:41Z</time>
      </trkpt>
      <trkpt lat="40.92268480" lon="-8.44898479">
        <ele>322.00000</ele>
        <time>2020-09-23T08:42:42Z</time>
      </trkpt>
      <trkpt lat="40.92265279" lon="-8.44896962">
        <ele>322.00000</ele>
        <time>2020-09-23T08:42:43Z</time>
      </trkpt>
      <trkpt lat="40.92263359" lon="-8.44895202">
        <ele>322.00000</ele>
        <time>2020-09-23T08:42:44Z</time>
      </trkpt>
      <trkpt lat="40.92261440" lon="-8.44893199">
        <ele>322.00000</ele>
        <time>2020-09-23T08:42:45Z</time>
      </trkpt>
      <trkpt lat="40.92253762" lon="-8.44888958">
        <ele>322.00000</ele>
        <time>2020-09-23T08:42:48Z</time>
      </trkpt>
      <trkpt lat="40.92251842" lon="-8.44888002">
        <ele>322.00000</ele>
        <time>2020-09-23T08:42:49Z</time>
      </trkpt>
      <trkpt lat="40.92249277" lon="-8.44885597">
        <ele>321.00000</ele>
        <time>2020-09-23T08:42:50Z</time>
      </trkpt>
      <trkpt lat="40.92247040" lon="-8.44883518">
        <ele>321.00000</ele>
        <time>2020-09-23T08:42:51Z</time>
      </trkpt>
      <trkpt lat="40.92244802" lon="-8.44881364">
        <ele>321.00000</ele>
        <time>2020-09-23T08:42:52Z</time>
      </trkpt>
      <trkpt lat="40.92242882" lon="-8.44879520">
        <ele>321.00000</ele>
        <time>2020-09-23T08:42:53Z</time>
      </trkpt>
      <trkpt lat="40.92240963" lon="-8.44877357">
        <ele>320.00000</ele>
        <time>2020-09-23T08:42:54Z</time>
      </trkpt>
      <trkpt lat="40.92239043" lon="-8.44875597">
        <ele>320.00000</ele>
        <time>2020-09-23T08:42:55Z</time>
      </trkpt>
      <trkpt lat="40.92237115" lon="-8.44873518">
        <ele>320.00000</ele>
        <time>2020-09-23T08:42:56Z</time>
      </trkpt>
      <trkpt lat="40.92235196" lon="-8.44871121">
        <ele>320.00000</ele>
        <time>2020-09-23T08:42:57Z</time>
      </trkpt>
      <trkpt lat="40.92233276" lon="-8.44869042">
        <ele>320.00000</ele>
        <time>2020-09-23T08:42:58Z</time>
      </trkpt>
      <trkpt lat="40.92231038" lon="-8.44866159">
        <ele>319.00000</ele>
        <time>2020-09-23T08:42:59Z</time>
      </trkpt>
      <trkpt lat="40.92228800" lon="-8.44863519">
        <ele>319.00000</ele>
        <time>2020-09-23T08:43:00Z</time>
      </trkpt>
      <trkpt lat="40.92226881" lon="-8.44861038">
        <ele>319.00000</ele>
        <time>2020-09-23T08:43:01Z</time>
      </trkpt>
      <trkpt lat="40.92224962" lon="-8.44859118">
        <ele>319.00000</ele>
        <time>2020-09-23T08:43:02Z</time>
      </trkpt>
      <trkpt lat="40.92223361" lon="-8.44857760">
        <ele>319.00000</ele>
        <time>2020-09-23T08:43:03Z</time>
      </trkpt>
      <trkpt lat="40.92222078" lon="-8.44855036">
        <ele>318.00000</ele>
        <time>2020-09-23T08:43:05Z</time>
      </trkpt>
      <trkpt lat="40.92217275" lon="-8.44846562">
        <ele>318.00000</ele>
        <time>2020-09-23T08:43:14Z</time>
      </trkpt>
      <trkpt lat="40.92214719" lon="-8.44844643">
        <ele>317.00000</ele>
        <time>2020-09-23T08:43:15Z</time>
      </trkpt>
      <trkpt lat="40.92212162" lon="-8.44842639">
        <ele>317.00000</ele>
        <time>2020-09-23T08:43:16Z</time>
      </trkpt>
      <trkpt lat="40.92209598" lon="-8.44840561">
        <ele>316.00000</ele>
        <time>2020-09-23T08:43:17Z</time>
      </trkpt>
      <trkpt lat="40.92206723" lon="-8.44838557">
        <ele>316.00000</ele>
        <time>2020-09-23T08:43:18Z</time>
      </trkpt>
      <trkpt lat="40.92203839" lon="-8.44836160">
        <ele>316.00000</ele>
        <time>2020-09-23T08:43:19Z</time>
      </trkpt>
      <trkpt lat="40.92201283" lon="-8.44833201">
        <ele>315.00000</ele>
        <time>2020-09-23T08:43:20Z</time>
      </trkpt>
      <trkpt lat="40.92199363" lon="-8.44830318">
        <ele>316.00000</ele>
        <time>2020-09-23T08:43:21Z</time>
      </trkpt>
      <trkpt lat="40.92197762" lon="-8.44827443">
        <ele>316.00000</ele>
        <time>2020-09-23T08:43:22Z</time>
      </trkpt>
      <trkpt lat="40.92195843" lon="-8.44824476">
        <ele>316.00000</ele>
        <time>2020-09-23T08:43:23Z</time>
      </trkpt>
      <trkpt lat="40.92193923" lon="-8.44821676">
        <ele>316.00000</ele>
        <time>2020-09-23T08:43:24Z</time>
      </trkpt>
      <trkpt lat="40.92191996" lon="-8.44819203">
        <ele>316.00000</ele>
        <time>2020-09-23T08:43:25Z</time>
      </trkpt>
      <trkpt lat="40.92189439" lon="-8.44817519">
        <ele>316.00000</ele>
        <time>2020-09-23T08:43:26Z</time>
      </trkpt>
      <trkpt lat="40.92186883" lon="-8.44816236">
        <ele>316.00000</ele>
        <time>2020-09-23T08:43:27Z</time>
      </trkpt>
      <trkpt lat="40.92183681" lon="-8.44815356">
        <ele>315.00000</ele>
        <time>2020-09-23T08:43:28Z</time>
      </trkpt>
      <trkpt lat="40.92181116" lon="-8.44814878">
        <ele>315.00000</ele>
        <time>2020-09-23T08:43:29Z</time>
      </trkpt>
      <trkpt lat="40.92178241" lon="-8.44815515">
        <ele>315.00000</ele>
        <time>2020-09-23T08:43:30Z</time>
      </trkpt>
      <trkpt lat="40.92175676" lon="-8.44816479">
        <ele>315.00000</ele>
        <time>2020-09-23T08:43:31Z</time>
      </trkpt>
      <trkpt lat="40.92174083" lon="-8.44819363">
        <ele>314.00000</ele>
        <time>2020-09-23T08:43:32Z</time>
      </trkpt>
      <trkpt lat="40.92172156" lon="-8.44821835">
        <ele>314.00000</ele>
        <time>2020-09-23T08:43:33Z</time>
      </trkpt>
      <trkpt lat="40.92170236" lon="-8.44824316">
        <ele>313.00000</ele>
        <time>2020-09-23T08:43:34Z</time>
      </trkpt>
      <trkpt lat="40.92168317" lon="-8.44826320">
        <ele>313.00000</ele>
        <time>2020-09-23T08:43:35Z</time>
      </trkpt>
      <trkpt lat="40.92166079" lon="-8.44828717">
        <ele>313.00000</ele>
        <time>2020-09-23T08:43:36Z</time>
      </trkpt>
      <trkpt lat="40.92163841" lon="-8.44830720">
        <ele>312.00000</ele>
        <time>2020-09-23T08:43:37Z</time>
      </trkpt>
      <trkpt lat="40.92157437" lon="-8.44841843">
        <ele>311.00000</ele>
        <time>2020-09-23T08:43:41Z</time>
      </trkpt>
      <trkpt lat="40.92155836" lon="-8.44845036">
        <ele>310.00000</ele>
        <time>2020-09-23T08:43:42Z</time>
      </trkpt>
      <trkpt lat="40.92153917" lon="-8.44849999">
        <ele>310.00000</ele>
        <time>2020-09-23T08:43:44Z</time>
      </trkpt>
      <trkpt lat="40.92151997" lon="-8.44855279">
        <ele>309.00000</ele>
        <time>2020-09-23T08:43:46Z</time>
      </trkpt>
      <trkpt lat="40.92150723" lon="-8.44858397">
        <ele>309.00000</ele>
        <time>2020-09-23T08:43:47Z</time>
      </trkpt>
      <trkpt lat="40.92147521" lon="-8.44872638">
        <ele>309.00000</ele>
        <time>2020-09-23T08:43:51Z</time>
      </trkpt>
      <trkpt lat="40.92145602" lon="-8.44885597">
        <ele>311.00000</ele>
        <time>2020-09-23T08:43:55Z</time>
      </trkpt>
      <trkpt lat="40.92145920" lon="-8.44899360">
        <ele>313.00000</ele>
        <time>2020-09-23T08:44:00Z</time>
      </trkpt>
      <trkpt lat="40.92141763" lon="-8.44910155">
        <ele>314.00000</ele>
        <time>2020-09-23T08:44:04Z</time>
      </trkpt>
      <trkpt lat="40.92134077" lon="-8.44917842">
        <ele>316.00000</ele>
        <time>2020-09-23T08:44:09Z</time>
      </trkpt>
      <trkpt lat="40.92124479" lon="-8.44916643">
        <ele>318.00000</ele>
        <time>2020-09-23T08:44:14Z</time>
      </trkpt>
      <trkpt lat="40.92114882" lon="-8.44913282">
        <ele>319.00000</ele>
        <time>2020-09-23T08:44:22Z</time>
      </trkpt>
      <trkpt lat="40.92104958" lon="-8.44911916">
        <ele>321.00000</ele>
        <time>2020-09-23T08:44:32Z</time>
      </trkpt>
      <trkpt lat="40.92095998" lon="-8.44905436">
        <ele>322.00000</ele>
        <time>2020-09-23T08:44:38Z</time>
      </trkpt>
      <trkpt lat="40.92094397" lon="-8.44904322">
        <ele>322.00000</ele>
        <time>2020-09-23T08:44:39Z</time>
      </trkpt>
      <trkpt lat="40.92089921" lon="-8.44903442">
        <ele>323.00000</ele>
        <time>2020-09-23T08:44:43Z</time>
      </trkpt>
      <trkpt lat="40.92088001" lon="-8.44902955">
        <ele>323.00000</ele>
        <time>2020-09-23T08:44:44Z</time>
      </trkpt>
      <trkpt lat="40.92085118" lon="-8.44900961">
        <ele>323.00000</ele>
        <time>2020-09-23T08:44:46Z</time>
      </trkpt>
      <trkpt lat="40.92082561" lon="-8.44898161">
        <ele>324.00000</ele>
        <time>2020-09-23T08:44:48Z</time>
      </trkpt>
      <trkpt lat="40.92075839" lon="-8.44894004">
        <ele>325.00000</ele>
        <time>2020-09-23T08:44:52Z</time>
      </trkpt>
      <trkpt lat="40.92072637" lon="-8.44894716">
        <ele>326.00000</ele>
        <time>2020-09-23T08:44:53Z</time>
      </trkpt>
      <trkpt lat="40.92070718" lon="-8.44894800">
        <ele>326.00000</ele>
        <time>2020-09-23T08:44:54Z</time>
      </trkpt>
      <trkpt lat="40.92068161" lon="-8.44894959">
        <ele>327.00000</ele>
        <time>2020-09-23T08:44:56Z</time>
      </trkpt>
      <trkpt lat="40.92065923" lon="-8.44894716">
        <ele>328.00000</ele>
        <time>2020-09-23T08:44:58Z</time>
      </trkpt>
      <trkpt lat="40.92062721" lon="-8.44895202">
        <ele>329.00000</ele>
        <time>2020-09-23T08:45:00Z</time>
      </trkpt>
      <trkpt lat="40.92059838" lon="-8.44895202">
        <ele>329.00000</ele>
        <time>2020-09-23T08:45:02Z</time>
      </trkpt>
      <trkpt lat="40.92057282" lon="-8.44894004">
        <ele>330.00000</ele>
        <time>2020-09-23T08:45:04Z</time>
      </trkpt>
      <trkpt lat="40.92055362" lon="-8.44893358">
        <ele>330.00000</ele>
        <time>2020-09-23T08:45:05Z</time>
      </trkpt>
      <trkpt lat="40.92052160" lon="-8.44891363">
        <ele>330.00000</ele>
        <time>2020-09-23T08:45:07Z</time>
      </trkpt>
      <trkpt lat="40.92050241" lon="-8.44890802">
        <ele>330.00000</ele>
        <time>2020-09-23T08:45:08Z</time>
      </trkpt>
      <trkpt lat="40.92047039" lon="-8.44889678">
        <ele>331.00000</ele>
        <time>2020-09-23T08:45:10Z</time>
      </trkpt>
      <trkpt lat="40.92045119" lon="-8.44889201">
        <ele>331.00000</ele>
        <time>2020-09-23T08:45:11Z</time>
      </trkpt>
      <trkpt lat="40.92042236" lon="-8.44888321">
        <ele>331.00000</ele>
        <time>2020-09-23T08:45:13Z</time>
      </trkpt>
      <trkpt lat="40.92039998" lon="-8.44887600">
        <ele>331.00000</ele>
        <time>2020-09-23T08:45:15Z</time>
      </trkpt>
      <trkpt lat="40.92038079" lon="-8.44886879">
        <ele>331.00000</ele>
        <time>2020-09-23T08:45:16Z</time>
      </trkpt>
      <trkpt lat="40.92034877" lon="-8.44886317">
        <ele>331.00000</ele>
        <time>2020-09-23T08:45:18Z</time>
      </trkpt>
      <trkpt lat="40.92032957" lon="-8.44886242">
        <ele>331.00000</ele>
        <time>2020-09-23T08:45:19Z</time>
      </trkpt>
      <trkpt lat="40.92030082" lon="-8.44885521">
        <ele>332.00000</ele>
        <time>2020-09-23T08:45:21Z</time>
      </trkpt>
      <trkpt lat="40.92028163" lon="-8.44885119">
        <ele>332.00000</ele>
        <time>2020-09-23T08:45:22Z</time>
      </trkpt>
      <trkpt lat="40.92022078" lon="-8.44884716">
        <ele>332.00000</ele>
        <time>2020-09-23T08:45:26Z</time>
      </trkpt>
      <trkpt lat="40.92020158" lon="-8.44884322">
        <ele>332.00000</ele>
        <time>2020-09-23T08:45:27Z</time>
      </trkpt>
      <trkpt lat="40.92016956" lon="-8.44884876">
        <ele>332.00000</ele>
        <time>2020-09-23T08:45:29Z</time>
      </trkpt>
      <trkpt lat="40.92015037" lon="-8.44885362">
        <ele>332.00000</ele>
        <time>2020-09-23T08:45:31Z</time>
      </trkpt>
      <trkpt lat="40.92012162" lon="-8.44885119">
        <ele>332.00000</ele>
        <time>2020-09-23T08:45:33Z</time>
      </trkpt>
      <trkpt lat="40.92009597" lon="-8.44884716">
        <ele>332.00000</ele>
        <time>2020-09-23T08:45:34Z</time>
      </trkpt>
      <trkpt lat="40.92007678" lon="-8.44885119">
        <ele>332.00000</ele>
        <time>2020-09-23T08:45:35Z</time>
      </trkpt>
      <trkpt lat="40.92004803" lon="-8.44885521">
        <ele>332.00000</ele>
        <time>2020-09-23T08:45:37Z</time>
      </trkpt>
      <trkpt lat="40.92000964" lon="-8.44884482">
        <ele>332.00000</ele>
        <time>2020-09-23T08:45:39Z</time>
      </trkpt>
      <trkpt lat="40.91998717" lon="-8.44883518">
        <ele>332.00000</ele>
        <time>2020-09-23T08:45:41Z</time>
      </trkpt>
      <trkpt lat="40.91996479" lon="-8.44882319">
        <ele>332.00000</ele>
        <time>2020-09-23T08:45:43Z</time>
      </trkpt>
      <trkpt lat="40.91994560" lon="-8.44881364">
        <ele>332.00000</ele>
        <time>2020-09-23T08:45:44Z</time>
      </trkpt>
      <trkpt lat="40.91992640" lon="-8.44880643">
        <ele>332.00000</ele>
        <time>2020-09-23T08:45:45Z</time>
      </trkpt>
      <trkpt lat="40.91990721" lon="-8.44879997">
        <ele>333.00000</ele>
        <time>2020-09-23T08:45:46Z</time>
      </trkpt>
      <trkpt lat="40.91987838" lon="-8.44878640">
        <ele>333.00000</ele>
        <time>2020-09-23T08:45:47Z</time>
      </trkpt>
      <trkpt lat="40.91985600" lon="-8.44877122">
        <ele>333.00000</ele>
        <time>2020-09-23T08:45:48Z</time>
      </trkpt>
      <trkpt lat="40.91982716" lon="-8.44875362">
        <ele>333.00000</ele>
        <time>2020-09-23T08:45:49Z</time>
      </trkpt>
      <trkpt lat="40.91980478" lon="-8.44873996">
        <ele>334.00000</ele>
        <time>2020-09-23T08:45:50Z</time>
      </trkpt>
      <trkpt lat="40.91977603" lon="-8.44872881">
        <ele>334.00000</ele>
        <time>2020-09-23T08:45:51Z</time>
      </trkpt>
      <trkpt lat="40.91974720" lon="-8.44871356">
        <ele>335.00000</ele>
        <time>2020-09-23T08:45:52Z</time>
      </trkpt>
      <trkpt lat="40.91972482" lon="-8.44870157">
        <ele>335.00000</ele>
        <time>2020-09-23T08:45:53Z</time>
      </trkpt>
      <trkpt lat="40.91969599" lon="-8.44868640">
        <ele>335.00000</ele>
        <time>2020-09-23T08:45:54Z</time>
      </trkpt>
      <trkpt lat="40.91967361" lon="-8.44867844">
        <ele>335.00000</ele>
        <time>2020-09-23T08:45:55Z</time>
      </trkpt>
      <trkpt lat="40.91965123" lon="-8.44867676">
        <ele>335.00000</ele>
        <time>2020-09-23T08:45:56Z</time>
      </trkpt>
      <trkpt lat="40.91962876" lon="-8.44868003">
        <ele>336.00000</ele>
        <time>2020-09-23T08:45:58Z</time>
      </trkpt>
      <trkpt lat="40.91960638" lon="-8.44867123">
        <ele>336.00000</ele>
        <time>2020-09-23T08:46:02Z</time>
      </trkpt>
      <trkpt lat="40.91949122" lon="-8.44864399">
        <ele>336.00000</ele>
        <time>2020-09-23T08:46:25Z</time>
      </trkpt>
      <trkpt lat="40.91940161" lon="-8.44862161">
        <ele>336.00000</ele>
        <time>2020-09-23T08:46:28Z</time>
      </trkpt>
      <trkpt lat="40.91931838" lon="-8.44857039">
        <ele>334.00000</ele>
        <time>2020-09-23T08:46:31Z</time>
      </trkpt>
      <trkpt lat="40.91923196" lon="-8.44848557">
        <ele>331.00000</ele>
        <time>2020-09-23T08:46:35Z</time>
      </trkpt>
      <trkpt lat="40.91913918" lon="-8.44845280">
        <ele>329.00000</ele>
        <time>2020-09-23T08:46:38Z</time>
      </trkpt>
      <trkpt lat="40.91903683" lon="-8.44843276">
        <ele>327.00000</ele>
        <time>2020-09-23T08:46:41Z</time>
      </trkpt>
      <trkpt lat="40.91895041" lon="-8.44841918">
        <ele>326.00000</ele>
        <time>2020-09-23T08:46:44Z</time>
      </trkpt>
      <trkpt lat="40.91891521" lon="-8.44841038">
        <ele>325.00000</ele>
        <time>2020-09-23T08:46:45Z</time>
      </trkpt>
      <trkpt lat="40.91888956" lon="-8.44839680">
        <ele>325.00000</ele>
        <time>2020-09-23T08:46:46Z</time>
      </trkpt>
      <trkpt lat="40.91887037" lon="-8.44839043">
        <ele>325.00000</ele>
        <time>2020-09-23T08:46:47Z</time>
      </trkpt>
      <trkpt lat="40.91884162" lon="-8.44837920">
        <ele>324.00000</ele>
        <time>2020-09-23T08:46:48Z</time>
      </trkpt>
      <trkpt lat="40.91881278" lon="-8.44836797">
        <ele>324.00000</ele>
        <time>2020-09-23T08:46:49Z</time>
      </trkpt>
      <trkpt lat="40.91878403" lon="-8.44836722">
        <ele>324.00000</ele>
        <time>2020-09-23T08:46:50Z</time>
      </trkpt>
      <trkpt lat="40.91876157" lon="-8.44836076">
        <ele>324.00000</ele>
        <time>2020-09-23T08:46:51Z</time>
      </trkpt>
      <trkpt lat="40.91873601" lon="-8.44835196">
        <ele>324.00000</ele>
        <time>2020-09-23T08:46:52Z</time>
      </trkpt>
      <trkpt lat="40.91871036" lon="-8.44834484">
        <ele>324.00000</ele>
        <time>2020-09-23T08:46:53Z</time>
      </trkpt>
      <trkpt lat="40.91868161" lon="-8.44834081">
        <ele>324.00000</ele>
        <time>2020-09-23T08:46:54Z</time>
      </trkpt>
      <trkpt lat="40.91865596" lon="-8.44833436">
        <ele>324.00000</ele>
        <time>2020-09-23T08:46:55Z</time>
      </trkpt>
      <trkpt lat="40.91863358" lon="-8.44833201">
        <ele>324.00000</ele>
        <time>2020-09-23T08:46:56Z</time>
      </trkpt>
      <trkpt lat="40.91860483" lon="-8.44832723">
        <ele>324.00000</ele>
        <time>2020-09-23T08:46:57Z</time>
      </trkpt>
      <trkpt lat="40.91857918" lon="-8.44832321">
        <ele>324.00000</ele>
        <time>2020-09-23T08:46:58Z</time>
      </trkpt>
      <trkpt lat="40.91855362" lon="-8.44832480">
        <ele>325.00000</ele>
        <time>2020-09-23T08:46:59Z</time>
      </trkpt>
      <trkpt lat="40.91852797" lon="-8.44832723">
        <ele>325.00000</ele>
        <time>2020-09-23T08:47:00Z</time>
      </trkpt>
      <trkpt lat="40.91850240" lon="-8.44832723">
        <ele>325.00000</ele>
        <time>2020-09-23T08:47:01Z</time>
      </trkpt>
      <trkpt lat="40.91847675" lon="-8.44832480">
        <ele>325.00000</ele>
        <time>2020-09-23T08:47:02Z</time>
      </trkpt>
      <trkpt lat="40.91844800" lon="-8.44832321">
        <ele>325.00000</ele>
        <time>2020-09-23T08:47:03Z</time>
      </trkpt>
      <trkpt lat="40.91841917" lon="-8.44832321">
        <ele>325.00000</ele>
        <time>2020-09-23T08:47:04Z</time>
      </trkpt>
      <trkpt lat="40.91839679" lon="-8.44832162">
        <ele>325.00000</ele>
        <time>2020-09-23T08:47:05Z</time>
      </trkpt>
      <trkpt lat="40.91836796" lon="-8.44831441">
        <ele>325.00000</ele>
        <time>2020-09-23T08:47:06Z</time>
      </trkpt>
      <trkpt lat="40.91834558" lon="-8.44831441">
        <ele>325.00000</ele>
        <time>2020-09-23T08:47:07Z</time>
      </trkpt>
      <trkpt lat="40.91832320" lon="-8.44831441">
        <ele>325.00000</ele>
        <time>2020-09-23T08:47:08Z</time>
      </trkpt>
      <trkpt lat="40.91829436" lon="-8.44831198">
        <ele>325.00000</ele>
        <time>2020-09-23T08:47:09Z</time>
      </trkpt>
      <trkpt lat="40.91826561" lon="-8.44830963">
        <ele>324.00000</ele>
        <time>2020-09-23T08:47:10Z</time>
      </trkpt>
      <trkpt lat="40.91823996" lon="-8.44831198">
        <ele>324.00000</ele>
        <time>2020-09-23T08:47:11Z</time>
      </trkpt>
      <trkpt lat="40.91821759" lon="-8.44830963">
        <ele>324.00000</ele>
        <time>2020-09-23T08:47:12Z</time>
      </trkpt>
      <trkpt lat="40.91818884" lon="-8.44829999">
        <ele>323.00000</ele>
        <time>2020-09-23T08:47:13Z</time>
      </trkpt>
      <trkpt lat="40.91816319" lon="-8.44830159">
        <ele>323.00000</ele>
        <time>2020-09-23T08:47:14Z</time>
      </trkpt>
      <trkpt lat="40.91805757" lon="-8.44829438">
        <ele>322.00000</ele>
        <time>2020-09-23T08:47:18Z</time>
      </trkpt>
      <trkpt lat="40.91800636" lon="-8.44829840">
        <ele>321.00000</ele>
        <time>2020-09-23T08:47:20Z</time>
      </trkpt>
      <trkpt lat="40.91798080" lon="-8.44830159">
        <ele>321.00000</ele>
        <time>2020-09-23T08:47:21Z</time>
      </trkpt>
      <trkpt lat="40.91795196" lon="-8.44830963">
        <ele>321.00000</ele>
        <time>2020-09-23T08:47:22Z</time>
      </trkpt>
      <trkpt lat="40.91792640" lon="-8.44832162">
        <ele>321.00000</ele>
        <time>2020-09-23T08:47:23Z</time>
      </trkpt>
      <trkpt lat="40.91790083" lon="-8.44833360">
        <ele>321.00000</ele>
        <time>2020-09-23T08:47:24Z</time>
      </trkpt>
      <trkpt lat="40.91787837" lon="-8.44834961">
        <ele>321.00000</ele>
        <time>2020-09-23T08:47:25Z</time>
      </trkpt>
      <trkpt lat="40.91785280" lon="-8.44836797">
        <ele>321.00000</ele>
        <time>2020-09-23T08:47:26Z</time>
      </trkpt>
      <trkpt lat="40.91783042" lon="-8.44838800">
        <ele>321.00000</ele>
        <time>2020-09-23T08:47:27Z</time>
      </trkpt>
      <trkpt lat="40.91781123" lon="-8.44841198">
        <ele>321.00000</ele>
        <time>2020-09-23T08:47:28Z</time>
      </trkpt>
      <trkpt lat="40.91779204" lon="-8.44843922">
        <ele>321.00000</ele>
        <time>2020-09-23T08:47:29Z</time>
      </trkpt>
    </trkseg>
    <trkseg>
      <trkpt lat="40.91776957" lon="-8.44846562">
        <ele>321.00000</ele>
        <time>2020-09-23T08:47:30Z</time>
      </trkpt>
      <trkpt lat="40.91775038" lon="-8.44849278">
        <ele>321.00000</ele>
        <time>2020-09-23T08:47:31Z</time>
      </trkpt>
      <trkpt lat="40.91774082" lon="-8.44851843">
        <ele>322.00000</ele>
        <time>2020-09-23T08:47:32Z</time>
      </trkpt>
      <trkpt lat="40.91772481" lon="-8.44854801">
        <ele>322.00000</ele>
        <time>2020-09-23T08:47:33Z</time>
      </trkpt>
      <trkpt lat="40.91770243" lon="-8.44858397">
        <ele>322.00000</ele>
        <time>2020-09-23T08:47:34Z</time>
      </trkpt>
      <trkpt lat="40.91768315" lon="-8.44861121">
        <ele>322.00000</ele>
        <time>2020-09-23T08:47:35Z</time>
      </trkpt>
      <trkpt lat="40.91766723" lon="-8.44863996">
        <ele>322.00000</ele>
        <time>2020-09-23T08:47:36Z</time>
      </trkpt>
      <trkpt lat="40.91765441" lon="-8.44866159">
        <ele>322.00000</ele>
        <time>2020-09-23T08:47:37Z</time>
      </trkpt>
      <trkpt lat="40.91764158" lon="-8.44869361">
        <ele>322.00000</ele>
        <time>2020-09-23T08:47:38Z</time>
      </trkpt>
      <trkpt lat="40.91762557" lon="-8.44872881">
        <ele>322.00000</ele>
        <time>2020-09-23T08:47:39Z</time>
      </trkpt>
      <trkpt lat="40.91761283" lon="-8.44875999">
        <ele>322.00000</ele>
        <time>2020-09-23T08:47:40Z</time>
      </trkpt>
      <trkpt lat="40.91758400" lon="-8.44888958">
        <ele>322.00000</ele>
        <time>2020-09-23T08:47:44Z</time>
      </trkpt>
      <trkpt lat="40.91757436" lon="-8.44892160">
        <ele>322.00000</ele>
        <time>2020-09-23T08:47:45Z</time>
      </trkpt>
      <trkpt lat="40.91756799" lon="-8.44894716">
        <ele>322.00000</ele>
        <time>2020-09-23T08:47:46Z</time>
      </trkpt>
      <trkpt lat="40.91751996" lon="-8.44908320">
        <ele>321.00000</ele>
        <time>2020-09-23T08:47:51Z</time>
      </trkpt>
      <trkpt lat="40.91745601" lon="-8.44918001">
        <ele>319.00000</ele>
        <time>2020-09-23T08:47:55Z</time>
      </trkpt>
      <trkpt lat="40.91739524" lon="-8.44929761">
        <ele>318.00000</ele>
        <time>2020-09-23T08:48:00Z</time>
      </trkpt>
      <trkpt lat="40.91732483" lon="-8.44938159">
        <ele>317.00000</ele>
        <time>2020-09-23T08:48:04Z</time>
      </trkpt>
      <trkpt lat="40.91730237" lon="-8.44940640">
        <ele>316.00000</ele>
        <time>2020-09-23T08:48:06Z</time>
      </trkpt>
      <trkpt lat="40.91727043" lon="-8.44952643">
        <ele>317.00000</ele>
        <time>2020-09-23T08:48:33Z</time>
      </trkpt>
      <trkpt lat="40.91717437" lon="-8.44960321">
        <ele>316.00000</ele>
        <time>2020-09-23T08:48:37Z</time>
      </trkpt>
      <trkpt lat="40.91706558" lon="-8.44964956">
        <ele>314.00000</ele>
        <time>2020-09-23T08:48:42Z</time>
      </trkpt>
      <trkpt lat="40.91696323" lon="-8.44968318">
        <ele>311.00000</ele>
        <time>2020-09-23T08:48:46Z</time>
      </trkpt>
      <trkpt lat="40.91685117" lon="-8.44971360">
        <ele>309.00000</ele>
        <time>2020-09-23T08:48:50Z</time>
      </trkpt>
      <trkpt lat="40.91675201" lon="-8.44975199">
        <ele>307.00000</ele>
        <time>2020-09-23T08:48:55Z</time>
      </trkpt>
      <trkpt lat="40.91666878" lon="-8.44980161">
        <ele>306.00000</ele>
        <time>2020-09-23T08:49:02Z</time>
      </trkpt>
      <trkpt lat="40.91663039" lon="-8.44991519">
        <ele>308.00000</ele>
        <time>2020-09-23T08:49:17Z</time>
      </trkpt>
      <trkpt lat="40.91661756" lon="-8.44993522">
        <ele>308.00000</ele>
        <time>2020-09-23T08:49:23Z</time>
      </trkpt>
      <trkpt lat="40.91661438" lon="-8.44995919">
        <ele>308.00000</ele>
        <time>2020-09-23T08:49:27Z</time>
      </trkpt>
      <trkpt lat="40.91662083" lon="-8.44998476">
        <ele>309.00000</ele>
        <time>2020-09-23T08:49:30Z</time>
      </trkpt>
      <trkpt lat="40.91664003" lon="-8.45000403">
        <ele>310.00000</ele>
        <time>2020-09-23T08:49:32Z</time>
      </trkpt>
      <trkpt lat="40.91666878" lon="-8.45001518">
        <ele>311.00000</ele>
        <time>2020-09-23T08:49:34Z</time>
      </trkpt>
      <trkpt lat="40.91669761" lon="-8.45000638">
        <ele>312.00000</ele>
        <time>2020-09-23T08:49:36Z</time>
      </trkpt>
      <trkpt lat="40.91673600" lon="-8.45000797">
        <ele>313.00000</ele>
        <time>2020-09-23T08:49:38Z</time>
      </trkpt>
      <trkpt lat="40.91677120" lon="-8.45000797">
        <ele>314.00000</ele>
        <time>2020-09-23T08:49:40Z</time>
      </trkpt>
      <trkpt lat="40.91679040" lon="-8.45001116">
        <ele>314.00000</ele>
        <time>2020-09-23T08:49:41Z</time>
      </trkpt>
      <trkpt lat="40.91681596" lon="-8.45002641">
        <ele>316.00000</ele>
        <time>2020-09-23T08:49:43Z</time>
      </trkpt>
      <trkpt lat="40.91682879" lon="-8.45004402">
        <ele>316.00000</ele>
        <time>2020-09-23T08:49:44Z</time>
      </trkpt>
      <trkpt lat="40.91685117" lon="-8.45007520">
        <ele>318.00000</ele>
        <time>2020-09-23T08:49:46Z</time>
      </trkpt>
      <trkpt lat="40.91687363" lon="-8.45009682">
        <ele>319.00000</ele>
        <time>2020-09-23T08:49:48Z</time>
      </trkpt>
      <trkpt lat="40.91690883" lon="-8.45011359">
        <ele>321.00000</ele>
        <time>2020-09-23T08:49:50Z</time>
      </trkpt>
      <trkpt lat="40.91693758" lon="-8.45013362">
        <ele>322.00000</ele>
        <time>2020-09-23T08:49:52Z</time>
      </trkpt>
      <trkpt lat="40.91696960" lon="-8.45015357">
        <ele>323.00000</ele>
        <time>2020-09-23T08:49:54Z</time>
      </trkpt>
      <trkpt lat="40.91698561" lon="-8.45016480">
        <ele>324.00000</ele>
        <time>2020-09-23T08:49:55Z</time>
      </trkpt>
      <trkpt lat="40.91701118" lon="-8.45020160">
        <ele>325.00000</ele>
        <time>2020-09-23T08:49:57Z</time>
      </trkpt>
      <trkpt lat="40.91702719" lon="-8.45022004">
        <ele>326.00000</ele>
        <time>2020-09-23T08:49:58Z</time>
      </trkpt>
      <trkpt lat="40.91704320" lon="-8.45023361">
        <ele>326.00000</ele>
        <time>2020-09-23T08:49:59Z</time>
      </trkpt>
      <trkpt lat="40.91706876" lon="-8.45026002">
        <ele>327.00000</ele>
        <time>2020-09-23T08:50:01Z</time>
      </trkpt>
      <trkpt lat="40.91709760" lon="-8.45028324">
        <ele>328.00000</ele>
        <time>2020-09-23T08:50:03Z</time>
      </trkpt>
      <trkpt lat="40.91711042" lon="-8.45030000">
        <ele>329.00000</ele>
        <time>2020-09-23T08:50:04Z</time>
      </trkpt>
      <trkpt lat="40.91712316" lon="-8.45031676">
        <ele>329.00000</ele>
        <time>2020-09-23T08:50:05Z</time>
      </trkpt>
      <trkpt lat="40.91714562" lon="-8.45036479">
        <ele>331.00000</ele>
        <time>2020-09-23T08:50:07Z</time>
      </trkpt>
      <trkpt lat="40.91716163" lon="-8.45038482">
        <ele>331.00000</ele>
        <time>2020-09-23T08:50:08Z</time>
      </trkpt>
      <trkpt lat="40.91720958" lon="-8.45043679">
        <ele>333.00000</ele>
        <time>2020-09-23T08:50:12Z</time>
      </trkpt>
      <trkpt lat="40.91722559" lon="-8.45045439">
        <ele>333.00000</ele>
        <time>2020-09-23T08:50:14Z</time>
      </trkpt>
      <trkpt lat="40.91724160" lon="-8.45046563">
        <ele>334.00000</ele>
        <time>2020-09-23T08:50:15Z</time>
      </trkpt>
      <trkpt lat="40.91726716" lon="-8.45048323">
        <ele>334.00000</ele>
        <time>2020-09-23T08:50:17Z</time>
      </trkpt>
      <trkpt lat="40.91727043" lon="-8.45051676">
        <ele>335.00000</ele>
        <time>2020-09-23T08:50:19Z</time>
      </trkpt>
      <trkpt lat="40.91717437" lon="-8.45048717">
        <ele>334.00000</ele>
        <time>2020-09-23T08:50:25Z</time>
      </trkpt>
      <trkpt lat="40.91706558" lon="-8.45048323">
        <ele>333.00000</ele>
        <time>2020-09-23T08:50:30Z</time>
      </trkpt>
      <trkpt lat="40.91696960" lon="-8.45051198">
        <ele>333.00000</ele>
        <time>2020-09-23T08:50:35Z</time>
      </trkpt>
      <trkpt lat="40.91693440" lon="-8.45053042">
        <ele>333.00000</ele>
        <time>2020-09-23T08:50:37Z</time>
      </trkpt>
      <trkpt lat="40.91690883" lon="-8.45054643">
        <ele>333.00000</ele>
        <time>2020-09-23T08:50:39Z</time>
      </trkpt>
      <trkpt lat="40.91687036" lon="-8.45058641">
        <ele>333.00000</ele>
        <time>2020-09-23T08:50:42Z</time>
      </trkpt>
      <trkpt lat="40.91686399" lon="-8.45063041">
        <ele>334.00000</ele>
        <time>2020-09-23T08:50:44Z</time>
      </trkpt>
      <trkpt lat="40.91685444" lon="-8.45067199">
        <ele>334.00000</ele>
        <time>2020-09-23T08:50:46Z</time>
      </trkpt>
      <trkpt lat="40.91685117" lon="-8.45070803">
        <ele>335.00000</ele>
        <time>2020-09-23T08:50:48Z</time>
      </trkpt>
      <trkpt lat="40.91684480" lon="-8.45075036">
        <ele>336.00000</ele>
        <time>2020-09-23T08:50:50Z</time>
      </trkpt>
      <trkpt lat="40.91683843" lon="-8.45078883">
        <ele>336.00000</ele>
        <time>2020-09-23T08:50:52Z</time>
      </trkpt>
      <trkpt lat="40.91683843" lon="-8.45081842">
        <ele>337.00000</ele>
        <time>2020-09-23T08:50:54Z</time>
      </trkpt>
      <trkpt lat="40.91683843" lon="-8.45084642">
        <ele>337.00000</ele>
        <time>2020-09-23T08:50:56Z</time>
      </trkpt>
      <trkpt lat="40.91684480" lon="-8.45087357">
        <ele>338.00000</ele>
        <time>2020-09-23T08:50:58Z</time>
      </trkpt>
      <trkpt lat="40.91685117" lon="-8.45089838">
        <ele>338.00000</ele>
        <time>2020-09-23T08:51:00Z</time>
      </trkpt>
      <trkpt lat="40.91687363" lon="-8.45102319">
        <ele>340.00000</ele>
        <time>2020-09-23T08:51:23Z</time>
      </trkpt>
      <trkpt lat="40.91689601" lon="-8.45112159">
        <ele>341.00000</ele>
        <time>2020-09-23T08:51:35Z</time>
      </trkpt>
      <trkpt lat="40.91690557" lon="-8.45114481">
        <ele>341.00000</ele>
        <time>2020-09-23T08:51:37Z</time>
      </trkpt>
      <trkpt lat="40.91691839" lon="-8.45116158">
        <ele>342.00000</ele>
        <time>2020-09-23T08:51:39Z</time>
      </trkpt>
      <trkpt lat="40.91693121" lon="-8.45118563">
        <ele>342.00000</ele>
        <time>2020-09-23T08:51:41Z</time>
      </trkpt>
      <trkpt lat="40.91694395" lon="-8.45121438">
        <ele>343.00000</ele>
        <time>2020-09-23T08:51:43Z</time>
      </trkpt>
      <trkpt lat="40.91695678" lon="-8.45124640">
        <ele>343.00000</ele>
        <time>2020-09-23T08:51:45Z</time>
      </trkpt>
      <trkpt lat="40.91696960" lon="-8.45126316">
        <ele>344.00000</ele>
        <time>2020-09-23T08:51:46Z</time>
      </trkpt>
      <trkpt lat="40.91698880" lon="-8.45128638">
        <ele>344.00000</ele>
        <time>2020-09-23T08:51:48Z</time>
      </trkpt>
      <trkpt lat="40.91700799" lon="-8.45131278">
        <ele>345.00000</ele>
        <time>2020-09-23T08:51:50Z</time>
      </trkpt>
      <trkpt lat="40.91702719" lon="-8.45132796">
        <ele>346.00000</ele>
        <time>2020-09-23T08:51:52Z</time>
      </trkpt>
      <trkpt lat="40.91705602" lon="-8.45134162">
        <ele>346.00000</ele>
        <time>2020-09-23T08:51:54Z</time>
      </trkpt>
      <trkpt lat="40.91707522" lon="-8.45134162">
        <ele>347.00000</ele>
        <time>2020-09-23T08:51:56Z</time>
      </trkpt>
      <trkpt lat="40.91709441" lon="-8.45133198">
        <ele>347.00000</ele>
        <time>2020-09-23T08:52:06Z</time>
      </trkpt>
      <trkpt lat="40.91711360" lon="-8.45134640">
        <ele>348.00000</ele>
        <time>2020-09-23T08:52:08Z</time>
      </trkpt>
      <trkpt lat="40.91713598" lon="-8.45135520">
        <ele>349.00000</ele>
        <time>2020-09-23T08:52:10Z</time>
      </trkpt>
      <trkpt lat="40.91716163" lon="-8.45137037">
        <ele>350.00000</ele>
        <time>2020-09-23T08:52:11Z</time>
      </trkpt>
      <trkpt lat="40.91719038" lon="-8.45138001">
        <ele>350.00000</ele>
        <time>2020-09-23T08:52:13Z</time>
      </trkpt>
      <trkpt lat="40.91721276" lon="-8.45138638">
        <ele>351.00000</ele>
        <time>2020-09-23T08:52:15Z</time>
      </trkpt>
      <trkpt lat="40.91724160" lon="-8.45139996">
        <ele>352.00000</ele>
        <time>2020-09-23T08:52:17Z</time>
      </trkpt>
      <trkpt lat="40.91726716" lon="-8.45140641">
        <ele>353.00000</ele>
        <time>2020-09-23T08:52:19Z</time>
      </trkpt>
      <trkpt lat="40.91729281" lon="-8.45140641">
        <ele>353.00000</ele>
        <time>2020-09-23T08:52:21Z</time>
      </trkpt>
      <trkpt lat="40.91731200" lon="-8.45141521">
        <ele>354.00000</ele>
        <time>2020-09-23T08:52:22Z</time>
      </trkpt>
      <trkpt lat="40.91734402" lon="-8.45142401">
        <ele>354.00000</ele>
        <time>2020-09-23T08:52:24Z</time>
      </trkpt>
      <trkpt lat="40.91738241" lon="-8.45143122">
        <ele>355.00000</ele>
        <time>2020-09-23T08:52:26Z</time>
      </trkpt>
      <trkpt lat="40.91740161" lon="-8.45144002">
        <ele>356.00000</ele>
        <time>2020-09-23T08:52:27Z</time>
      </trkpt>
      <trkpt lat="40.91743363" lon="-8.45145117">
        <ele>357.00000</ele>
        <time>2020-09-23T08:52:29Z</time>
      </trkpt>
      <trkpt lat="40.91746238" lon="-8.45146156">
        <ele>357.00000</ele>
        <time>2020-09-23T08:52:31Z</time>
      </trkpt>
      <trkpt lat="40.91749439" lon="-8.45149358">
        <ele>358.00000</ele>
        <time>2020-09-23T08:52:33Z</time>
      </trkpt>
      <trkpt lat="40.91752960" lon="-8.45151362">
        <ele>359.00000</ele>
        <time>2020-09-23T08:52:35Z</time>
      </trkpt>
      <trkpt lat="40.91755516" lon="-8.45152476">
        <ele>360.00000</ele>
        <time>2020-09-23T08:52:37Z</time>
      </trkpt>
      <trkpt lat="40.91758400" lon="-8.45153843">
        <ele>360.00000</ele>
        <time>2020-09-23T08:52:39Z</time>
      </trkpt>
      <trkpt lat="40.91760956" lon="-8.45155603">
        <ele>361.00000</ele>
        <time>2020-09-23T08:52:41Z</time>
      </trkpt>
      <trkpt lat="40.91763840" lon="-8.45156877">
        <ele>362.00000</ele>
        <time>2020-09-23T08:52:43Z</time>
      </trkpt>
      <trkpt lat="40.91766723" lon="-8.45157363">
        <ele>363.00000</ele>
        <time>2020-09-23T08:52:45Z</time>
      </trkpt>
      <trkpt lat="40.91768642" lon="-8.45157363">
        <ele>363.00000</ele>
        <time>2020-09-23T08:52:46Z</time>
      </trkpt>
      <trkpt lat="40.91774719" lon="-8.45160883">
        <ele>365.00000</ele>
        <time>2020-09-23T08:52:50Z</time>
      </trkpt>
      <trkpt lat="40.91776320" lon="-8.45162878">
        <ele>366.00000</ele>
        <time>2020-09-23T08:52:51Z</time>
      </trkpt>
      <trkpt lat="40.91778877" lon="-8.45165837">
        <ele>367.00000</ele>
        <time>2020-09-23T08:52:53Z</time>
      </trkpt>
      <trkpt lat="40.91780796" lon="-8.45167363">
        <ele>367.00000</ele>
        <time>2020-09-23T08:52:54Z</time>
      </trkpt>
      <trkpt lat="40.91783042" lon="-8.45168880">
        <ele>368.00000</ele>
        <time>2020-09-23T08:52:56Z</time>
      </trkpt>
      <trkpt lat="40.91786236" lon="-8.45168964">
        <ele>369.00000</ele>
        <time>2020-09-23T08:52:58Z</time>
      </trkpt>
      <trkpt lat="40.91792321" lon="-8.45172878">
        <ele>370.00000</ele>
        <time>2020-09-23T08:53:03Z</time>
      </trkpt>
      <trkpt lat="40.91793922" lon="-8.45174320">
        <ele>370.00000</ele>
        <time>2020-09-23T08:53:04Z</time>
      </trkpt>
      <trkpt lat="40.91798398" lon="-8.45179843">
        <ele>371.00000</ele>
        <time>2020-09-23T08:53:07Z</time>
      </trkpt>
      <trkpt lat="40.91800636" lon="-8.45181360">
        <ele>372.00000</ele>
        <time>2020-09-23T08:53:08Z</time>
      </trkpt>
      <trkpt lat="40.91802556" lon="-8.45182157">
        <ele>372.00000</ele>
        <time>2020-09-23T08:53:09Z</time>
      </trkpt>
      <trkpt lat="40.91804483" lon="-8.45183682">
        <ele>372.00000</ele>
        <time>2020-09-23T08:53:10Z</time>
      </trkpt>
      <trkpt lat="40.91806721" lon="-8.45185359">
        <ele>373.00000</ele>
        <time>2020-09-23T08:53:11Z</time>
      </trkpt>
      <trkpt lat="40.91808322" lon="-8.45187203">
        <ele>373.00000</ele>
        <time>2020-09-23T08:53:12Z</time>
      </trkpt>
      <trkpt lat="40.91810879" lon="-8.45188317">
        <ele>373.00000</ele>
        <time>2020-09-23T08:53:14Z</time>
      </trkpt>
      <trkpt lat="40.91814718" lon="-8.45189843">
        <ele>373.00000</ele>
        <time>2020-09-23T08:53:16Z</time>
      </trkpt>
      <trkpt lat="40.91817920" lon="-8.45191435">
        <ele>373.00000</ele>
        <time>2020-09-23T08:53:18Z</time>
      </trkpt>
      <trkpt lat="40.91819839" lon="-8.45192559">
        <ele>374.00000</ele>
        <time>2020-09-23T08:53:19Z</time>
      </trkpt>
      <trkpt lat="40.91830082" lon="-8.45197521">
        <ele>375.00000</ele>
        <time>2020-09-23T08:53:25Z</time>
      </trkpt>
      <trkpt lat="40.91839998" lon="-8.45199842">
        <ele>375.00000</ele>
        <time>2020-09-23T08:53:30Z</time>
      </trkpt>
      <trkpt lat="40.91850559" lon="-8.45204637">
        <ele>376.00000</ele>
        <time>2020-09-23T08:53:35Z</time>
      </trkpt>
      <trkpt lat="40.91860483" lon="-8.45210638">
        <ele>377.00000</ele>
        <time>2020-09-23T08:53:40Z</time>
      </trkpt>
      <trkpt lat="40.91867515" lon="-8.45220479">
        <ele>378.00000</ele>
        <time>2020-09-23T08:53:43Z</time>
      </trkpt>
      <trkpt lat="40.91874556" lon="-8.45229523">
        <ele>378.00000</ele>
        <time>2020-09-23T08:53:47Z</time>
      </trkpt>
      <trkpt lat="40.91883198" lon="-8.45234317">
        <ele>379.00000</ele>
        <time>2020-09-23T08:53:51Z</time>
      </trkpt>
      <trkpt lat="40.91892477" lon="-8.45240319">
        <ele>381.00000</ele>
        <time>2020-09-23T08:53:57Z</time>
      </trkpt>
      <trkpt lat="40.91901118" lon="-8.45247200">
        <ele>382.00000</ele>
        <time>2020-09-23T08:54:03Z</time>
      </trkpt>
      <trkpt lat="40.91910079" lon="-8.45253679">
        <ele>382.00000</ele>
        <time>2020-09-23T08:54:09Z</time>
      </trkpt>
      <trkpt lat="40.91917756" lon="-8.45261282">
        <ele>383.00000</ele>
        <time>2020-09-23T08:54:24Z</time>
      </trkpt>
      <trkpt lat="40.91926717" lon="-8.45266562">
        <ele>382.00000</ele>
        <time>2020-09-23T08:54:31Z</time>
      </trkpt>
      <trkpt lat="40.91935040" lon="-8.45271281">
        <ele>382.00000</ele>
        <time>2020-09-23T08:54:36Z</time>
      </trkpt>
      <trkpt lat="40.91944637" lon="-8.45274802">
        <ele>382.00000</ele>
        <time>2020-09-23T08:54:40Z</time>
      </trkpt>
      <trkpt lat="40.91954880" lon="-8.45275682">
        <ele>382.00000</ele>
        <time>2020-09-23T08:54:45Z</time>
      </trkpt>
      <trkpt lat="40.91964796" lon="-8.45278641">
        <ele>382.00000</ele>
        <time>2020-09-23T08:54:49Z</time>
      </trkpt>
      <trkpt lat="40.91973756" lon="-8.45281759">
        <ele>382.00000</ele>
        <time>2020-09-23T08:54:53Z</time>
      </trkpt>
      <trkpt lat="40.91984963" lon="-8.45287760">
        <ele>382.00000</ele>
        <time>2020-09-23T08:54:57Z</time>
      </trkpt>
      <trkpt lat="40.91993596" lon="-8.45293359">
        <ele>382.00000</ele>
        <time>2020-09-23T08:55:00Z</time>
      </trkpt>
      <trkpt lat="40.92002883" lon="-8.45297844">
        <ele>382.00000</ele>
        <time>2020-09-23T08:55:04Z</time>
      </trkpt>
      <trkpt lat="40.92013117" lon="-8.45302320">
        <ele>382.00000</ele>
        <time>2020-09-23T08:55:09Z</time>
      </trkpt>
      <trkpt lat="40.92021441" lon="-8.45307843">
        <ele>382.00000</ele>
        <time>2020-09-23T08:55:13Z</time>
      </trkpt>
      <trkpt lat="40.92030719" lon="-8.45316317">
        <ele>381.00000</ele>
        <time>2020-09-23T08:55:17Z</time>
      </trkpt>
      <trkpt lat="40.92039043" lon="-8.45323677">
        <ele>381.00000</ele>
        <time>2020-09-23T08:55:21Z</time>
      </trkpt>
      <trkpt lat="40.92041281" lon="-8.45326082">
        <ele>380.00000</ele>
        <time>2020-09-23T08:55:22Z</time>
      </trkpt>
      <trkpt lat="40.92043837" lon="-8.45327683">
        <ele>380.00000</ele>
        <time>2020-09-23T08:55:23Z</time>
      </trkpt>
      <trkpt lat="40.92046083" lon="-8.45329200">
        <ele>380.00000</ele>
        <time>2020-09-23T08:55:24Z</time>
      </trkpt>
      <trkpt lat="40.92047357" lon="-8.45331204">
        <ele>380.00000</ele>
        <time>2020-09-23T08:55:25Z</time>
      </trkpt>
      <trkpt lat="40.92049922" lon="-8.45333836">
        <ele>380.00000</ele>
        <time>2020-09-23T08:55:26Z</time>
      </trkpt>
      <trkpt lat="40.92054080" lon="-8.45338798">
        <ele>379.00000</ele>
        <time>2020-09-23T08:55:28Z</time>
      </trkpt>
      <trkpt lat="40.92055999" lon="-8.45340642">
        <ele>379.00000</ele>
        <time>2020-09-23T08:55:29Z</time>
      </trkpt>
      <trkpt lat="40.92058237" lon="-8.45342159">
        <ele>379.00000</ele>
        <time>2020-09-23T08:55:30Z</time>
      </trkpt>
      <trkpt lat="40.92060483" lon="-8.45343282">
        <ele>379.00000</ele>
        <time>2020-09-23T08:55:31Z</time>
      </trkpt>
      <trkpt lat="40.92062403" lon="-8.45345201">
        <ele>378.00000</ele>
        <time>2020-09-23T08:55:32Z</time>
      </trkpt>
      <trkpt lat="40.92064641" lon="-8.45347037">
        <ele>378.00000</ele>
        <time>2020-09-23T08:55:33Z</time>
      </trkpt>
      <trkpt lat="40.92066242" lon="-8.45348797">
        <ele>378.00000</ele>
        <time>2020-09-23T08:55:34Z</time>
      </trkpt>
      <trkpt lat="40.92068480" lon="-8.45350482">
        <ele>377.00000</ele>
        <time>2020-09-23T08:55:35Z</time>
      </trkpt>
      <trkpt lat="40.92076803" lon="-8.45355679">
        <ele>376.00000</ele>
        <time>2020-09-23T08:55:39Z</time>
      </trkpt>
      <trkpt lat="40.92079041" lon="-8.45357037">
        <ele>376.00000</ele>
        <time>2020-09-23T08:55:40Z</time>
      </trkpt>
      <trkpt lat="40.92080960" lon="-8.45358478">
        <ele>376.00000</ele>
        <time>2020-09-23T08:55:41Z</time>
      </trkpt>
      <trkpt lat="40.92082880" lon="-8.45360163">
        <ele>376.00000</ele>
        <time>2020-09-23T08:55:42Z</time>
      </trkpt>
      <trkpt lat="40.92084799" lon="-8.45362158">
        <ele>375.00000</ele>
        <time>2020-09-23T08:55:43Z</time>
      </trkpt>
      <trkpt lat="40.92087037" lon="-8.45364480">
        <ele>375.00000</ele>
        <time>2020-09-23T08:55:44Z</time>
      </trkpt>
      <trkpt lat="40.92088957" lon="-8.45365997">
        <ele>375.00000</ele>
        <time>2020-09-23T08:55:45Z</time>
      </trkpt>
      <trkpt lat="40.92091522" lon="-8.45366961">
        <ele>375.00000</ele>
        <time>2020-09-23T08:55:46Z</time>
      </trkpt>
      <trkpt lat="40.92095042" lon="-8.45368478">
        <ele>375.00000</ele>
        <time>2020-09-23T08:55:48Z</time>
      </trkpt>
      <trkpt lat="40.92097599" lon="-8.45369358">
        <ele>374.00000</ele>
        <time>2020-09-23T08:55:49Z</time>
      </trkpt>
      <trkpt lat="40.92099837" lon="-8.45369836">
        <ele>374.00000</ele>
        <time>2020-09-23T08:55:50Z</time>
      </trkpt>
      <trkpt lat="40.92101756" lon="-8.45370640">
        <ele>374.00000</ele>
        <time>2020-09-23T08:55:51Z</time>
      </trkpt>
      <trkpt lat="40.92103675" lon="-8.45371118">
        <ele>374.00000</ele>
        <time>2020-09-23T08:55:52Z</time>
      </trkpt>
      <trkpt lat="40.92105603" lon="-8.45371596">
        <ele>374.00000</ele>
        <time>2020-09-23T08:55:53Z</time>
      </trkpt>
      <trkpt lat="40.92108797" lon="-8.45373515">
        <ele>374.00000</ele>
        <time>2020-09-23T08:55:55Z</time>
      </trkpt>
      <trkpt lat="40.92111680" lon="-8.45374957">
        <ele>374.00000</ele>
        <time>2020-09-23T08:55:57Z</time>
      </trkpt>
      <trkpt lat="40.92113600" lon="-8.45376240">
        <ele>373.00000</ele>
        <time>2020-09-23T08:55:59Z</time>
      </trkpt>
      <trkpt lat="40.92116156" lon="-8.45377841">
        <ele>373.00000</ele>
        <time>2020-09-23T08:56:01Z</time>
      </trkpt>
      <trkpt lat="40.92118076" lon="-8.45378318">
        <ele>372.00000</ele>
        <time>2020-09-23T08:56:02Z</time>
      </trkpt>
      <trkpt lat="40.92128000" lon="-8.45381998">
        <ele>370.00000</ele>
        <time>2020-09-23T08:56:07Z</time>
      </trkpt>
      <trkpt lat="40.92132476" lon="-8.45384479">
        <ele>370.00000</ele>
        <time>2020-09-23T08:56:09Z</time>
      </trkpt>
      <trkpt lat="40.92135359" lon="-8.45386323">
        <ele>369.00000</ele>
        <time>2020-09-23T08:56:10Z</time>
      </trkpt>
      <trkpt lat="40.92137278" lon="-8.45387681">
        <ele>369.00000</ele>
        <time>2020-09-23T08:56:11Z</time>
      </trkpt>
      <trkpt lat="40.92139516" lon="-8.45388796">
        <ele>368.00000</ele>
        <time>2020-09-23T08:56:12Z</time>
      </trkpt>
      <trkpt lat="40.92142081" lon="-8.45390724">
        <ele>368.00000</ele>
        <time>2020-09-23T08:56:13Z</time>
      </trkpt>
      <trkpt lat="40.92144319" lon="-8.45392802">
        <ele>368.00000</ele>
        <time>2020-09-23T08:56:14Z</time>
      </trkpt>
      <trkpt lat="40.92146557" lon="-8.45395199">
        <ele>368.00000</ele>
        <time>2020-09-23T08:56:15Z</time>
      </trkpt>
      <trkpt lat="40.92149122" lon="-8.45396800">
        <ele>368.00000</ele>
        <time>2020-09-23T08:56:16Z</time>
      </trkpt>
      <trkpt lat="40.92151679" lon="-8.45398804">
        <ele>367.00000</ele>
        <time>2020-09-23T08:56:17Z</time>
      </trkpt>
      <trkpt lat="40.92153917" lon="-8.45400321">
        <ele>367.00000</ele>
        <time>2020-09-23T08:56:18Z</time>
      </trkpt>
      <trkpt lat="40.92156163" lon="-8.45401042">
        <ele>367.00000</ele>
        <time>2020-09-23T08:56:19Z</time>
      </trkpt>
      <trkpt lat="40.92158401" lon="-8.45401838">
        <ele>367.00000</ele>
        <time>2020-09-23T08:56:20Z</time>
      </trkpt>
      <trkpt lat="40.92160639" lon="-8.45403037">
        <ele>367.00000</ele>
        <time>2020-09-23T08:56:21Z</time>
      </trkpt>
      <trkpt lat="40.92162558" lon="-8.45404160">
        <ele>367.00000</ele>
        <time>2020-09-23T08:56:22Z</time>
      </trkpt>
      <trkpt lat="40.92165123" lon="-8.45405995">
        <ele>367.00000</ele>
        <time>2020-09-23T08:56:23Z</time>
      </trkpt>
      <trkpt lat="40.92167680" lon="-8.45407839">
        <ele>366.00000</ele>
        <time>2020-09-23T08:56:24Z</time>
      </trkpt>
      <trkpt lat="40.92169918" lon="-8.45409843">
        <ele>366.00000</ele>
        <time>2020-09-23T08:56:25Z</time>
      </trkpt>
      <trkpt lat="40.92172482" lon="-8.45411519">
        <ele>366.00000</ele>
        <time>2020-09-23T08:56:26Z</time>
      </trkpt>
      <trkpt lat="40.92175039" lon="-8.45413195">
        <ele>366.00000</ele>
        <time>2020-09-23T08:56:27Z</time>
      </trkpt>
      <trkpt lat="40.92176958" lon="-8.45415199">
        <ele>366.00000</ele>
        <time>2020-09-23T08:56:28Z</time>
      </trkpt>
      <trkpt lat="40.92179523" lon="-8.45417043">
        <ele>366.00000</ele>
        <time>2020-09-23T08:56:29Z</time>
      </trkpt>
      <trkpt lat="40.92181443" lon="-8.45419038">
        <ele>366.00000</ele>
        <time>2020-09-23T08:56:30Z</time>
      </trkpt>
      <trkpt lat="40.92183362" lon="-8.45421041">
        <ele>366.00000</ele>
        <time>2020-09-23T08:56:31Z</time>
      </trkpt>
    </trkseg>
    <trkseg>
      <trkpt lat="40.92184963" lon="-8.45422876">
        <ele>366.00000</ele>
        <time>2020-09-23T08:56:32Z</time>
      </trkpt>
      <trkpt lat="40.92186883" lon="-8.45425039">
        <ele>366.00000</ele>
        <time>2020-09-23T08:56:33Z</time>
      </trkpt>
      <trkpt lat="40.92188802" lon="-8.45427118">
        <ele>366.00000</ele>
        <time>2020-09-23T08:56:34Z</time>
      </trkpt>
      <trkpt lat="40.92190403" lon="-8.45429121">
        <ele>365.00000</ele>
        <time>2020-09-23T08:56:35Z</time>
      </trkpt>
      <trkpt lat="40.92192959" lon="-8.45431359">
        <ele>365.00000</ele>
        <time>2020-09-23T08:56:36Z</time>
      </trkpt>
      <trkpt lat="40.92194242" lon="-8.45433522">
        <ele>365.00000</ele>
        <time>2020-09-23T08:56:37Z</time>
      </trkpt>
      <trkpt lat="40.92196161" lon="-8.45436003">
        <ele>365.00000</ele>
        <time>2020-09-23T08:56:38Z</time>
      </trkpt>
      <trkpt lat="40.92198081" lon="-8.45438878">
        <ele>365.00000</ele>
        <time>2020-09-23T08:56:39Z</time>
      </trkpt>
      <trkpt lat="40.92199682" lon="-8.45441836">
        <ele>364.00000</ele>
        <time>2020-09-23T08:56:40Z</time>
      </trkpt>
      <trkpt lat="40.92201601" lon="-8.45444636">
        <ele>364.00000</ele>
        <time>2020-09-23T08:56:41Z</time>
      </trkpt>
      <trkpt lat="40.92203521" lon="-8.45447997">
        <ele>363.00000</ele>
        <time>2020-09-23T08:56:42Z</time>
      </trkpt>
      <trkpt lat="40.92205122" lon="-8.45452004">
        <ele>363.00000</ele>
        <time>2020-09-23T08:56:43Z</time>
      </trkpt>
      <trkpt lat="40.92207041" lon="-8.45455843">
        <ele>362.00000</ele>
        <time>2020-09-23T08:56:44Z</time>
      </trkpt>
      <trkpt lat="40.92208642" lon="-8.45459841">
        <ele>362.00000</ele>
        <time>2020-09-23T08:56:45Z</time>
      </trkpt>
      <trkpt lat="40.92209916" lon="-8.45463202">
        <ele>361.00000</ele>
        <time>2020-09-23T08:56:46Z</time>
      </trkpt>
      <trkpt lat="40.92211517" lon="-8.45466479">
        <ele>361.00000</ele>
        <time>2020-09-23T08:56:47Z</time>
      </trkpt>
      <trkpt lat="40.92213118" lon="-8.45469840">
        <ele>360.00000</ele>
        <time>2020-09-23T08:56:48Z</time>
      </trkpt>
      <trkpt lat="40.92214719" lon="-8.45473042">
        <ele>360.00000</ele>
        <time>2020-09-23T08:56:49Z</time>
      </trkpt>
      <trkpt lat="40.92215683" lon="-8.45476563">
        <ele>360.00000</ele>
        <time>2020-09-23T08:56:50Z</time>
      </trkpt>
      <trkpt lat="40.92217602" lon="-8.45479840">
        <ele>360.00000</ele>
        <time>2020-09-23T08:56:51Z</time>
      </trkpt>
      <trkpt lat="40.92219203" lon="-8.45483042">
        <ele>360.00000</ele>
        <time>2020-09-23T08:56:52Z</time>
      </trkpt>
      <trkpt lat="40.92220796" lon="-8.45486001">
        <ele>360.00000</ele>
        <time>2020-09-23T08:56:53Z</time>
      </trkpt>
      <trkpt lat="40.92222078" lon="-8.45489043">
        <ele>360.00000</ele>
        <time>2020-09-23T08:56:54Z</time>
      </trkpt>
      <trkpt lat="40.92223679" lon="-8.45492396">
        <ele>360.00000</ele>
        <time>2020-09-23T08:56:55Z</time>
      </trkpt>
      <trkpt lat="40.92224962" lon="-8.45495036">
        <ele>359.00000</ele>
        <time>2020-09-23T08:56:56Z</time>
      </trkpt>
      <trkpt lat="40.92225917" lon="-8.45498397">
        <ele>359.00000</ele>
        <time>2020-09-23T08:56:57Z</time>
      </trkpt>
      <trkpt lat="40.92227518" lon="-8.45501683">
        <ele>359.00000</ele>
        <time>2020-09-23T08:56:58Z</time>
      </trkpt>
      <trkpt lat="40.92229119" lon="-8.45505363">
        <ele>359.00000</ele>
        <time>2020-09-23T08:56:59Z</time>
      </trkpt>
      <trkpt lat="40.92230083" lon="-8.45508883">
        <ele>359.00000</ele>
        <time>2020-09-23T08:57:00Z</time>
      </trkpt>
      <trkpt lat="40.92232002" lon="-8.45512161">
        <ele>359.00000</ele>
        <time>2020-09-23T08:57:01Z</time>
      </trkpt>
      <trkpt lat="40.92233276" lon="-8.45515522">
        <ele>358.00000</ele>
        <time>2020-09-23T08:57:02Z</time>
      </trkpt>
      <trkpt lat="40.92234877" lon="-8.45519201">
        <ele>358.00000</ele>
        <time>2020-09-23T08:57:03Z</time>
      </trkpt>
      <trkpt lat="40.92236478" lon="-8.45522479">
        <ele>358.00000</ele>
        <time>2020-09-23T08:57:04Z</time>
      </trkpt>
      <trkpt lat="40.92237442" lon="-8.45525437">
        <ele>358.00000</ele>
        <time>2020-09-23T08:57:05Z</time>
      </trkpt>
      <trkpt lat="40.92239043" lon="-8.45528799">
        <ele>358.00000</ele>
        <time>2020-09-23T08:57:06Z</time>
      </trkpt>
      <trkpt lat="40.92239680" lon="-8.45531682">
        <ele>358.00000</ele>
        <time>2020-09-23T08:57:07Z</time>
      </trkpt>
      <trkpt lat="40.92239999" lon="-8.45534482">
        <ele>358.00000</ele>
        <time>2020-09-23T08:57:08Z</time>
      </trkpt>
      <trkpt lat="40.92241600" lon="-8.45538798">
        <ele>358.00000</ele>
        <time>2020-09-23T08:57:09Z</time>
      </trkpt>
      <trkpt lat="40.92242882" lon="-8.45542562">
        <ele>358.00000</ele>
        <time>2020-09-23T08:57:10Z</time>
      </trkpt>
      <trkpt lat="40.92244483" lon="-8.45546317">
        <ele>358.00000</ele>
        <time>2020-09-23T08:57:11Z</time>
      </trkpt>
      <trkpt lat="40.92245439" lon="-8.45549996">
        <ele>358.00000</ele>
        <time>2020-09-23T08:57:12Z</time>
      </trkpt>
      <trkpt lat="40.92246402" lon="-8.45553517">
        <ele>358.00000</ele>
        <time>2020-09-23T08:57:13Z</time>
      </trkpt>
      <trkpt lat="40.92246721" lon="-8.45556803">
        <ele>357.00000</ele>
        <time>2020-09-23T08:57:14Z</time>
      </trkpt>
      <trkpt lat="40.92247040" lon="-8.45560641">
        <ele>357.00000</ele>
        <time>2020-09-23T08:57:15Z</time>
      </trkpt>
      <trkpt lat="40.92247677" lon="-8.45564883">
        <ele>357.00000</ele>
        <time>2020-09-23T08:57:16Z</time>
      </trkpt>
      <trkpt lat="40.92248959" lon="-8.45569040">
        <ele>357.00000</ele>
        <time>2020-09-23T08:57:17Z</time>
      </trkpt>
      <trkpt lat="40.92249596" lon="-8.45573038">
        <ele>357.00000</ele>
        <time>2020-09-23T08:57:18Z</time>
      </trkpt>
      <trkpt lat="40.92250878" lon="-8.45576643">
        <ele>357.00000</ele>
        <time>2020-09-23T08:57:19Z</time>
      </trkpt>
      <trkpt lat="40.92251842" lon="-8.45580481">
        <ele>357.00000</ele>
        <time>2020-09-23T08:57:20Z</time>
      </trkpt>
      <trkpt lat="40.92253443" lon="-8.45584320">
        <ele>357.00000</ele>
        <time>2020-09-23T08:57:21Z</time>
      </trkpt>
      <trkpt lat="40.92255036" lon="-8.45587120">
        <ele>357.00000</ele>
        <time>2020-09-23T08:57:22Z</time>
      </trkpt>
      <trkpt lat="40.92256318" lon="-8.45590322">
        <ele>356.00000</ele>
        <time>2020-09-23T08:57:23Z</time>
      </trkpt>
      <trkpt lat="40.92257282" lon="-8.45593356">
        <ele>356.00000</ele>
        <time>2020-09-23T08:57:24Z</time>
      </trkpt>
      <trkpt lat="40.92258883" lon="-8.45596482">
        <ele>356.00000</ele>
        <time>2020-09-23T08:57:25Z</time>
      </trkpt>
      <trkpt lat="40.92260476" lon="-8.45599844">
        <ele>355.00000</ele>
        <time>2020-09-23T08:57:26Z</time>
      </trkpt>
      <trkpt lat="40.92261758" lon="-8.45603196">
        <ele>355.00000</ele>
        <time>2020-09-23T08:57:27Z</time>
      </trkpt>
      <trkpt lat="40.92263678" lon="-8.45606323">
        <ele>355.00000</ele>
        <time>2020-09-23T08:57:28Z</time>
      </trkpt>
      <trkpt lat="40.92265597" lon="-8.45609441">
        <ele>354.00000</ele>
        <time>2020-09-23T08:57:29Z</time>
      </trkpt>
      <trkpt lat="40.92267517" lon="-8.45613037">
        <ele>354.00000</ele>
        <time>2020-09-23T08:57:30Z</time>
      </trkpt>
      <trkpt lat="40.92269436" lon="-8.45615920">
        <ele>354.00000</ele>
        <time>2020-09-23T08:57:31Z</time>
      </trkpt>
      <trkpt lat="40.92271037" lon="-8.45619038">
        <ele>353.00000</ele>
        <time>2020-09-23T08:57:32Z</time>
      </trkpt>
      <trkpt lat="40.92273283" lon="-8.45623522">
        <ele>353.00000</ele>
        <time>2020-09-23T08:57:33Z</time>
      </trkpt>
      <trkpt lat="40.92275203" lon="-8.45626800">
        <ele>353.00000</ele>
        <time>2020-09-23T08:57:34Z</time>
      </trkpt>
      <trkpt lat="40.92277441" lon="-8.45629516">
        <ele>353.00000</ele>
        <time>2020-09-23T08:57:35Z</time>
      </trkpt>
      <trkpt lat="40.92279360" lon="-8.45632483">
        <ele>353.00000</ele>
        <time>2020-09-23T08:57:36Z</time>
      </trkpt>
      <trkpt lat="40.92281280" lon="-8.45635039">
        <ele>352.00000</ele>
        <time>2020-09-23T08:57:37Z</time>
      </trkpt>
      <trkpt lat="40.92283518" lon="-8.45636883">
        <ele>352.00000</ele>
        <time>2020-09-23T08:57:38Z</time>
      </trkpt>
      <trkpt lat="40.92285118" lon="-8.45639121">
        <ele>352.00000</ele>
        <time>2020-09-23T08:57:39Z</time>
      </trkpt>
      <trkpt lat="40.92287038" lon="-8.45641678">
        <ele>352.00000</ele>
        <time>2020-09-23T08:57:40Z</time>
      </trkpt>
      <trkpt lat="40.92288957" lon="-8.45644477">
        <ele>351.00000</ele>
        <time>2020-09-23T08:57:41Z</time>
      </trkpt>
      <trkpt lat="40.92290877" lon="-8.45647520">
        <ele>351.00000</ele>
        <time>2020-09-23T08:57:42Z</time>
      </trkpt>
      <trkpt lat="40.92292796" lon="-8.45650160">
        <ele>351.00000</ele>
        <time>2020-09-23T08:57:43Z</time>
      </trkpt>
      <trkpt lat="40.92294397" lon="-8.45652641">
        <ele>351.00000</ele>
        <time>2020-09-23T08:57:44Z</time>
      </trkpt>
      <trkpt lat="40.92296317" lon="-8.45655516">
        <ele>350.00000</ele>
        <time>2020-09-23T08:57:45Z</time>
      </trkpt>
      <trkpt lat="40.92297599" lon="-8.45658316">
        <ele>350.00000</ele>
        <time>2020-09-23T08:57:46Z</time>
      </trkpt>
      <trkpt lat="40.92299519" lon="-8.45660721">
        <ele>350.00000</ele>
        <time>2020-09-23T08:57:47Z</time>
      </trkpt>
      <trkpt lat="40.92301438" lon="-8.45663202">
        <ele>350.00000</ele>
        <time>2020-09-23T08:57:48Z</time>
      </trkpt>
      <trkpt lat="40.92304003" lon="-8.45665683">
        <ele>350.00000</ele>
        <time>2020-09-23T08:57:49Z</time>
      </trkpt>
      <trkpt lat="40.92306241" lon="-8.45668156">
        <ele>350.00000</ele>
        <time>2020-09-23T08:57:50Z</time>
      </trkpt>
      <trkpt lat="40.92308479" lon="-8.45670319">
        <ele>350.00000</ele>
        <time>2020-09-23T08:57:51Z</time>
      </trkpt>
      <trkpt lat="40.92310717" lon="-8.45672322">
        <ele>350.00000</ele>
        <time>2020-09-23T08:57:52Z</time>
      </trkpt>
      <trkpt lat="40.92313282" lon="-8.45673998">
        <ele>350.00000</ele>
        <time>2020-09-23T08:57:53Z</time>
      </trkpt>
      <trkpt lat="40.92316484" lon="-8.45675842">
        <ele>350.00000</ele>
        <time>2020-09-23T08:57:54Z</time>
      </trkpt>
      <trkpt lat="40.92318722" lon="-8.45677443">
        <ele>350.00000</ele>
        <time>2020-09-23T08:57:55Z</time>
      </trkpt>
      <trkpt lat="40.92321278" lon="-8.45680084">
        <ele>350.00000</ele>
        <time>2020-09-23T08:57:56Z</time>
      </trkpt>
      <trkpt lat="40.92323843" lon="-8.45682556">
        <ele>350.00000</ele>
        <time>2020-09-23T08:57:57Z</time>
      </trkpt>
      <trkpt lat="40.92326081" lon="-8.45685197">
        <ele>350.00000</ele>
        <time>2020-09-23T08:57:58Z</time>
      </trkpt>
      <trkpt lat="40.92328319" lon="-8.45686797">
        <ele>351.00000</ele>
        <time>2020-09-23T08:57:59Z</time>
      </trkpt>
      <trkpt lat="40.92330238" lon="-8.45688558">
        <ele>351.00000</ele>
        <time>2020-09-23T08:58:00Z</time>
      </trkpt>
      <trkpt lat="40.92332158" lon="-8.45690159">
        <ele>351.00000</ele>
        <time>2020-09-23T08:58:01Z</time>
      </trkpt>
      <trkpt lat="40.92334396" lon="-8.45692321">
        <ele>351.00000</ele>
        <time>2020-09-23T08:58:02Z</time>
      </trkpt>
      <trkpt lat="40.92336324" lon="-8.45694643">
        <ele>352.00000</ele>
        <time>2020-09-23T08:58:03Z</time>
      </trkpt>
      <trkpt lat="40.92338243" lon="-8.45697040">
        <ele>352.00000</ele>
        <time>2020-09-23T08:58:04Z</time>
      </trkpt>
      <trkpt lat="40.92340162" lon="-8.45699119">
        <ele>352.00000</ele>
        <time>2020-09-23T08:58:05Z</time>
      </trkpt>
      <trkpt lat="40.92342082" lon="-8.45701122">
        <ele>352.00000</ele>
        <time>2020-09-23T08:58:06Z</time>
      </trkpt>
      <trkpt lat="40.92344001" lon="-8.45703997">
        <ele>352.00000</ele>
        <time>2020-09-23T08:58:07Z</time>
      </trkpt>
      <trkpt lat="40.92345921" lon="-8.45706637">
        <ele>353.00000</ele>
        <time>2020-09-23T08:58:08Z</time>
      </trkpt>
      <trkpt lat="40.92348159" lon="-8.45709521">
        <ele>353.00000</ele>
        <time>2020-09-23T08:58:09Z</time>
      </trkpt>
      <trkpt lat="40.92350078" lon="-8.45712002">
        <ele>353.00000</ele>
        <time>2020-09-23T08:58:10Z</time>
      </trkpt>
      <trkpt lat="40.92351998" lon="-8.45715036">
        <ele>353.00000</ele>
        <time>2020-09-23T08:58:11Z</time>
      </trkpt>
      <trkpt lat="40.92353917" lon="-8.45717601">
        <ele>354.00000</ele>
        <time>2020-09-23T08:58:12Z</time>
      </trkpt>
      <trkpt lat="40.92356164" lon="-8.45720644">
        <ele>354.00000</ele>
        <time>2020-09-23T08:58:13Z</time>
      </trkpt>
      <trkpt lat="40.92358083" lon="-8.45723359">
        <ele>354.00000</ele>
        <time>2020-09-23T08:58:14Z</time>
      </trkpt>
      <trkpt lat="40.92360002" lon="-8.45726318">
        <ele>354.00000</ele>
        <time>2020-09-23T08:58:15Z</time>
      </trkpt>
      <trkpt lat="40.92361922" lon="-8.45728958">
        <ele>354.00000</ele>
        <time>2020-09-23T08:58:16Z</time>
      </trkpt>
      <trkpt lat="40.92364160" lon="-8.45731196">
        <ele>354.00000</ele>
        <time>2020-09-23T08:58:17Z</time>
      </trkpt>
      <trkpt lat="40.92365761" lon="-8.45733443">
        <ele>355.00000</ele>
        <time>2020-09-23T08:58:18Z</time>
      </trkpt>
      <trkpt lat="40.92368963" lon="-8.45736796">
        <ele>355.00000</ele>
        <time>2020-09-23T08:58:20Z</time>
      </trkpt>
      <trkpt lat="40.92371838" lon="-8.45738958">
        <ele>355.00000</ele>
        <time>2020-09-23T08:58:21Z</time>
      </trkpt>
      <trkpt lat="40.92373757" lon="-8.45740157">
        <ele>355.00000</ele>
        <time>2020-09-23T08:58:22Z</time>
      </trkpt>
      <trkpt lat="40.92375677" lon="-8.45741364">
        <ele>356.00000</ele>
        <time>2020-09-23T08:58:23Z</time>
      </trkpt>
      <trkpt lat="40.92377596" lon="-8.45743199">
        <ele>356.00000</ele>
        <time>2020-09-23T08:58:24Z</time>
      </trkpt>
      <trkpt lat="40.92379842" lon="-8.45746083">
        <ele>356.00000</ele>
        <time>2020-09-23T08:58:26Z</time>
      </trkpt>
      <trkpt lat="40.92380798" lon="-8.45748161">
        <ele>356.00000</ele>
        <time>2020-09-23T08:58:30Z</time>
      </trkpt>
      <trkpt lat="40.92382080" lon="-8.45751841">
        <ele>356.00000</ele>
        <time>2020-09-23T08:58:32Z</time>
      </trkpt>
      <trkpt lat="40.92383036" lon="-8.45754800">
        <ele>356.00000</ele>
        <time>2020-09-23T08:58:33Z</time>
      </trkpt>
      <trkpt lat="40.92384637" lon="-8.45757197">
        <ele>356.00000</ele>
        <time>2020-09-23T08:58:34Z</time>
      </trkpt>
      <trkpt lat="40.92385919" lon="-8.45759837">
        <ele>356.00000</ele>
        <time>2020-09-23T08:58:35Z</time>
      </trkpt>
      <trkpt lat="40.92387839" lon="-8.45762000">
        <ele>356.00000</ele>
        <time>2020-09-23T08:58:36Z</time>
      </trkpt>
      <trkpt lat="40.92389440" lon="-8.45764162">
        <ele>356.00000</ele>
        <time>2020-09-23T08:58:37Z</time>
      </trkpt>
      <trkpt lat="40.92390722" lon="-8.45767037">
        <ele>356.00000</ele>
        <time>2020-09-23T08:58:38Z</time>
      </trkpt>
      <trkpt lat="40.92392323" lon="-8.45770156">
        <ele>356.00000</ele>
        <time>2020-09-23T08:58:39Z</time>
      </trkpt>
      <trkpt lat="40.92394242" lon="-8.45773760">
        <ele>356.00000</ele>
        <time>2020-09-23T08:58:40Z</time>
      </trkpt>
      <trkpt lat="40.92396162" lon="-8.45777682">
        <ele>356.00000</ele>
        <time>2020-09-23T08:58:41Z</time>
      </trkpt>
      <trkpt lat="40.92398400" lon="-8.45781119">
        <ele>356.00000</ele>
        <time>2020-09-23T08:58:42Z</time>
      </trkpt>
      <trkpt lat="40.92400638" lon="-8.45783843">
        <ele>355.00000</ele>
        <time>2020-09-23T08:58:43Z</time>
      </trkpt>
      <trkpt lat="40.92402876" lon="-8.45786316">
        <ele>355.00000</ele>
        <time>2020-09-23T08:58:44Z</time>
      </trkpt>
      <trkpt lat="40.92405759" lon="-8.45788638">
        <ele>355.00000</ele>
        <time>2020-09-23T08:58:45Z</time>
      </trkpt>
      <trkpt lat="40.92407997" lon="-8.45791119">
        <ele>355.00000</ele>
        <time>2020-09-23T08:58:46Z</time>
      </trkpt>
      <trkpt lat="40.92410562" lon="-8.45793843">
        <ele>355.00000</ele>
        <time>2020-09-23T08:58:47Z</time>
      </trkpt>
      <trkpt lat="40.92413437" lon="-8.45795997">
        <ele>356.00000</ele>
        <time>2020-09-23T08:58:48Z</time>
      </trkpt>
      <trkpt lat="40.92415683" lon="-8.45797522">
        <ele>356.00000</ele>
        <time>2020-09-23T08:58:49Z</time>
      </trkpt>
      <trkpt lat="40.92417921" lon="-8.45799199">
        <ele>356.00000</ele>
        <time>2020-09-23T08:58:50Z</time>
      </trkpt>
      <trkpt lat="40.92420159" lon="-8.45800716">
        <ele>355.00000</ele>
        <time>2020-09-23T08:58:51Z</time>
      </trkpt>
      <trkpt lat="40.92422397" lon="-8.45801839">
        <ele>355.00000</ele>
        <time>2020-09-23T08:58:52Z</time>
      </trkpt>
      <trkpt lat="40.92425281" lon="-8.45802878">
        <ele>355.00000</ele>
        <time>2020-09-23T08:58:53Z</time>
      </trkpt>
      <trkpt lat="40.92427200" lon="-8.45803842">
        <ele>355.00000</ele>
        <time>2020-09-23T08:58:54Z</time>
      </trkpt>
      <trkpt lat="40.92429438" lon="-8.45805200">
        <ele>355.00000</ele>
        <time>2020-09-23T08:58:57Z</time>
      </trkpt>
      <trkpt lat="40.92432321" lon="-8.45807438">
        <ele>354.00000</ele>
        <time>2020-09-23T08:59:27Z</time>
      </trkpt>
      <trkpt lat="40.92435196" lon="-8.45809835">
        <ele>354.00000</ele>
        <time>2020-09-23T08:59:29Z</time>
      </trkpt>
      <trkpt lat="40.92437116" lon="-8.45810959">
        <ele>353.00000</ele>
        <time>2020-09-23T08:59:30Z</time>
      </trkpt>
      <trkpt lat="40.92439362" lon="-8.45812157">
        <ele>353.00000</ele>
        <time>2020-09-23T08:59:31Z</time>
      </trkpt>
      <trkpt lat="40.92441282" lon="-8.45812803">
        <ele>353.00000</ele>
        <time>2020-09-23T08:59:32Z</time>
      </trkpt>
      <trkpt lat="40.92443838" lon="-8.45813197">
        <ele>353.00000</ele>
        <time>2020-09-23T08:59:33Z</time>
      </trkpt>
      <trkpt lat="40.92445758" lon="-8.45813842">
        <ele>352.00000</ele>
        <time>2020-09-23T08:59:34Z</time>
      </trkpt>
      <trkpt lat="40.92447677" lon="-8.45814320">
        <ele>352.00000</ele>
        <time>2020-09-23T08:59:35Z</time>
      </trkpt>
      <trkpt lat="40.92449597" lon="-8.45814722">
        <ele>352.00000</ele>
        <time>2020-09-23T08:59:36Z</time>
      </trkpt>
      <trkpt lat="40.92450561" lon="-8.45817203">
        <ele>351.00000</ele>
        <time>2020-09-23T08:59:38Z</time>
      </trkpt>
      <trkpt lat="40.92449278" lon="-8.45820556">
        <ele>351.00000</ele>
        <time>2020-09-23T08:59:40Z</time>
      </trkpt>
      <trkpt lat="40.92447677" lon="-8.45821838">
        <ele>350.00000</ele>
        <time>2020-09-23T08:59:41Z</time>
      </trkpt>
      <trkpt lat="40.92446403" lon="-8.45823682">
        <ele>350.00000</ele>
        <time>2020-09-23T08:59:42Z</time>
      </trkpt>
      <trkpt lat="40.92445121" lon="-8.45827278">
        <ele>350.00000</ele>
        <time>2020-09-23T08:59:44Z</time>
      </trkpt>
      <trkpt lat="40.92446403" lon="-8.45831519">
        <ele>349.00000</ele>
        <time>2020-09-23T08:59:46Z</time>
      </trkpt>
      <trkpt lat="40.92450242" lon="-8.45834637">
        <ele>348.00000</ele>
        <time>2020-09-23T08:59:48Z</time>
      </trkpt>
      <trkpt lat="40.92452480" lon="-8.45835199">
        <ele>347.00000</ele>
        <time>2020-09-23T08:59:49Z</time>
      </trkpt>
      <trkpt lat="40.92455036" lon="-8.45835199">
        <ele>347.00000</ele>
        <time>2020-09-23T08:59:50Z</time>
      </trkpt>
      <trkpt lat="40.92457601" lon="-8.45833841">
        <ele>347.00000</ele>
        <time>2020-09-23T08:59:52Z</time>
      </trkpt>
      <trkpt lat="40.92458875" lon="-8.45835836">
        <ele>347.00000</ele>
        <time>2020-09-23T08:59:54Z</time>
      </trkpt>
      <trkpt lat="40.92458238" lon="-8.45838158">
        <ele>346.00000</ele>
        <time>2020-09-23T08:59:55Z</time>
      </trkpt>
      <trkpt lat="40.92458875" lon="-8.45840639">
        <ele>346.00000</ele>
        <time>2020-09-23T08:59:56Z</time>
      </trkpt>
      <trkpt lat="40.92460158" lon="-8.45844637">
        <ele>345.00000</ele>
        <time>2020-09-23T08:59:58Z</time>
      </trkpt>
      <trkpt lat="40.92462077" lon="-8.45846397">
        <ele>344.00000</ele>
        <time>2020-09-23T08:59:59Z</time>
      </trkpt>
      <trkpt lat="40.92463997" lon="-8.45846883">
        <ele>344.00000</ele>
        <time>2020-09-23T09:00:00Z</time>
      </trkpt>
      <trkpt lat="40.92465916" lon="-8.45847680">
        <ele>344.00000</ele>
        <time>2020-09-23T09:00:01Z</time>
      </trkpt>
      <trkpt lat="40.92469118" lon="-8.45850002">
        <ele>343.00000</ele>
        <time>2020-09-23T09:00:03Z</time>
      </trkpt>
      <trkpt lat="40.92471356" lon="-8.45853522">
        <ele>343.00000</ele>
        <time>2020-09-23T09:00:05Z</time>
      </trkpt>
      <trkpt lat="40.92473921" lon="-8.45855123">
        <ele>342.00000</ele>
        <time>2020-09-23T09:00:07Z</time>
      </trkpt>
      <trkpt lat="40.92476796" lon="-8.45854880">
        <ele>342.00000</ele>
        <time>2020-09-23T09:00:09Z</time>
      </trkpt>
      <trkpt lat="40.92479042" lon="-8.45853120">
        <ele>342.00000</ele>
        <time>2020-09-23T09:00:11Z</time>
      </trkpt>
      <trkpt lat="40.92481280" lon="-8.45850639">
        <ele>342.00000</ele>
        <time>2020-09-23T09:00:13Z</time>
      </trkpt>
      <trkpt lat="40.92483518" lon="-8.45849515">
        <ele>342.00000</ele>
        <time>2020-09-23T09:00:15Z</time>
      </trkpt>
      <trkpt lat="40.92485756" lon="-8.45850479">
        <ele>342.00000</ele>
        <time>2020-09-23T09:00:17Z</time>
      </trkpt>
      <trkpt lat="40.92488321" lon="-8.45852483">
        <ele>341.00000</ele>
        <time>2020-09-23T09:00:19Z</time>
      </trkpt>
      <trkpt lat="40.92490877" lon="-8.45854402">
        <ele>340.00000</ele>
        <time>2020-09-23T09:00:21Z</time>
      </trkpt>
      <trkpt lat="40.92493115" lon="-8.45856640">
        <ele>340.00000</ele>
        <time>2020-09-23T09:00:23Z</time>
      </trkpt>
      <trkpt lat="40.92494716" lon="-8.45857839">
        <ele>340.00000</ele>
        <time>2020-09-23T09:00:25Z</time>
      </trkpt>
      <trkpt lat="40.92496963" lon="-8.45858962">
        <ele>339.00000</ele>
        <time>2020-09-23T09:00:28Z</time>
      </trkpt>
      <trkpt lat="40.92498882" lon="-8.45859842">
        <ele>339.00000</ele>
        <time>2020-09-23T09:00:30Z</time>
      </trkpt>
      <trkpt lat="40.92500802" lon="-8.45861602">
        <ele>338.00000</ele>
        <time>2020-09-23T09:00:32Z</time>
      </trkpt>
      <trkpt lat="40.92502076" lon="-8.45863840">
        <ele>338.00000</ele>
        <time>2020-09-23T09:00:34Z</time>
      </trkpt>
      <trkpt lat="40.92503358" lon="-8.45866958">
        <ele>337.00000</ele>
        <time>2020-09-23T09:00:36Z</time>
      </trkpt>
      <trkpt lat="40.92504959" lon="-8.45870722">
        <ele>336.00000</ele>
        <time>2020-09-23T09:00:38Z</time>
      </trkpt>
      <trkpt lat="40.92506879" lon="-8.45871996">
        <ele>335.00000</ele>
        <time>2020-09-23T09:00:39Z</time>
      </trkpt>
      <trkpt lat="40.92509443" lon="-8.45873680">
        <ele>334.00000</ele>
        <time>2020-09-23T09:00:41Z</time>
      </trkpt>
      <trkpt lat="40.92511363" lon="-8.45876161">
        <ele>333.00000</ele>
        <time>2020-09-23T09:00:43Z</time>
      </trkpt>
      <trkpt lat="40.92512637" lon="-8.45878316">
        <ele>333.00000</ele>
        <time>2020-09-23T09:00:44Z</time>
      </trkpt>
      <trkpt lat="40.92514556" lon="-8.45881836">
        <ele>331.00000</ele>
        <time>2020-09-23T09:00:46Z</time>
      </trkpt>
      <trkpt lat="40.92516476" lon="-8.45883680">
        <ele>331.00000</ele>
        <time>2020-09-23T09:00:48Z</time>
      </trkpt>
      <trkpt lat="40.92524799" lon="-8.45892716">
        <ele>327.00000</ele>
        <time>2020-09-23T09:00:55Z</time>
      </trkpt>
      <trkpt lat="40.92527037" lon="-8.45895281">
        <ele>326.00000</ele>
        <time>2020-09-23T09:00:57Z</time>
      </trkpt>
      <trkpt lat="40.92528638" lon="-8.45899036">
        <ele>325.00000</ele>
        <time>2020-09-23T09:00:59Z</time>
      </trkpt>
      <trkpt lat="40.92530557" lon="-8.45901676">
        <ele>324.00000</ele>
        <time>2020-09-23T09:01:01Z</time>
      </trkpt>
      <trkpt lat="40.92530876" lon="-8.45904802">
        <ele>324.00000</ele>
        <time>2020-09-23T09:01:03Z</time>
      </trkpt>
      <trkpt lat="40.92533122" lon="-8.45909521">
        <ele>323.00000</ele>
        <time>2020-09-23T09:01:06Z</time>
      </trkpt>
      <trkpt lat="40.92534723" lon="-8.45910795">
        <ele>322.00000</ele>
        <time>2020-09-23T09:01:07Z</time>
      </trkpt>
      <trkpt lat="40.92537598" lon="-8.45914400">
        <ele>321.00000</ele>
        <time>2020-09-23T09:01:09Z</time>
      </trkpt>
      <trkpt lat="40.92538881" lon="-8.45918163">
        <ele>321.00000</ele>
        <time>2020-09-23T09:01:10Z</time>
      </trkpt>
      <trkpt lat="40.92539836" lon="-8.45922480">
        <ele>320.00000</ele>
        <time>2020-09-23T09:01:11Z</time>
      </trkpt>
      <trkpt lat="40.92540800" lon="-8.45925363">
        <ele>320.00000</ele>
        <time>2020-09-23T09:01:12Z</time>
      </trkpt>
      <trkpt lat="40.92541756" lon="-8.45927517">
        <ele>320.00000</ele>
        <time>2020-09-23T09:01:13Z</time>
      </trkpt>
      <trkpt lat="40.92545276" lon="-8.45935120">
        <ele>318.00000</ele>
        <time>2020-09-23T09:01:17Z</time>
      </trkpt>
      <trkpt lat="40.92546558" lon="-8.45937517">
        <ele>318.00000</ele>
        <time>2020-09-23T09:01:18Z</time>
      </trkpt>
      <trkpt lat="40.92547841" lon="-8.45940317">
        <ele>318.00000</ele>
        <time>2020-09-23T09:01:19Z</time>
      </trkpt>
      <trkpt lat="40.92549442" lon="-8.45941599">
        <ele>317.00000</ele>
        <time>2020-09-23T09:01:20Z</time>
      </trkpt>
      <trkpt lat="40.92556483" lon="-8.45952001">
        <ele>316.00000</ele>
        <time>2020-09-23T09:01:25Z</time>
      </trkpt>
      <trkpt lat="40.92556483" lon="-8.45966317">
        <ele>317.00000</ele>
        <time>2020-09-23T09:01:29Z</time>
      </trkpt>
      <trkpt lat="40.92554882" lon="-8.45976560">
        <ele>317.00000</ele>
        <time>2020-09-23T09:01:32Z</time>
      </trkpt>
      <trkpt lat="40.92554882" lon="-8.45980323">
        <ele>317.00000</ele>
        <time>2020-09-23T09:01:33Z</time>
      </trkpt>
      <trkpt lat="40.92555519" lon="-8.45984162">
        <ele>317.00000</ele>
        <time>2020-09-23T09:01:34Z</time>
      </trkpt>
      <trkpt lat="40.92555837" lon="-8.45987758">
        <ele>317.00000</ele>
        <time>2020-09-23T09:01:35Z</time>
      </trkpt>
      <trkpt lat="40.92556801" lon="-8.45991522">
        <ele>317.00000</ele>
        <time>2020-09-23T09:01:36Z</time>
      </trkpt>
      <trkpt lat="40.92557120" lon="-8.45994640">
        <ele>316.00000</ele>
        <time>2020-09-23T09:01:37Z</time>
      </trkpt>
      <trkpt lat="40.92557438" lon="-8.45997355">
        <ele>316.00000</ele>
        <time>2020-09-23T09:01:38Z</time>
      </trkpt>
      <trkpt lat="40.92557757" lon="-8.46000641">
        <ele>316.00000</ele>
        <time>2020-09-23T09:01:39Z</time>
      </trkpt>
      <trkpt lat="40.92558721" lon="-8.46004480">
        <ele>315.00000</ele>
        <time>2020-09-23T09:01:40Z</time>
      </trkpt>
      <trkpt lat="40.92560640" lon="-8.46008721">
        <ele>314.00000</ele>
        <time>2020-09-23T09:01:41Z</time>
      </trkpt>
      <trkpt lat="40.92562241" lon="-8.46012242">
        <ele>314.00000</ele>
        <time>2020-09-23T09:01:42Z</time>
      </trkpt>
      <trkpt lat="40.92564160" lon="-8.46015519">
        <ele>313.00000</ele>
        <time>2020-09-23T09:01:43Z</time>
      </trkpt>
      <trkpt lat="40.92565761" lon="-8.46018478">
        <ele>312.00000</ele>
        <time>2020-09-23T09:01:44Z</time>
      </trkpt>
      <trkpt lat="40.92567681" lon="-8.46021437">
        <ele>311.00000</ele>
        <time>2020-09-23T09:01:45Z</time>
      </trkpt>
      <trkpt lat="40.92569282" lon="-8.46024722">
        <ele>311.00000</ele>
        <time>2020-09-23T09:01:46Z</time>
      </trkpt>
      <trkpt lat="40.92570556" lon="-8.46027840">
        <ele>310.00000</ele>
        <time>2020-09-23T09:01:47Z</time>
      </trkpt>
      <trkpt lat="40.92571201" lon="-8.46030958">
        <ele>310.00000</ele>
        <time>2020-09-23T09:01:48Z</time>
      </trkpt>
      <trkpt lat="40.92572484" lon="-8.46034797">
        <ele>309.00000</ele>
        <time>2020-09-23T09:01:49Z</time>
      </trkpt>
      <trkpt lat="40.92575677" lon="-8.46048804">
        <ele>308.00000</ele>
        <time>2020-09-23T09:01:53Z</time>
      </trkpt>
      <trkpt lat="40.92576641" lon="-8.46052642">
        <ele>307.00000</ele>
        <time>2020-09-23T09:01:54Z</time>
      </trkpt>
      <trkpt lat="40.92578242" lon="-8.46067118">
        <ele>306.00000</ele>
        <time>2020-09-23T09:01:57Z</time>
      </trkpt>
      <trkpt lat="40.92579516" lon="-8.46081200">
        <ele>304.00000</ele>
        <time>2020-09-23T09:02:00Z</time>
      </trkpt>
      <trkpt lat="40.92584000" lon="-8.46095440">
        <ele>303.00000</ele>
        <time>2020-09-23T09:02:04Z</time>
      </trkpt>
      <trkpt lat="40.92585601" lon="-8.46107678">
        <ele>301.00000</ele>
        <time>2020-09-23T09:02:07Z</time>
      </trkpt>
      <trkpt lat="40.92588158" lon="-8.46115683">
        <ele>300.00000</ele>
        <time>2020-09-23T09:02:10Z</time>
      </trkpt>
      <trkpt lat="40.92588803" lon="-8.46117996">
        <ele>300.00000</ele>
        <time>2020-09-23T09:02:11Z</time>
      </trkpt>
      <trkpt lat="40.92589122" lon="-8.46120796">
        <ele>299.00000</ele>
        <time>2020-09-23T09:02:12Z</time>
      </trkpt>
      <trkpt lat="40.92590396" lon="-8.46123520">
        <ele>299.00000</ele>
        <time>2020-09-23T09:02:13Z</time>
      </trkpt>
      <trkpt lat="40.92592324" lon="-8.46126160">
        <ele>298.00000</ele>
        <time>2020-09-23T09:02:14Z</time>
      </trkpt>
      <trkpt lat="40.92593916" lon="-8.46129362">
        <ele>297.00000</ele>
        <time>2020-09-23T09:02:15Z</time>
      </trkpt>
      <trkpt lat="40.92595517" lon="-8.46131843">
        <ele>297.00000</ele>
        <time>2020-09-23T09:02:16Z</time>
      </trkpt>
      <trkpt lat="40.92597437" lon="-8.46133838">
        <ele>296.00000</ele>
        <time>2020-09-23T09:02:17Z</time>
      </trkpt>
      <trkpt lat="40.92599356" lon="-8.46135523">
        <ele>296.00000</ele>
        <time>2020-09-23T09:02:18Z</time>
      </trkpt>
      <trkpt lat="40.92600957" lon="-8.46137518">
        <ele>295.00000</ele>
        <time>2020-09-23T09:02:19Z</time>
      </trkpt>
      <trkpt lat="40.92603203" lon="-8.46139521">
        <ele>295.00000</ele>
        <time>2020-09-23T09:02:20Z</time>
      </trkpt>
      <trkpt lat="40.92604796" lon="-8.46141516">
        <ele>294.00000</ele>
        <time>2020-09-23T09:02:21Z</time>
      </trkpt>
      <trkpt lat="40.92606715" lon="-8.46155681">
        <ele>292.00000</ele>
        <time>2020-09-23T09:02:25Z</time>
      </trkpt>
      <trkpt lat="40.92610881" lon="-8.46162797">
        <ele>291.00000</ele>
        <time>2020-09-23T09:02:27Z</time>
      </trkpt>
      <trkpt lat="40.92612801" lon="-8.46164960">
        <ele>291.00000</ele>
        <time>2020-09-23T09:02:28Z</time>
      </trkpt>
      <trkpt lat="40.92616958" lon="-8.46179276">
        <ele>289.00000</ele>
        <time>2020-09-23T09:02:32Z</time>
      </trkpt>
      <trkpt lat="40.92621761" lon="-8.46189519">
        <ele>288.00000</ele>
        <time>2020-09-23T09:02:35Z</time>
      </trkpt>
      <trkpt lat="40.92627201" lon="-8.46199678">
        <ele>286.00000</ele>
        <time>2020-09-23T09:02:39Z</time>
      </trkpt>
      <trkpt lat="40.92628483" lon="-8.46203357">
        <ele>285.00000</ele>
        <time>2020-09-23T09:02:40Z</time>
      </trkpt>
      <trkpt lat="40.92629757" lon="-8.46207842">
        <ele>284.00000</ele>
        <time>2020-09-23T09:02:41Z</time>
      </trkpt>
      <trkpt lat="40.92631040" lon="-8.46211597">
        <ele>283.00000</ele>
        <time>2020-09-23T09:02:42Z</time>
      </trkpt>
      <trkpt lat="40.92632641" lon="-8.46215117">
        <ele>282.00000</ele>
        <time>2020-09-23T09:02:43Z</time>
      </trkpt>
      <trkpt lat="40.92635197" lon="-8.46218319">
        <ele>281.00000</ele>
        <time>2020-09-23T09:02:44Z</time>
      </trkpt>
      <trkpt lat="40.92637117" lon="-8.46220876">
        <ele>281.00000</ele>
        <time>2020-09-23T09:02:45Z</time>
      </trkpt>
      <trkpt lat="40.92640000" lon="-8.46223684">
        <ele>280.00000</ele>
        <time>2020-09-23T09:02:46Z</time>
      </trkpt>
      <trkpt lat="40.92642238" lon="-8.46225360">
        <ele>280.00000</ele>
        <time>2020-09-23T09:02:47Z</time>
      </trkpt>
      <trkpt lat="40.92645121" lon="-8.46226802">
        <ele>280.00000</ele>
        <time>2020-09-23T09:02:48Z</time>
      </trkpt>
      <trkpt lat="40.92647996" lon="-8.46226081">
        <ele>280.00000</ele>
        <time>2020-09-23T09:02:49Z</time>
      </trkpt>
      <trkpt lat="40.92650561" lon="-8.46224723">
        <ele>280.00000</ele>
        <time>2020-09-23T09:02:50Z</time>
      </trkpt>
      <trkpt lat="40.92652799" lon="-8.46222317">
        <ele>280.00000</ele>
        <time>2020-09-23T09:02:51Z</time>
      </trkpt>
      <trkpt lat="40.92654719" lon="-8.46219836">
        <ele>281.00000</ele>
        <time>2020-09-23T09:02:52Z</time>
      </trkpt>
      <trkpt lat="40.92656319" lon="-8.46217364">
        <ele>281.00000</ele>
        <time>2020-09-23T09:02:53Z</time>
      </trkpt>
      <trkpt lat="40.92658239" lon="-8.46215603">
        <ele>282.00000</ele>
        <time>2020-09-23T09:02:54Z</time>
      </trkpt>
      <trkpt lat="40.92660795" lon="-8.46215838">
        <ele>282.00000</ele>
        <time>2020-09-23T09:02:55Z</time>
      </trkpt>
      <trkpt lat="40.92663997" lon="-8.46215997">
        <ele>282.00000</ele>
        <time>2020-09-23T09:02:56Z</time>
      </trkpt>
      <trkpt lat="40.92666881" lon="-8.46216877">
        <ele>281.00000</ele>
        <time>2020-09-23T09:02:57Z</time>
      </trkpt>
      <trkpt lat="40.92670083" lon="-8.46218244">
        <ele>281.00000</ele>
        <time>2020-09-23T09:02:58Z</time>
      </trkpt>
      <trkpt lat="40.92672958" lon="-8.46219115">
        <ele>280.00000</ele>
        <time>2020-09-23T09:02:59Z</time>
      </trkpt>
      <trkpt lat="40.92676159" lon="-8.46219995">
        <ele>280.00000</ele>
        <time>2020-09-23T09:03:00Z</time>
      </trkpt>
      <trkpt lat="40.92679361" lon="-8.46220959">
        <ele>279.00000</ele>
        <time>2020-09-23T09:03:01Z</time>
      </trkpt>
      <trkpt lat="40.92682563" lon="-8.46221521">
        <ele>279.00000</ele>
        <time>2020-09-23T09:03:02Z</time>
      </trkpt>
      <trkpt lat="40.92686084" lon="-8.46221999">
        <ele>278.00000</ele>
        <time>2020-09-23T09:03:03Z</time>
      </trkpt>
      <trkpt lat="40.92689277" lon="-8.46222242">
        <ele>278.00000</ele>
        <time>2020-09-23T09:03:04Z</time>
      </trkpt>
      <trkpt lat="40.92692479" lon="-8.46222477">
        <ele>278.00000</ele>
        <time>2020-09-23T09:03:05Z</time>
      </trkpt>
      <trkpt lat="40.92695999" lon="-8.46222720">
        <ele>277.00000</ele>
        <time>2020-09-23T09:03:06Z</time>
      </trkpt>
      <trkpt lat="40.92698556" lon="-8.46223843">
        <ele>277.00000</ele>
        <time>2020-09-23T09:03:07Z</time>
      </trkpt>
      <trkpt lat="40.92701439" lon="-8.46225838">
        <ele>276.00000</ele>
        <time>2020-09-23T09:03:08Z</time>
      </trkpt>
      <trkpt lat="40.92703996" lon="-8.46226961">
        <ele>276.00000</ele>
        <time>2020-09-23T09:03:09Z</time>
      </trkpt>
      <trkpt lat="40.92707198" lon="-8.46228319">
        <ele>275.00000</ele>
        <time>2020-09-23T09:03:10Z</time>
      </trkpt>
      <trkpt lat="40.92709762" lon="-8.46229677">
        <ele>274.00000</ele>
        <time>2020-09-23T09:03:11Z</time>
      </trkpt>
      <trkpt lat="40.92712319" lon="-8.46230959">
        <ele>274.00000</ele>
        <time>2020-09-23T09:03:12Z</time>
      </trkpt>
      <trkpt lat="40.92715202" lon="-8.46231998">
        <ele>273.00000</ele>
        <time>2020-09-23T09:03:13Z</time>
      </trkpt>
      <trkpt lat="40.92717440" lon="-8.46232803">
        <ele>273.00000</ele>
        <time>2020-09-23T09:03:14Z</time>
      </trkpt>
    </trkseg>
    <trkseg>
      <trkpt lat="40.92719678" lon="-8.46234161">
        <ele>272.00000</ele>
        <time>2020-09-23T09:03:15Z</time>
      </trkpt>
      <trkpt lat="40.92721916" lon="-8.46234957">
        <ele>272.00000</ele>
        <time>2020-09-23T09:03:16Z</time>
      </trkpt>
      <trkpt lat="40.92724163" lon="-8.46235360">
        <ele>271.00000</ele>
        <time>2020-09-23T09:03:17Z</time>
      </trkpt>
      <trkpt lat="40.92726401" lon="-8.46235997">
        <ele>271.00000</ele>
        <time>2020-09-23T09:03:18Z</time>
      </trkpt>
      <trkpt lat="40.92729276" lon="-8.46236323">
        <ele>270.00000</ele>
        <time>2020-09-23T09:03:20Z</time>
      </trkpt>
      <trkpt lat="40.92731203" lon="-8.46237363">
        <ele>270.00000</ele>
        <time>2020-09-23T09:03:24Z</time>
      </trkpt>
      <trkpt lat="40.92733123" lon="-8.46238955">
        <ele>269.00000</ele>
        <time>2020-09-23T09:03:28Z</time>
      </trkpt>
      <trkpt lat="40.92733760" lon="-8.46241361">
        <ele>269.00000</ele>
        <time>2020-09-23T09:03:30Z</time>
      </trkpt>
      <trkpt lat="40.92734078" lon="-8.46244077">
        <ele>269.00000</ele>
        <time>2020-09-23T09:03:34Z</time>
      </trkpt>
      <trkpt lat="40.92735679" lon="-8.46245678">
        <ele>268.00000</ele>
        <time>2020-09-23T09:03:37Z</time>
      </trkpt>
      <trkpt lat="40.92737280" lon="-8.46247036">
        <ele>268.00000</ele>
        <time>2020-09-23T09:03:38Z</time>
      </trkpt>
      <trkpt lat="40.92740482" lon="-8.46245443">
        <ele>268.00000</ele>
        <time>2020-09-23T09:03:40Z</time>
      </trkpt>
      <trkpt lat="40.92742083" lon="-8.46243197">
        <ele>267.00000</ele>
        <time>2020-09-23T09:03:41Z</time>
      </trkpt>
      <trkpt lat="40.92744003" lon="-8.46240162">
        <ele>267.00000</ele>
        <time>2020-09-23T09:03:42Z</time>
      </trkpt>
      <trkpt lat="40.92745922" lon="-8.46236717">
        <ele>267.00000</ele>
        <time>2020-09-23T09:03:43Z</time>
      </trkpt>
      <trkpt lat="40.92747523" lon="-8.46233197">
        <ele>267.00000</ele>
        <time>2020-09-23T09:03:44Z</time>
      </trkpt>
      <trkpt lat="40.92754882" lon="-8.46242560">
        <ele>265.00000</ele>
        <time>2020-09-23T09:03:56Z</time>
      </trkpt>
      <trkpt lat="40.92755838" lon="-8.46247036">
        <ele>265.00000</ele>
        <time>2020-09-23T09:03:58Z</time>
      </trkpt>
      <trkpt lat="40.92757757" lon="-8.46250003">
        <ele>264.00000</ele>
        <time>2020-09-23T09:04:00Z</time>
      </trkpt>
      <trkpt lat="40.92758721" lon="-8.46252316">
        <ele>264.00000</ele>
        <time>2020-09-23T09:04:01Z</time>
      </trkpt>
      <trkpt lat="40.92760322" lon="-8.46255040">
        <ele>263.00000</ele>
        <time>2020-09-23T09:04:03Z</time>
      </trkpt>
      <trkpt lat="40.92762879" lon="-8.46257999">
        <ele>263.00000</ele>
        <time>2020-09-23T09:04:05Z</time>
      </trkpt>
      <trkpt lat="40.92765117" lon="-8.46260321">
        <ele>262.00000</ele>
        <time>2020-09-23T09:04:07Z</time>
      </trkpt>
      <trkpt lat="40.92767036" lon="-8.46262643">
        <ele>262.00000</ele>
        <time>2020-09-23T09:04:09Z</time>
      </trkpt>
      <trkpt lat="40.92768000" lon="-8.46265761">
        <ele>262.00000</ele>
        <time>2020-09-23T09:04:11Z</time>
      </trkpt>
      <trkpt lat="40.92769919" lon="-8.46269516">
        <ele>261.00000</ele>
        <time>2020-09-23T09:04:13Z</time>
      </trkpt>
      <trkpt lat="40.92777279" lon="-8.46276481">
        <ele>260.00000</ele>
        <time>2020-09-23T09:04:17Z</time>
      </trkpt>
      <trkpt lat="40.92785920" lon="-8.46287998">
        <ele>258.00000</ele>
        <time>2020-09-23T09:04:23Z</time>
      </trkpt>
      <trkpt lat="40.92791679" lon="-8.46299196">
        <ele>257.00000</ele>
        <time>2020-09-23T09:04:26Z</time>
      </trkpt>
      <trkpt lat="40.92795518" lon="-8.46310562">
        <ele>258.00000</ele>
        <time>2020-09-23T09:04:30Z</time>
      </trkpt>
      <trkpt lat="40.92802877" lon="-8.46318642">
        <ele>257.00000</ele>
        <time>2020-09-23T09:04:36Z</time>
      </trkpt>
      <trkpt lat="40.92811837" lon="-8.46317276">
        <ele>255.00000</ele>
        <time>2020-09-23T09:04:42Z</time>
      </trkpt>
      <trkpt lat="40.92820479" lon="-8.46312716">
        <ele>253.00000</ele>
        <time>2020-09-23T09:04:48Z</time>
      </trkpt>
      <trkpt lat="40.92827838" lon="-8.46303437">
        <ele>250.00000</ele>
        <time>2020-09-23T09:04:53Z</time>
      </trkpt>
      <trkpt lat="40.92835516" lon="-8.46295357">
        <ele>248.00000</ele>
        <time>2020-09-23T09:05:00Z</time>
      </trkpt>
      <trkpt lat="40.92841601" lon="-8.46286321">
        <ele>246.00000</ele>
        <time>2020-09-23T09:05:14Z</time>
      </trkpt>
      <trkpt lat="40.92847678" lon="-8.46275836">
        <ele>244.00000</ele>
        <time>2020-09-23T09:05:27Z</time>
      </trkpt>
      <trkpt lat="40.92854719" lon="-8.46267999">
        <ele>242.00000</ele>
        <time>2020-09-23T09:05:33Z</time>
      </trkpt>
      <trkpt lat="40.92864962" lon="-8.46266163">
        <ele>241.00000</ele>
        <time>2020-09-23T09:05:38Z</time>
      </trkpt>
      <trkpt lat="40.92874241" lon="-8.46271360">
        <ele>241.00000</ele>
        <time>2020-09-23T09:05:44Z</time>
      </trkpt>
      <trkpt lat="40.92882555" lon="-8.46278878">
        <ele>240.00000</ele>
        <time>2020-09-23T09:05:48Z</time>
      </trkpt>
      <trkpt lat="40.92890560" lon="-8.46285601">
        <ele>239.00000</ele>
        <time>2020-09-23T09:05:51Z</time>
      </trkpt>
      <trkpt lat="40.92898238" lon="-8.46293840">
        <ele>239.00000</ele>
        <time>2020-09-23T09:05:55Z</time>
      </trkpt>
      <trkpt lat="40.92908799" lon="-8.46299439">
        <ele>237.00000</ele>
        <time>2020-09-23T09:05:59Z</time>
      </trkpt>
      <trkpt lat="40.92918078" lon="-8.46308961">
        <ele>236.00000</ele>
        <time>2020-09-23T09:06:03Z</time>
      </trkpt>
      <trkpt lat="40.92923836" lon="-8.46320000">
        <ele>236.00000</ele>
        <time>2020-09-23T09:06:08Z</time>
      </trkpt>
      <trkpt lat="40.92922881" lon="-8.46332799">
        <ele>236.00000</ele>
        <time>2020-09-23T09:06:12Z</time>
      </trkpt>
      <trkpt lat="40.92922881" lon="-8.46345037">
        <ele>237.00000</ele>
        <time>2020-09-23T09:06:28Z</time>
      </trkpt>
      <trkpt lat="40.92922881" lon="-8.46357601">
        <ele>237.00000</ele>
        <time>2020-09-23T09:06:41Z</time>
      </trkpt>
      <trkpt lat="40.92922881" lon="-8.46369839">
        <ele>237.00000</ele>
        <time>2020-09-23T09:06:47Z</time>
      </trkpt>
      <trkpt lat="40.92919042" lon="-8.46383283">
        <ele>237.00000</ele>
        <time>2020-09-23T09:06:51Z</time>
      </trkpt>
      <trkpt lat="40.92918396" lon="-8.46396636">
        <ele>237.00000</ele>
        <time>2020-09-23T09:06:55Z</time>
      </trkpt>
      <trkpt lat="40.92914239" lon="-8.46411036">
        <ele>237.00000</ele>
        <time>2020-09-23T09:06:59Z</time>
      </trkpt>
      <trkpt lat="40.92912957" lon="-8.46424321">
        <ele>236.00000</ele>
        <time>2020-09-23T09:07:04Z</time>
      </trkpt>
      <trkpt lat="40.92911037" lon="-8.46436877">
        <ele>235.00000</ele>
        <time>2020-09-23T09:07:09Z</time>
      </trkpt>
      <trkpt lat="40.92910400" lon="-8.46451361">
        <ele>233.00000</ele>
        <time>2020-09-23T09:07:13Z</time>
      </trkpt>
      <trkpt lat="40.92912001" lon="-8.46463280">
        <ele>232.00000</ele>
        <time>2020-09-23T09:07:17Z</time>
      </trkpt>
      <trkpt lat="40.92912957" lon="-8.46475518">
        <ele>230.00000</ele>
        <time>2020-09-23T09:07:22Z</time>
      </trkpt>
      <trkpt lat="40.92912957" lon="-8.46487839">
        <ele>230.00000</ele>
        <time>2020-09-23T09:07:27Z</time>
      </trkpt>
      <trkpt lat="40.92911683" lon="-8.46500881">
        <ele>230.00000</ele>
        <time>2020-09-23T09:07:31Z</time>
      </trkpt>
      <trkpt lat="40.92910082" lon="-8.46514318">
        <ele>230.00000</ele>
        <time>2020-09-23T09:07:35Z</time>
      </trkpt>
      <trkpt lat="40.92906243" lon="-8.46526161">
        <ele>230.00000</ele>
        <time>2020-09-23T09:07:39Z</time>
      </trkpt>
      <trkpt lat="40.92902722" lon="-8.46541676">
        <ele>229.00000</ele>
        <time>2020-09-23T09:07:43Z</time>
      </trkpt>
      <trkpt lat="40.92897919" lon="-8.46555682">
        <ele>228.00000</ele>
        <time>2020-09-23T09:07:47Z</time>
      </trkpt>
      <trkpt lat="40.92894718" lon="-8.46567995">
        <ele>228.00000</ele>
        <time>2020-09-23T09:07:51Z</time>
      </trkpt>
      <trkpt lat="40.92892480" lon="-8.46580317">
        <ele>227.00000</ele>
        <time>2020-09-23T09:07:55Z</time>
      </trkpt>
      <trkpt lat="40.92886403" lon="-8.46591842">
        <ele>227.00000</ele>
        <time>2020-09-23T09:08:01Z</time>
      </trkpt>
      <trkpt lat="40.92883838" lon="-8.46603677">
        <ele>227.00000</ele>
        <time>2020-09-23T09:08:06Z</time>
      </trkpt>
      <trkpt lat="40.92876797" lon="-8.46611523">
        <ele>228.00000</ele>
        <time>2020-09-23T09:08:10Z</time>
      </trkpt>
      <trkpt lat="40.92870402" lon="-8.46620156">
        <ele>228.00000</ele>
        <time>2020-09-23T09:08:13Z</time>
      </trkpt>
      <trkpt lat="40.92864643" lon="-8.46631840">
        <ele>227.00000</ele>
        <time>2020-09-23T09:08:16Z</time>
      </trkpt>
      <trkpt lat="40.92864643" lon="-8.46644237">
        <ele>226.00000</ele>
        <time>2020-09-23T09:08:19Z</time>
      </trkpt>
      <trkpt lat="40.92865599" lon="-8.46647841">
        <ele>226.00000</ele>
        <time>2020-09-23T09:08:20Z</time>
      </trkpt>
      <trkpt lat="40.92867200" lon="-8.46650959">
        <ele>225.00000</ele>
        <time>2020-09-23T09:08:21Z</time>
      </trkpt>
      <trkpt lat="40.92868801" lon="-8.46653843">
        <ele>225.00000</ele>
        <time>2020-09-23T09:08:22Z</time>
      </trkpt>
      <trkpt lat="40.92876160" lon="-8.46663440">
        <ele>225.00000</ele>
        <time>2020-09-23T09:08:26Z</time>
      </trkpt>
      <trkpt lat="40.92878079" lon="-8.46664798">
        <ele>225.00000</ele>
        <time>2020-09-23T09:08:27Z</time>
      </trkpt>
      <trkpt lat="40.92880317" lon="-8.46665921">
        <ele>225.00000</ele>
        <time>2020-09-23T09:08:28Z</time>
      </trkpt>
      <trkpt lat="40.92882882" lon="-8.46666642">
        <ele>225.00000</ele>
        <time>2020-09-23T09:08:29Z</time>
      </trkpt>
      <trkpt lat="40.92892161" lon="-8.46661202">
        <ele>226.00000</ele>
        <time>2020-09-23T09:08:34Z</time>
      </trkpt>
      <trkpt lat="40.92896318" lon="-8.46648721">
        <ele>227.00000</ele>
        <time>2020-09-23T09:08:39Z</time>
      </trkpt>
      <trkpt lat="40.92899839" lon="-8.46635595">
        <ele>227.00000</ele>
        <time>2020-09-23T09:08:44Z</time>
      </trkpt>
    </trkseg>
  </trk>
</gpx>

